[[{"header":{"parameterUnit":"m.s-1","parameterCategory":1,"la1":31.0,"la2":29.5877,"lo1":-88.7671,"lo2":-86.6584,"dx":0.0162,"dy":0.0185,"nx":115,"ny":88,"refTime":"2022-12-31T12:00:00:Z","depth":0,"parameterNumber":2,"parameterNumberName":"U-component_of_WINDS"},"data":[0.0,0.0,0.0,0.0,0.0,0.0,0.0,0.0,0.0,0.0,0.0,0.0,0.0,0.0,0.0,0.0,0.0,0.0,0.0,0.0,0.0,0.0,0.0,0.0,0.0,0.0,0.0,0.0,0.0,0.0,0.0,0.0,0.0,0.0,0.0,0.0,0.0,0.0,0.0,0.0,0.0,0.0,0.0,0.0,0.0,0.0,0.0,0.0,0.0,0.0,0.0,0.0,0.0,0.0,0.0,0.0,0.0,0.0,0.0,0.0,0.0,0.0,0.0,0.0,0.0,0.0,0.0,0.0,0.0,0.0,0.0,0.0,0.0,0.0,0.0,0.0,0.0,0.0,0.0,0.0,0.0,0.0,0.0,0.0,0.0,0.0,0.0,0.0,0.0,0.0,0.0,0.0,0.0,0.0,0.0,0.0,0.0,0.0,0.0,0.0,0.0,0.0,0.0,0.0,0.0,0.0,0.0,0.0,0.0,0.0,0.0,0.0,0.0,0.0,0.0,0.0,0.0,0.0,0.0,0.0,0.0,0.0,0.0,0.0,0.0,0.0,0.0,0.0,0.0,0.0,0.0,0.0,0.0,0.0,0.0,0.0,0.0,0.0,0.0,0.0,0.0,0.0,0.0,0.0,0.0,0.0,0.0,0.0,0.0,0.0,0.0,0.0,0.0,0.0,0.0,0.0,0.0,0.0,0.0,0.0,0.0,0.0,0.0,0.0,0.0,0.0,0.0,0.0,0.0,0.0,0.0,0.0,0.0,0.0,0.0,0.0,0.0,0.0,0.0,0.0,0.0,0.0,0.0,0.0,0.0,0.0,0.0,0.0,0.0,0.0,0.0,0.0,0.0,0.0,0.0,0.0,0.0,0.0,0.0,0.0,0.0,0.0,0.0,0.0,0.0,0.0,0.0,0.0,0.0,0.0,0.0,0.0,0.0,0.0,0.0,0.0,0.0,0.0,0.0,0.0,0.0,0.0,0.0,0.0,0.0,0.0,0.0,0.0,0.0,0.0,0.0,0.0,0.0,0.0,0.0,0.0,0.0,0.0,0.0,0.0,0.0,0.0,0.0,0.0,0.0,0.0,0.0,0.0,0.0,0.0,0.0,0.0,0.0,0.0,0.0,0.0,0.0,0.0,0.0,0.0,0.0,0.0,0.0,0.0,0.0,0.0,0.0,0.0,0.0,0.0,0.0,0.0,0.0,0.0,0.0,0.0,0.0,0.0,0.0,0.0,0.0,0.0,0.0,0.0,0.0,0.0,0.0,0.0,0.0,0.0,0.0,0.0,0.0,0.0,0.0,0.0,0.0,0.0,0.0,0.0,0.0,0.0,0.0,0.0,0.0,0.0,0.0,0.0,0.0,0.0,0.0,0.0,0.0,0.0,0.0,0.0,0.0,0.0,0.0,0.0,0.0,0.0,0.0,0.0,0.0,0.0,0.0,0.0,0.0,0.0,0.0,0.0,0.0,0.0,0.0,0.0,0.0,0.0,0.0,0.0,0.0,0.0,0.0,0.0,0.0,0.0,0.0,0.0,0.0,0.0,0.0,0.0,0.0,0.0,0.0,0.0,0.0,0.0,0.0,0.0,0.0,0.0,0.0,0.0,0.0,0.0,0.0,0.0,0.0,0.0,0.0,0.0,0.0,0.0,0.0,0.0,0.0,0.0,0.0,0.0,0.0,0.0,0.0,0.0,0.0,0.0,0.0,0.0,0.0,0.0,0.0,0.0,0.0,0.0,0.0,0.0,0.0,0.0,0.0,0.0,0.0,0.0,0.0,0.0,0.0,0.0,0.0,0.0,0.0,0.0,0.0,0.0,0.0,0.0,0.0,0.0,0.0,0.0,0.0,0.0,0.0,0.0,0.0,0.0,0.0,0.0,0.0,0.0,0.0,0.0,0.0,0.0,0.0,0.0,0.0,0.0,0.0,0.0,0.0,0.0,0.0,0.0,0.0,0.0,0.0,0.0,0.0,0.0,0.0,0.0,0.0,0.0,0.0,0.0,0.0,0.0,0.0,0.0,0.0,0.0,0.0,0.0,0.0,0.0,0.0,0.0,0.0,0.0,0.0,0.0,0.0,0.0,0.0,0.0,0.0,0.0,0.0,0.0,0.0,0.0,0.0,0.0,0.0,0.0,0.0,0.0,0.0,0.0,0.0,0.0,0.0,0.0,0.0,0.0,0.0,0.0,0.0,0.0,0.0,0.0,0.0,0.0,0.0,0.0,0.0,0.0,0.0,0.0,0.0,0.0,0.0,0.0,0.0,0.0,0.0,0.0,0.0,0.0,0.0,0.0,0.0,0.0,0.0,0.0,0.0,0.0,0.0,0.0,0.0,0.0,0.0,0.0,0.0,0.0,0.0,0.0,0.0,0.0,0.0,0.0,0.0,0.0,0.0,0.0,0.0,0.0,0.0,0.0,0.0,0.0,0.0,0.0,0.0,0.0,0.0,0.0,0.0,0.0,0.0,0.0,0.0,0.0,0.0,0.0,0.0,0.0,0.0,0.0,0.0,0.0,0.0,0.0,0.0,0.0,0.0,0.0,0.0,0.0,0.0,0.0,0.0,0.0,0.0,0.0,0.0,0.0,0.0,0.0,0.0,0.0,0.0,0.0,0.0,0.0,0.0,0.0,0.0,0.0,0.0,0.0,0.0,0.0,0.0,0.0,0.0,0.0,0.0,0.0,0.0,0.0,0.0,0.0,0.0,0.0,0.0,0.0,0.0,0.0,0.0,0.0,0.0,0.0,0.0,0.0,0.0,0.0,0.0,0.0,0.0,0.0,0.0,0.0,0.0,0.0,0.0,0.0,0.0,0.0,0.0,0.0,0.0,0.0,0.0,0.0,0.0,0.0,0.0,0.0,0.0,0.0,0.0,0.0,0.0,0.0,0.0,0.0,0.0,0.0,0.0,0.0,0.0,0.0,0.0,0.0,0.0,0.0,0.0,0.0,0.0,0.0,0.0,0.0,0.0,0.0,0.0,0.0,0.0,0.0,0.0,0.0,0.0,0.0,0.0,0.0,0.0,0.0,0.0,0.0,0.0,0.0,0.0,0.0,0.0,0.0,0.0,0.0,0.0,0.0,0.0,0.0,0.0,0.0,0.0,0.0,0.0,0.0,0.0,0.0,0.0,0.0,0.0,0.0,0.0,0.0,0.0,0.0,0.0,0.0,0.0,0.0,0.0,0.0,0.0,0.0,0.0,0.0,0.0,0.0,0.0,0.0,0.0,0.0,0.0,0.0,0.0,0.0,0.0,0.0,0.0,0.0,0.0,0.0,0.0,0.0,0.0,0.0,0.0,0.0,0.0,0.0,0.0,0.0,0.0,0.0,0.0,0.0,0.0,0.0,0.0,0.0,0.0,0.0,0.0,0.0,0.0,0.0,0.0,0.0,0.0,0.0,0.0,0.0,0.0,0.0,0.0,0.0,0.0,0.0,0.0,0.0,0.0,0.0,0.0,0.0,0.0,0.0,0.0,0.0,0.0,0.0,0.0,0.0,0.0,0.0,0.0,0.0,0.0,0.0,0.0,0.0,0.0,0.0,0.0,0.0,0.0,0.0,0.0,0.0,0.0,0.0,0.0,0.0,0.0,0.0,0.0,0.0,0.0,0.0,0.0,0.0,0.0,0.0,0.0,0.0,0.0,0.0,0.0,0.0,0.0,0.0,0.0,0.0,0.0,0.0,0.0,0.0,0.0,0.0,0.0,0.0,0.0,0.0,0.0,0.0,0.0,0.0,0.0,0.0,0.0,0.0,0.0,0.0,0.0,0.0,0.0,0.0,0.0,0.0,0.0,0.0,0.0,0.0,0.0,0.0,0.0,0.0,0.0,0.0,0.0,0.0,0.0,0.0,0.0,0.0,0.0,0.0,0.0,0.0,0.0,0.0,0.0,0.0,0.0,0.0,0.0,0.0,0.0,0.0,0.0,0.0,0.0,0.0,0.0,0.0,0.0,0.0,0.0,0.0,0.0,0.0,0.0,0.0,0.0,0.0,0.0,0.0,0.0,0.0,0.0,0.0,0.0,0.0,0.0,0.0,0.0,0.0,0.0,0.0,0.0,0.0,0.0,0.0,0.0,0.0,0.0,0.0,0.0,0.0,0.0,0.0,0.0,0.0,0.0,0.0,0.0,0.0,0.0,0.0,0.0,0.0,0.0,0.0,0.0,0.0,0.0,0.0,0.0,0.0,0.0,0.0,0.0,0.0,0.0,0.0,0.0,0.0,0.0,0.0,0.0,0.0,0.0,0.0,-1.8379,0.0,0.0,0.0,-1.6988,0.0,0.0,0.0,0.0,0.0,0.0,0.0,0.0,0.0,0.0,0.0,0.0,0.0,0.0,0.0,0.0,0.0,0.0,0.0,0.0,0.0,0.0,0.0,0.0,0.0,0.0,0.0,0.0,0.0,0.0,0.0,0.0,0.0,0.0,0.0,0.0,0.0,0.0,0.0,0.0,0.0,0.0,0.0,0.0,0.0,0.0,0.0,0.0,0.0,0.0,0.0,0.0,0.0,0.0,0.0,0.0,0.0,0.0,0.0,0.0,0.0,0.0,0.0,0.0,0.0,0.0,0.0,0.0,0.0,0.0,0.0,0.0,0.0,0.0,0.0,0.0,0.0,0.0,0.0,0.0,0.0,0.0,0.0,0.0,0.0,0.0,0.0,0.0,0.0,0.0,0.0,0.0,0.0,0.0,0.0,0.0,0.0,0.0,0.0,0.0,0.0,0.0,0.0,0.0,0.0,0.0,0.0,0.0,0.0,0.0,-1.8285,-1.6833,-1.8753,-1.8835,-1.6736,0.0,0.0,0.0,0.0,0.0,0.0,0.0,0.0,0.0,0.0,0.0,0.0,0.0,0.0,0.0,0.0,0.0,0.0,0.0,0.0,0.0,0.0,0.0,0.0,0.0,0.0,0.0,0.0,0.0,0.0,0.0,0.0,0.0,0.0,0.0,0.0,0.0,0.0,0.0,0.0,0.0,0.0,0.0,0.0,0.0,0.0,0.0,0.0,0.0,0.0,0.0,0.0,0.0,0.0,0.0,0.0,0.0,0.0,0.0,0.0,0.0,0.0,0.0,0.0,0.0,0.0,0.0,0.0,0.0,0.0,0.0,0.0,0.0,0.0,0.0,0.0,0.0,0.0,0.0,0.0,0.0,0.0,0.0,0.0,0.0,0.0,0.0,0.0,0.0,0.0,0.0,0.0,0.0,0.0,0.0,0.0,0.0,0.0,0.0,0.0,0.0,0.0,0.0,0.0,0.0,0.0,0.0,0.0,0.0,0.0,0.0,0.0,-1.9137,-1.9342,-1.7406,0.0,0.0,0.0,0.0,0.0,0.0,0.0,0.0,0.0,0.0,0.0,0.0,0.0,0.0,0.0,0.0,0.0,0.0,0.0,0.0,0.0,0.0,0.0,0.0,0.0,0.0,0.0,0.0,0.0,0.0,0.0,0.0,0.0,0.0,0.0,0.0,0.0,0.0,0.0,0.0,0.0,0.0,0.0,0.0,0.0,0.0,0.0,0.0,0.0,0.0,0.0,0.0,0.0,0.0,0.0,0.0,0.0,0.0,0.0,0.0,0.0,0.0,0.0,0.0,0.0,0.0,0.0,0.0,0.0,0.0,0.0,0.0,0.0,0.0,0.0,0.0,0.0,0.0,0.0,0.0,0.0,0.0,0.0,0.0,0.0,0.0,0.0,0.0,0.0,0.0,0.0,0.0,0.0,0.0,0.0,0.0,0.0,0.0,0.0,0.0,0.0,0.0,0.0,0.0,0.0,0.0,0.0,0.0,0.0,0.0,-1.6559,-1.8281,-1.8593,0.0,-1.9202,0.0,0.0,0.0,0.0,0.0,0.0,0.0,0.0,0.0,0.0,0.0,0.0,0.0,0.0,0.0,0.0,0.0,0.0,0.0,0.0,0.0,0.0,0.0,0.0,0.0,0.0,0.0,0.0,0.0,0.0,0.0,0.0,0.0,0.0,0.0,0.0,0.0,0.0,0.0,0.0,0.0,0.0,0.0,0.0,0.0,0.0,0.0,0.0,0.0,0.0,0.0,0.0,0.0,0.0,0.0,0.0,0.0,0.0,0.0,0.0,0.0,0.0,0.0,0.0,0.0,0.0,0.0,0.0,0.0,0.0,0.0,0.0,0.0,0.0,0.0,0.0,0.0,0.0,0.0,0.0,0.0,0.0,0.0,0.0,0.0,0.0,0.0,0.0,0.0,0.0,0.0,0.0,0.0,0.0,0.0,0.0,0.0,0.0,0.0,0.0,0.0,0.0,0.0,0.0,0.0,0.0,0.0,0.0,0.0,0.0,-1.7395,-1.9061,-1.9092,-1.9185,0.0,0.0,0.0,0.0,0.0,0.0,0.0,0.0,0.0,0.0,0.0,0.0,0.0,0.0,0.0,0.0,0.0,0.0,0.0,0.0,0.0,0.0,0.0,0.0,0.0,0.0,0.0,0.0,0.0,0.0,0.0,0.0,0.0,0.0,0.0,0.0,0.0,0.0,0.0,0.0,0.0,0.0,0.0,0.0,0.0,0.0,0.0,0.0,0.0,0.0,0.0,0.0,0.0,0.0,0.0,0.0,0.0,0.0,0.0,0.0,0.0,0.0,0.0,0.0,0.0,0.0,0.0,0.0,0.0,0.0,0.0,0.0,0.0,0.0,0.0,0.0,0.0,0.0,0.0,0.0,0.0,0.0,0.0,0.0,0.0,0.0,0.0,0.0,0.0,0.0,0.0,0.0,0.0,0.0,0.0,0.0,0.0,0.0,0.0,0.0,0.0,0.0,0.0,0.0,0.0,0.0,0.0,0.0,0.0,0.0,-1.6794,-1.8098,-1.9602,-1.9525,-1.9229,-1.881,0.0,0.0,0.0,0.0,0.0,0.0,0.0,0.0,0.0,0.0,0.0,0.0,0.0,0.0,0.0,0.0,0.0,0.0,0.0,0.0,0.0,0.0,0.0,0.0,0.0,0.0,0.0,0.0,0.0,0.0,0.0,0.0,0.0,0.0,0.0,0.0,0.0,0.0,0.0,0.0,0.0,0.0,0.0,0.0,0.0,0.0,0.0,0.0,0.0,0.0,0.0,0.0,0.0,0.0,0.0,0.0,0.0,0.0,0.0,0.0,0.0,0.0,0.0,0.0,0.0,0.0,0.0,0.0,0.0,0.0,0.0,0.0,0.0,0.0,0.0,0.0,0.0,0.0,0.0,0.0,0.0,0.0,0.0,0.0,0.0,0.0,0.0,0.0,0.0,0.0,0.0,0.0,0.0,0.0,0.0,0.0,0.0,0.0,0.0,0.0,0.0,0.0,0.0,0.0,0.0,0.0,0.0,0.0,-1.8732,-1.7807,-1.8176,-2.0196,-1.9576,-1.8622,0.0,0.0,0.0,0.0,0.0,0.0,0.0,0.0,0.0,0.0,0.0,0.0,0.0,0.0,0.0,0.0,0.0,0.0,0.0,0.0,0.0,0.0,0.0,0.0,0.0,0.0,0.0,0.0,0.0,0.0,0.0,0.0,0.0,0.0,0.0,0.0,0.0,0.0,0.0,0.0,0.0,0.0,0.0,0.0,0.0,0.0,0.0,0.0,0.0,0.0,0.0,0.0,0.0,0.0,0.0,0.0,0.0,0.0,0.0,0.0,0.0,0.0,0.0,0.0,0.0,0.0,0.0,0.0,0.0,0.0,0.0,0.0,0.0,0.0,0.0,0.0,0.0,0.0,0.0,0.0,0.0,0.0,0.0,0.0,0.0,0.0,0.0,0.0,0.0,0.0,0.0,0.0,0.0,0.0,0.0,0.0,0.0,0.0,0.0,0.0,0.0,0.0,0.0,0.0,0.0,0.0,0.0,0.0,0.0,-1.5259,-1.6506,-1.8543,-2.128,-1.914,-1.8252,0.0,0.0,0.0,0.0,0.0,0.0,0.0,0.0,0.0,0.0,0.0,0.0,0.0,0.0,0.0,0.0,0.0,0.0,0.0,0.0,0.0,0.0,0.0,0.0,0.0,0.0,0.0,0.0,0.0,0.0,0.0,0.0,0.0,0.0,0.0,0.0,0.0,0.0,0.0,0.0,0.0,0.0,0.0,0.0,0.0,0.0,0.0,0.0,0.0,0.0,0.0,0.0,0.0,0.0,0.0,0.0,0.0,0.0,0.0,0.0,0.0,0.0,0.0,0.0,0.0,0.0,0.0,0.0,0.0,0.0,0.0,0.0,0.0,0.0,0.0,0.0,0.0,0.0,0.0,0.0,0.0,0.0,0.0,0.0,0.0,0.0,0.0,0.0,0.0,0.0,0.0,0.0,0.0,0.0,0.0,0.0,0.0,0.0,0.0,0.0,0.0,0.0,0.0,0.0,0.0,0.0,0.0,0.0,0.0,-1.5386,-1.7928,-2.003,-2.1351,-1.9042,-1.7852,0.0,0.0,0.0,0.0,0.0,0.0,0.0,0.0,0.0,0.0,0.0,0.0,0.0,0.0,0.0,0.0,0.0,0.0,0.0,0.0,0.0,0.0,0.0,0.0,0.0,0.0,0.0,0.0,0.0,0.0,0.0,0.0,0.0,0.0,0.0,0.0,0.0,0.0,0.0,0.0,0.0,0.0,0.0,0.0,0.0,0.0,0.0,0.0,0.0,0.0,0.0,0.0,0.0,0.0,0.0,0.0,0.0,0.0,0.0,0.0,0.0,0.0,0.0,0.0,0.0,0.0,0.0,0.0,0.0,0.0,0.0,0.0,0.0,0.0,0.0,0.0,0.0,0.0,0.0,0.0,0.0,0.0,0.0,0.0,0.0,0.0,0.0,0.0,0.0,0.0,0.0,0.0,0.0,0.0,0.0,0.0,0.0,0.0,0.0,0.0,0.0,0.0,0.0,0.0,0.0,0.0,0.0,0.0,-1.4773,-1.9848,-2.2323,-2.2455,-2.0338,-1.9322,-1.7394,0.0,0.0,0.0,0.0,0.0,0.0,0.0,0.0,0.0,0.0,0.0,0.0,0.0,0.0,0.0,0.0,0.0,0.0,0.0,0.0,0.0,0.0,0.0,0.0,0.0,0.0,0.0,0.0,0.0,0.0,0.0,0.0,0.0,0.0,0.0,0.0,0.0,0.0,0.0,0.0,0.0,0.0,0.0,0.0,0.0,0.0,0.0,0.0,0.0,0.0,0.0,0.0,0.0,0.0,0.0,0.0,0.0,0.0,0.0,0.0,0.0,0.0,0.0,0.0,0.0,0.0,0.0,0.0,0.0,0.0,0.0,0.0,0.0,0.0,0.0,0.0,0.0,0.0,0.0,0.0,0.0,0.0,0.0,0.0,0.0,0.0,0.0,0.0,0.0,0.0,0.0,0.0,0.0,0.0,0.0,0.0,0.0,0.0,0.0,0.0,0.0,0.0,0.0,0.0,0.0,0.0,0.0,0.0,0.0,-1.6635,-2.0437,-2.237,-2.199,-1.9454,-1.8293,0.0,0.0,0.0,0.0,0.0,0.0,0.0,0.0,0.0,0.0,0.0,0.0,0.0,0.0,0.0,0.0,0.0,0.0,0.0,0.0,0.0,0.0,0.0,0.0,0.0,0.0,0.0,0.0,0.0,0.0,0.0,0.0,0.0,0.0,0.0,0.0,0.0,0.0,0.0,0.0,0.0,0.0,0.0,0.0,0.0,0.0,0.0,0.0,0.0,0.0,0.0,0.0,0.0,0.0,0.0,0.0,0.0,0.0,0.0,0.0,0.0,0.0,0.0,0.0,0.0,0.0,0.0,0.0,0.0,0.0,0.0,0.0,0.0,0.0,0.0,0.0,0.0,0.0,0.0,0.0,0.0,0.0,0.0,0.0,0.0,0.0,0.0,0.0,0.0,0.0,0.0,0.0,0.0,0.0,0.0,0.0,0.0,0.0,0.0,0.0,0.0,0.0,0.0,0.0,0.0,0.0,0.0,0.0,0.0,-1.8821,-2.2631,-2.4378,-2.3622,-2.0974,-1.9591,-1.9635,0.0,0.0,0.0,0.0,0.0,0.0,0.0,0.0,0.0,0.0,0.0,0.0,0.0,0.0,0.0,0.0,0.0,0.0,0.0,0.0,0.0,0.0,0.0,0.0,0.0,0.0,0.0,0.0,0.0,0.0,0.0,0.0,0.0,0.0,0.0,0.0,0.0,0.0,0.0,0.0,0.0,0.0,0.0,0.0,0.0,0.0,0.0,0.0,0.0,0.0,0.0,0.0,0.0,0.0,0.0,0.0,0.0,0.0,0.0,0.0,0.0,0.0,0.0,0.0,0.0,0.0,0.0,0.0,0.0,0.0,0.0,0.0,0.0,0.0,0.0,0.0,0.0,0.0,0.0,0.0,0.0,0.0,0.0,0.0,0.0,0.0,0.0,0.0,0.0,0.0,0.0,0.0,0.0,0.0,0.0,0.0,0.0,0.0,0.0,0.0,0.0,0.0,0.0,0.0,0.0,0.0,0.0,0.0,-2.4897,-2.8049,-2.8175,-2.5123,-2.3621,-2.1355,0.0,0.0,0.0,0.0,0.0,0.0,0.0,0.0,0.0,0.0,0.0,0.0,0.0,0.0,0.0,0.0,0.0,0.0,0.0,0.0,0.0,0.0,0.0,0.0,0.0,0.0,0.0,0.0,0.0,0.0,0.0,0.0,0.0,0.0,0.0,0.0,0.0,0.0,0.0,0.0,0.0,0.0,0.0,0.0,0.0,0.0,0.0,0.0,0.0,0.0,0.0,0.0,0.0,0.0,0.0,0.0,0.0,0.0,0.0,0.0,0.0,0.0,0.0,0.0,0.0,0.0,0.0,0.0,0.0,0.0,0.0,0.0,0.0,0.0,0.0,0.0,0.0,0.0,0.0,0.0,0.0,0.0,0.0,0.0,0.0,0.0,0.0,0.0,0.0,0.0,0.0,0.0,0.0,0.0,0.0,0.0,0.0,0.0,0.0,0.0,0.0,0.0,0.0,0.0,0.0,0.0,0.0,0.0,0.0,-2.7525,-2.9834,-2.9924,-2.767,-2.5818,-2.3969,0.0,0.0,0.0,0.0,0.0,0.0,0.0,0.0,0.0,0.0,0.0,0.0,0.0,0.0,0.0,0.0,0.0,0.0,0.0,0.0,0.0,0.0,0.0,0.0,0.0,0.0,0.0,0.0,0.0,0.0,0.0,0.0,0.0,0.0,0.0,0.0,0.0,0.0,0.0,0.0,0.0,0.0,0.0,0.0,0.0,0.0,0.0,0.0,0.0,0.0,0.0,0.0,0.0,0.0,0.0,0.0,0.0,0.0,0.0,0.0,0.0,0.0,0.0,0.0,0.0,0.0,0.0,0.0,0.0,0.0,0.0,0.0,0.0,0.0,0.0,0.0,0.0,0.0,0.0,0.0,0.0,0.0,0.0,0.0,0.0,0.0,0.0,0.0,0.0,0.0,0.0,0.0,0.0,0.0,0.0,0.0,0.0,0.0,0.0,0.0,0.0,0.0,0.0,0.0,0.0,0.0,0.0,0.0,-2.6624,-3.0178,-3.1615,-3.178,-3.0687,-2.8203,-2.5839,0.0,0.0,0.0,0.0,0.0,0.0,0.0,0.0,0.0,0.0,0.0,0.0,0.0,0.0,0.0,0.0,0.0,0.0,0.0,0.0,0.0,0.0,0.0,0.0,0.0,0.0,0.0,0.0,0.0,0.0,0.0,0.0,0.0,0.0,0.0,0.0,0.0,0.0,0.0,0.0,0.0,0.0,0.0,0.0,0.0,0.0,0.0,0.0,0.0,0.0,0.0,0.0,0.0,0.0,0.0,0.0,0.0,0.0,0.0,0.0,0.0,0.0,0.0,0.0,0.0,0.0,0.0,0.0,0.0,0.0,0.0,0.0,0.0,0.0,0.0,0.0,0.0,0.0,0.0,0.0,0.0,0.0,0.0,0.0,0.0,0.0,0.0,0.0,0.0,0.0,0.0,0.0,0.0,0.0,0.0,0.0,0.0,0.0,0.0,0.0,0.0,0.0,0.0,0.0,0.0,0.0,0.0,0.0,-2.9277,-3.2392,-3.3155,-3.3499,-3.341,-3.0387,-2.7245,0.0,0.0,0.0,0.0,0.0,0.0,0.0,0.0,0.0,0.0,0.0,0.0,0.0,0.0,0.0,0.0,0.0,0.0,0.0,0.0,0.0,0.0,0.0,0.0,0.0,0.0,0.0,0.0,0.0,0.0,0.0,0.0,0.0,0.0,0.0,0.0,0.0,0.0,0.0,0.0,0.0,0.0,0.0,0.0,0.0,0.0,0.0,0.0,0.0,0.0,0.0,0.0,0.0,0.0,0.0,0.0,0.0,0.0,0.0,0.0,0.0,0.0,0.0,0.0,0.0,0.0,0.0,0.0,0.0,0.0,0.0,0.0,0.0,0.0,0.0,0.0,0.0,0.0,0.0,0.0,0.0,0.0,0.0,0.0,0.0,0.0,0.0,0.0,0.0,0.0,0.0,0.0,0.0,0.0,0.0,0.0,0.0,0.0,0.0,0.0,0.0,0.0,0.0,0.0,0.0,0.0,0.0,0.0,-2.9768,-3.2422,-3.3155,-3.3499,-3.3484,-3.0821,-2.8573,0.0,0.0,0.0,0.0,0.0,0.0,0.0,0.0,0.0,0.0,0.0,0.0,0.0,0.0,0.0,0.0,0.0,0.0,0.0,0.0,0.0,0.0,0.0,0.0,0.0,0.0,0.0,0.0,0.0,0.0,0.0,0.0,0.0,0.0,0.0,0.0,0.0,0.0,0.0,0.0,0.0,0.0,0.0,0.0,0.0,0.0,0.0,0.0,-1.433,0.0,0.0,0.0,0.0,0.0,0.0,0.0,0.0,0.0,0.0,0.0,0.0,0.0,0.0,0.0,0.0,0.0,0.0,0.0,0.0,0.0,0.0,0.0,0.0,0.0,0.0,0.0,0.0,0.0,0.0,0.0,0.0,0.0,0.0,0.0,0.0,0.0,0.0,0.0,0.0,0.0,0.0,0.0,0.0,0.0,0.0,0.0,0.0,0.0,0.0,0.0,0.0,0.0,0.0,0.0,0.0,0.0,0.0,0.0,-3.1119,-3.3365,-3.4098,-3.4442,-3.4367,-3.2467,-3.0208,0.0,0.0,0.0,0.0,0.0,0.0,0.0,0.0,0.0,0.0,0.0,0.0,0.0,0.0,0.0,0.0,0.0,0.0,0.0,0.0,0.0,0.0,0.0,0.0,0.0,0.0,0.0,0.0,0.0,0.0,0.0,0.0,0.0,0.0,0.0,0.0,0.0,0.0,0.0,0.0,0.0,0.0,0.0,0.0,0.0,0.0,0.0,0.0,0.0,0.0,0.0,0.0,0.0,0.0,0.0,0.0,0.0,0.0,0.0,0.0,0.0,0.0,0.0,0.0,0.0,0.0,0.0,0.0,0.0,0.0,0.0,0.0,0.0,0.0,0.0,0.0,0.0,0.0,0.0,0.0,0.0,0.0,0.0,0.0,0.0,0.0,0.0,0.0,0.0,0.0,0.0,0.0,0.0,0.0,0.0,0.0,0.0,0.0,0.0,0.0,0.0,0.0,0.0,0.0,0.0,0.0,0.0,-2.9029,-3.2377,-3.4429,-3.5145,-3.5489,-3.5489,-3.4397,-3.1943,-2.8064,0.0,0.0,0.0,0.0,0.0,0.0,0.0,0.0,0.0,0.0,0.0,0.0,0.0,0.0,0.0,0.0,0.0,0.0,0.0,0.0,0.0,0.0,0.0,0.0,0.0,0.0,0.0,0.0,0.0,0.0,0.0,0.0,0.0,0.0,0.0,0.0,0.0,0.0,-1.43,-1.6263,0.0,0.0,0.0,0.0,0.0,0.0,0.0,0.0,-1.5942,0.0,0.0,0.0,0.0,0.0,0.0,0.0,0.0,0.0,0.0,0.0,0.0,0.0,0.0,0.0,0.0,0.0,0.0,0.0,0.0,0.0,0.0,0.0,0.0,0.0,0.0,0.0,0.0,0.0,0.0,0.0,0.0,0.0,0.0,0.0,0.0,0.0,0.0,0.0,0.0,0.0,0.0,0.0,0.0,0.0,0.0,0.0,0.0,0.0,0.0,0.0,0.0,0.0,0.0,0.0,0.0,-2.8502,-2.9968,-3.1913,-3.4444,-3.5145,-3.5489,-3.5489,-3.5295,-3.3305,-2.9442,0.0,0.0,0.0,0.0,0.0,0.0,0.0,0.0,0.0,0.0,0.0,0.0,0.0,0.0,0.0,0.0,0.0,0.0,0.0,0.0,0.0,0.0,0.0,0.0,0.0,0.0,0.0,0.0,0.0,0.0,0.0,0.0,0.0,0.0,0.0,0.0,0.0,0.0,0.0,-1.9813,-2.0735,0.0,0.0,0.0,0.0,0.0,0.0,0.0,0.0,-1.6068,0.0,0.0,0.0,0.0,0.0,0.0,0.0,0.0,0.0,0.0,0.0,0.0,0.0,0.0,0.0,0.0,0.0,0.0,0.0,0.0,0.0,0.0,0.0,0.0,0.0,0.0,0.0,0.0,0.0,0.0,0.0,0.0,0.0,0.0,0.0,0.0,0.0,0.0,0.0,0.0,0.0,0.0,0.0,0.0,0.0,0.0,0.0,0.0,0.0,0.0,0.0,0.0,0.0,0.0,0.0,-2.7949,-3.136,-3.3709,-3.4966,-3.5325,-3.5489,-3.5489,-3.5489,-3.3484,0.0,0.0,0.0,0.0,0.0,0.0,0.0,0.0,0.0,0.0,0.0,0.0,0.0,0.0,0.0,0.0,0.0,0.0,0.0,0.0,0.0,0.0,0.0,0.0,0.0,0.0,0.0,0.0,0.0,0.0,0.0,0.0,0.0,0.0,0.0,0.0,0.0,0.0,0.0,0.0,-2.0857,-2.1738,-2.2659,0.0,0.0,0.0,0.0,0.0,0.0,-1.814,-1.6992,0.0,0.0,0.0,0.0,0.0,0.0,0.0,0.0,0.0,0.0,0.0,0.0,0.0,0.0,0.0,0.0,0.0,0.0,0.0,0.0,0.0,0.0,0.0,0.0,0.0,0.0,0.0,0.0,0.0,0.0,0.0,0.0,0.0,0.0,0.0,0.0,0.0,0.0,0.0,0.0,0.0,0.0,0.0,0.0,0.0,0.0,0.0,0.0,0.0,0.0,0.0,0.0,0.0,0.0,0.0,-2.6886,-3.2138,-3.5175,-3.5669,-3.5833,-3.5833,-3.5699,-3.5714,-3.3529,0.0,0.0,0.0,0.0,0.0,0.0,0.0,0.0,0.0,0.0,0.0,0.0,0.0,0.0,0.0,0.0,0.0,0.0,0.0,0.0,0.0,0.0,0.0,0.0,0.0,0.0,0.0,0.0,0.0,0.0,0.0,0.0,0.0,0.0,0.0,0.0,0.0,0.0,0.0,0.0,0.0,-2.2415,-2.3716,-2.2171,0.0,0.0,0.0,0.0,-2.1562,-2.0501,0.0,0.0,0.0,0.0,0.0,0.0,0.0,0.0,0.0,0.0,0.0,0.0,0.0,0.0,0.0,0.0,0.0,0.0,0.0,0.0,0.0,0.0,0.0,0.0,0.0,0.0,0.0,0.0,0.0,0.0,0.0,0.0,0.0,0.0,0.0,0.0,0.0,0.0,0.0,0.0,0.0,0.0,0.0,0.0,0.0,0.0,0.0,0.0,0.0,0.0,0.0,0.0,0.0,0.0,0.0,0.0,-2.7435,-3.1016,-3.3993,-3.6267,-3.6911,-3.6941,-3.6402,-3.6372,-3.4203,0.0,0.0,0.0,0.0,0.0,0.0,0.0,0.0,0.0,0.0,0.0,0.0,0.0,0.0,0.0,0.0,0.0,0.0,0.0,0.0,0.0,0.0,0.0,0.0,0.0,0.0,0.0,0.0,0.0,0.0,0.0,0.0,0.0,0.0,0.0,0.0,0.0,0.0,0.0,0.0,0.0,-2.3662,-2.3364,-2.2605,-2.2658,0.0,0.0,-2.3486,-2.5722,-2.5453,0.0,0.0,0.0,0.0,0.0,0.0,0.0,0.0,0.0,0.0,0.0,0.0,0.0,0.0,0.0,0.0,0.0,0.0,0.0,0.0,0.0,0.0,0.0,0.0,0.0,0.0,0.0,0.0,0.0,0.0,0.0,0.0,0.0,0.0,0.0,0.0,0.0,0.0,0.0,0.0,0.0,0.0,0.0,0.0,0.0,0.0,0.0,0.0,0.0,0.0,0.0,0.0,0.0,0.0,0.0,-2.5405,-2.8203,-3.2871,-3.5848,-3.6971,-3.727,-3.7285,-3.7015,-3.7015,-3.4487,0.0,0.0,0.0,0.0,0.0,0.0,0.0,0.0,0.0,0.0,0.0,0.0,0.0,0.0,0.0,0.0,0.0,0.0,0.0,0.0,0.0,0.0,0.0,0.0,0.0,0.0,0.0,0.0,0.0,0.0,0.0,0.0,0.0,0.0,0.0,0.0,0.0,0.0,0.0,0.0,0.0,0.0,-2.6077,-2.4883,0.0,0.0,0.0,-2.5222,-2.6576,0.0,0.0,0.0,0.0,0.0,0.0,0.0,0.0,0.0,0.0,0.0,0.0,0.0,0.0,0.0,0.0,0.0,0.0,0.0,0.0,0.0,0.0,0.0,0.0,0.0,0.0,0.0,0.0,0.0,0.0,0.0,0.0,0.0,0.0,0.0,0.0,0.0,0.0,0.0,0.0,0.0,0.0,0.0,0.0,0.0,0.0,0.0,0.0,0.0,0.0,0.0,0.0,0.0,0.0,0.0,0.0,0.0,-2.8667,-3.4577,-3.7659,-3.7674,-3.7808,-3.7823,-3.7659,-3.7659,0.0,0.0,0.0,0.0,0.0,0.0,0.0,0.0,0.0,0.0,0.0,0.0,0.0,0.0,0.0,0.0,0.0,0.0,0.0,0.0,0.0,0.0,0.0,0.0,0.0,0.0,0.0,-1.2257,0.0,0.0,0.0,0.0,0.0,0.0,0.0,0.0,0.0,0.0,0.0,0.0,0.0,0.0,-2.5237,-2.8356,-2.7268,-2.6972,0.0,0.0,-2.7556,-2.8432,-2.8582,-2.7796,0.0,0.0,0.0,0.0,0.0,0.0,0.0,0.0,0.0,0.0,0.0,0.0,0.0,0.0,0.0,0.0,0.0,0.0,0.0,0.0,0.0,0.0,0.0,0.0,0.0,0.0,0.0,0.0,0.0,0.0,0.0,0.0,0.0,0.0,0.0,0.0,0.0,0.0,0.0,0.0,0.0,0.0,0.0,0.0,0.0,0.0,0.0,0.0,0.0,0.0,0.0,0.0,0.0,0.0,-2.6647,-2.8742,-3.5026,-3.8317,-3.8347,-3.8945,-3.8975,-3.8347,-3.8317,-3.5564,0.0,0.0,0.0,0.0,0.0,0.0,0.0,0.0,0.0,0.0,0.0,0.0,0.0,0.0,0.0,0.0,0.0,0.0,0.0,0.0,0.0,0.0,0.0,0.0,0.0,0.0,0.0,0.0,0.0,0.0,0.0,0.0,0.0,0.0,0.0,0.0,0.0,0.0,0.0,0.0,0.0,-2.5365,-2.8847,-2.927,-3.0059,0.0,0.0,-3.1517,-3.3149,-3.3393,-3.1712,-2.666,0.0,0.0,0.0,0.0,0.0,0.0,0.0,0.0,0.0,0.0,0.0,0.0,0.0,0.0,0.0,0.0,0.0,0.0,0.0,0.0,0.0,0.0,0.0,0.0,0.0,0.0,0.0,0.0,0.0,0.0,0.0,0.0,0.0,0.0,0.0,0.0,0.0,0.0,0.0,0.0,0.0,0.0,0.0,0.0,0.0,0.0,0.0,0.0,0.0,0.0,0.0,0.0,0.0,-2.72,-2.925,-3.5684,-3.902,-3.9035,-3.929,-3.9305,-3.9035,-3.9035,-3.7,0.0,0.0,0.0,0.0,0.0,0.0,0.0,0.0,0.0,0.0,0.0,0.0,0.0,0.0,0.0,0.0,0.0,0.0,0.0,0.0,0.0,0.0,0.0,0.0,0.0,0.0,0.0,0.0,-1.9519,-1.9304,-1.7717,0.0,0.0,0.0,0.0,0.0,0.0,0.0,0.0,0.0,0.0,-2.8976,-3.1816,-3.1309,0.0,0.0,-3.2603,-3.2331,-3.3691,-3.3,-3.1355,-2.8578,-2.7108,0.0,0.0,0.0,0.0,0.0,0.0,0.0,0.0,0.0,0.0,0.0,0.0,0.0,0.0,0.0,0.0,0.0,0.0,0.0,0.0,0.0,0.0,0.0,0.0,0.0,0.0,0.0,0.0,0.0,0.0,0.0,0.0,0.0,0.0,0.0,0.0,0.0,0.0,0.0,0.0,0.0,0.0,0.0,0.0,0.0,0.0,0.0,0.0,0.0,0.0,0.0,0.0,-2.7884,-2.9864,-3.6163,-3.9388,-3.9388,-3.9388,-3.9388,-3.9388,-3.9388,-3.7868,0.0,0.0,0.0,0.0,0.0,0.0,0.0,0.0,0.0,0.0,0.0,0.0,0.0,0.0,0.0,0.0,0.0,0.0,0.0,0.0,0.0,0.0,0.0,0.0,0.0,0.0,0.0,0.0,-2.1265,-2.0452,-1.7785,0.0,0.0,0.0,0.0,0.0,0.0,0.0,0.0,0.0,0.0,-3.1824,-3.4373,-3.3392,-3.2809,-3.4014,-3.3064,-3.2467,-3.3257,-3.2521,-3.1322,-2.976,0.0,0.0,0.0,0.0,0.0,0.0,0.0,0.0,0.0,0.0,0.0,0.0,0.0,0.0,0.0,0.0,0.0,0.0,0.0,0.0,0.0,0.0,0.0,0.0,0.0,0.0,0.0,-1.5059,0.0,0.0,-1.5046,0.0,0.0,0.0,0.0,0.0,0.0,0.0,0.0,0.0,0.0,0.0,0.0,0.0,0.0,0.0,0.0,0.0,0.0,0.0,0.0,0.0,0.0,-2.8528,-3.0507,-3.6357,-3.9388,-3.9388,-3.9388,-3.9388,-3.9388,-3.9388,-3.7853,-3.4578,0.0,0.0,0.0,0.0,0.0,0.0,0.0,0.0,0.0,0.0,0.0,0.0,0.0,0.0,0.0,0.0,0.0,0.0,0.0,0.0,0.0,0.0,0.0,0.0,0.0,0.0,-1.71,-1.8026,-1.8089,0.0,0.0,0.0,0.0,0.0,0.0,0.0,0.0,0.0,0.0,-3.1691,-3.3236,-3.6125,-3.555,-3.4768,-3.485,-3.3387,-3.2259,-3.2368,-3.2707,-3.2259,0.0,0.0,0.0,0.0,0.0,0.0,0.0,0.0,0.0,0.0,0.0,0.0,0.0,0.0,0.0,0.0,0.0,0.0,0.0,0.0,0.0,0.0,0.0,0.0,0.0,0.0,0.0,-2.0053,-1.9133,0.0,0.0,0.0,0.0,0.0,0.0,0.0,0.0,0.0,0.0,0.0,-2.9894,-3.1001,0.0,0.0,0.0,0.0,0.0,0.0,0.0,0.0,0.0,0.0,0.0,0.0,-2.8558,-3.0672,-3.6387,-3.9388,-3.9388,-3.9388,-3.9388,-3.9388,-3.9388,-3.7659,-3.3948,0.0,0.0,0.0,0.0,0.0,0.0,0.0,0.0,0.0,0.0,0.0,0.0,0.0,0.0,0.0,0.0,0.0,0.0,0.0,0.0,0.0,0.0,0.0,0.0,0.0,-1.9418,0.0,0.0,0.0,0.0,0.0,0.0,0.0,0.0,0.0,0.0,0.0,-2.9304,-3.2624,-3.425,-3.5777,-3.7606,-3.6883,-3.6252,0.0,0.0,0.0,0.0,0.0,0.0,0.0,0.0,0.0,0.0,0.0,0.0,0.0,0.0,-2.9029,-2.4109,-2.2402,-2.19,-2.2536,0.0,0.0,0.0,0.0,0.0,0.0,0.0,0.0,0.0,0.0,0.0,0.0,0.0,0.0,-2.4418,-2.3445,-2.3296,0.0,0.0,0.0,0.0,0.0,0.0,0.0,0.0,-3.0672,-3.2572,-3.3649,-3.4951,-3.4876,0.0,-3.2527,-3.0088,0.0,0.0,0.0,0.0,0.0,0.0,0.0,0.0,-2.9606,-3.2273,-3.6971,-3.9388,-3.9388,-3.9388,-3.9388,-3.9388,-3.9388,-3.8212,-3.5639,-3.4038,-3.1988,0.0,0.0,0.0,0.0,0.0,0.0,0.0,0.0,0.0,0.0,0.0,0.0,0.0,0.0,0.0,0.0,0.0,0.0,0.0,0.0,0.0,0.0,0.0,-2.1216,0.0,0.0,0.0,0.0,0.0,0.0,0.0,0.0,0.0,-2.437,-2.8926,-3.3135,-3.5273,-3.6728,-3.7797,-3.842,0.0,0.0,0.0,0.0,0.0,0.0,0.0,-3.3241,-3.3237,-3.1937,-3.0514,-2.9434,-3.1395,-3.2738,-3.1517,0.0,0.0,-2.846,-2.6711,-2.6196,-2.6809,-2.702,-2.7134,-2.7385,-2.8336,-2.9073,0.0,0.0,0.0,0.0,0.0,0.0,0.0,0.0,-2.9208,-2.8671,0.0,-2.7775,0.0,0.0,0.0,0.0,0.0,-2.7066,0.0,0.0,-3.6626,-3.8676,-3.9254,-3.9269,-3.9343,-3.9343,-3.8586,-3.6656,-3.3499,-2.9217,0.0,0.0,0.0,0.0,0.0,0.0,-3.1644,-3.537,-3.8013,-3.9388,-3.9388,-3.9388,-3.9388,-3.9388,-3.9388,-3.9358,-3.9239,-3.6327,-3.4008,-3.2512,-2.6512,0.0,0.0,0.0,0.0,0.0,0.0,0.0,0.0,0.0,0.0,0.0,0.0,0.0,0.0,0.0,0.0,0.0,0.0,0.0,0.0,-2.2343,0.0,0.0,0.0,0.0,0.0,0.0,0.0,0.0,0.0,0.0,-2.9164,-3.2213,-3.5534,-3.8048,0.0,0.0,0.0,0.0,-3.7747,-3.7834,-3.6381,-3.5496,-3.6101,-3.659,-3.687,-3.6934,0.0,0.0,-3.3137,-3.477,-3.5585,-3.2255,-3.4061,-3.5764,-3.5641,-3.3156,-3.1544,-3.2019,-3.168,-3.1626,-3.2264,-3.3715,-3.5209,-3.2487,0.0,0.0,0.0,0.0,-2.9187,-3.0988,-3.391,-3.3728,-3.3036,-3.2027,-3.1867,0.0,0.0,0.0,0.0,0.0,0.0,-3.1749,-3.4921,-3.5908,-3.7419,-3.9373,-3.9388,-3.9388,-3.9373,-3.9215,-3.8646,-3.7689,-3.6402,-3.121,-2.2643,0.0,0.0,0.0,0.0,-3.3888,-3.5549,-3.8093,-3.9388,-3.9388,-3.9388,-3.9388,-3.9388,-3.9388,-3.9388,-3.9373,-3.8497,-3.6746,-3.4023,-3.1688,0.0,0.0,0.0,0.0,0.0,0.0,0.0,0.0,0.0,0.0,0.0,0.0,0.0,0.0,0.0,0.0,0.0,0.0,0.0,-1.945,-2.3116,-2.4343,0.0,0.0,0.0,0.0,0.0,0.0,0.0,0.0,0.0,-3.4218,-3.5983,-3.7719,0.0,0.0,-3.9556,-3.9817,-3.9725,-3.9824,-4.0267,-3.9913,0.0,-3.9268,-3.8274,-3.7805,-3.8605,-3.9016,-3.8774,-3.7636,-3.8093,-3.8347,-3.7257,-3.7414,-3.7716,-3.7578,-3.5949,-3.4609,-3.4651,-3.4556,-3.4638,-3.5235,-3.594,-3.6428,-3.7266,-3.4872,-3.2038,-3.1645,-3.285,-3.2792,-3.4575,-3.7501,-3.7267,-3.6797,-3.6125,-3.5914,-3.3784,-3.028,-2.9232,0.0,0.0,0.0,-3.4128,-3.7011,-3.706,-3.7898,-3.9379,-3.9694,-3.9813,-3.9798,-3.9813,-3.9948,-4.0202,-3.9933,-3.5893,-2.8468,0.0,0.0,-2.8697,-3.2751,-3.5729,-3.7434,-3.9245,-4.0187,-4.0202,-3.9933,-3.9777,-3.9813,-3.9559,-3.9388,-3.9388,-3.9388,-3.8497,-3.6507,-3.4801,-3.2572,0.0,0.0,0.0,0.0,0.0,0.0,0.0,0.0,0.0,0.0,0.0,-1.8104,-1.4827,0.0,0.0,0.0,-2.164,-2.3208,-2.4822,-2.7365,0.0,0.0,0.0,0.0,0.0,0.0,0.0,-3.2662,-3.5295,-3.724,-3.8287,-3.9095,-3.9738,-4.0142,-4.0233,-4.0395,-4.0748,0.0,-4.1077,-4.1728,-4.1811,-4.1748,-4.1607,-4.0689,-4.0153,-4.0521,-4.0602,-4.0392,-3.992,-3.9836,-3.975,-3.951,-3.9157,-3.8791,-3.8518,-3.7537,-3.6716,-3.6483,-3.6442,-3.6523,-3.6917,-3.6985,-3.7052,-4.0799,-4.0297,-3.5167,-3.424,-3.6167,-3.6181,-3.7637,-3.9895,-3.9753,-3.9661,-3.9661,-3.9481,-3.7749,-3.4848,-3.2437,0.0,-3.5968,-3.5983,-3.727,-3.9574,-3.9553,-3.9538,-3.9604,-4.0187,-4.0472,-4.0487,-4.0472,-4.0786,-4.1309,-4.0756,-3.926,-3.6911,-3.5672,-3.4938,-3.4713,-3.5534,-3.7464,-4.0427,-4.1055,-4.1422,-4.1407,-4.0801,-4.0472,-4.0472,-3.9888,-3.9589,-3.9553,-3.9529,-3.9499,-3.9394,-3.6537,-3.4307,-3.3036,0.0,0.0,0.0,0.0,0.0,0.0,0.0,0.0,0.0,0.0,0.0,0.0,0.0,0.0,-2.5764,-2.9537,0.0,-3.3979,-3.314,0.0,0.0,0.0,-2.8019,-2.8483,-3.1614,-3.4307,-3.5804,0.0,0.0,-4.1407,-4.1459,-4.1474,-4.1534,-4.1527,-4.1459,-4.1497,-4.1534,-4.1758,-4.241,-4.247,-4.2641,-4.3026,-4.3101,-4.2917,-4.2496,-4.2491,-4.2109,-4.1035,-4.0812,-4.0526,-4.0049,-3.9797,-3.9584,-3.8932,-3.8864,-3.8561,-3.7946,-3.7597,-3.7472,-3.754,-3.7553,-3.7551,-4.0712,-4.01,-3.875,-3.8413,-3.8801,-3.8801,-3.9073,-3.9517,-3.9496,-3.9496,-3.946,-3.9424,-3.9245,-3.8975,-3.8856,-3.923,-3.9978,-3.9993,-4.0307,-4.0891,-4.092,-4.092,-4.092,-4.107,-4.1145,-4.1145,-4.1145,-4.1272,-4.1369,-4.122,-4.0831,-4.0232,-3.9925,-3.8532,-3.6207,-3.8646,-4.0352,-4.113,-4.1294,-4.1422,-4.1369,-4.1235,-4.116,-4.116,-4.0995,-4.092,-4.0905,-4.0427,-4.0157,-4.0142,-3.8945,-3.8093,-3.7734,-3.13,0.0,0.0,0.0,0.0,0.0,0.0,0.0,0.0,0.0,-2.3879,-1.9091,0.0,-2.5412,0.0,-3.2512,-3.3514,-3.1044,-3.1824,0.0,0.0,-3.1106,-3.1614,-3.6073,-3.6118,-3.6866,-3.9664,-4.0681,-4.1437,-4.2096,-4.2171,-4.2351,-4.2776,-4.2432,-4.2171,-4.2171,-4.2566,-4.291,-4.3075,-4.312,-4.3125,-4.3349,-4.3723,-4.4026,-4.3875,-4.4236,-4.4121,-4.2831,-4.3053,-4.3156,-4.2524,-4.1961,-4.1622,-4.1377,-4.0992,-4.0603,-4.0294,-3.8906,-3.7634,-3.8055,-3.8206,-3.8298,-4.1767,-4.1235,-4.1199,-4.0948,-4.054,-3.9881,-3.9718,-3.9952,-3.9895,-4.0059,-4.0417,-4.0329,-4.0502,-4.0861,-4.1257,-4.1422,-4.1422,-4.1422,-4.1422,-4.1422,-4.1422,-4.1422,-4.1437,-4.1707,-4.1856,-4.1856,-4.2117,-4.2252,-4.2252,-4.2252,-4.2252,-4.2252,-4.2252,-4.1339,-3.9664,-4.107,-4.1534,-4.0965,-4.1818,-4.2252,-4.2237,-4.1968,-4.1399,-4.0561,-4.1108,-4.0965,-4.0098,-4.0546,-4.0277,-3.9125,-3.8721,-3.8392,-3.8063,-3.3979,-3.1809,0.0,0.0,0.0,0.0,0.0,0.0,0.0,0.0,0.0,0.0,0.0,-2.8996,-3.0028,-3.4173,-3.5534,-3.2497,-3.4517,-3.6178,-3.6537,-3.5848,-3.6671,-3.9948,-3.932,-3.9484,-4.1602,-4.1856,-4.2111,-4.2701,-4.2806,-4.2925,-4.326,-4.3284,-4.312,-4.291,-4.3359,-4.3723,-4.3738,-4.4018,-4.4347,-4.456,-4.4934,-4.5173,-4.5203,-4.5514,-4.5409,-4.4407,-4.4496,-4.4616,-4.4246,-4.3872,-4.3528,-4.3238,-4.2916,-4.2565,-4.2053,-4.107,-3.9977,-3.9397,-3.9488,-3.9719,-4.3027,-4.2633,-4.2504,-4.2169,-4.1588,-4.0231,-4.0102,-4.0775,-4.0591,-4.0958,-4.1641,-4.155,-4.1542,-4.1519,-4.1594,-4.1624,-4.1639,-4.1662,-4.1639,-4.1639,-4.1639,-4.1639,-4.1654,-4.2261,-4.253,-4.2545,-4.3075,-4.3305,-4.3305,-4.3305,-4.3305,-4.3305,-4.3305,-4.3215,-4.3035,-4.2686,-4.1961,-4.0816,-4.2348,-4.317,-4.317,-4.2656,-4.1572,-3.9948,-4.098,-4.0816,-3.9155,-4.0621,-4.0442,-3.8212,-3.7973,-3.7674,-3.7169,-3.6731,-3.5415,0.0,-3.2452,0.0,0.0,0.0,0.0,0.0,0.0,0.0,0.0,-3.3649,-3.3275,-3.0715,-3.5477,-3.7988,-3.6402,-3.8766,-4.0427,-4.0516,-4.1025,-4.1452,-4.1527,-4.1542,-4.1796,-4.2455,-4.253,-4.2701,-4.3185,-4.3349,-4.3409,-4.3514,-4.4032,-4.4197,-4.3738,-4.4077,-4.4436,-4.4436,-4.4915,-4.5349,-4.5935,-4.619,-4.6204,-4.6234,-4.6339,-4.6172,-4.5349,-4.5334,-4.5394,-4.5289,-4.5263,-4.5141,-4.4534,-4.4464,-4.4337,-4.3704,-4.3531,-4.2911,-4.1293,-4.1131,-4.1121,-4.2447,-4.1917,-4.1895,-4.1708,-4.143,-4.1153,-4.1123,-4.1265,-4.1227,-4.1302,-4.1505,-4.1976,-4.2216,-4.2261,-4.2731,-4.2916,-4.2931,-4.2916,-4.2916,-4.2931,-4.297,-4.2931,-4.2946,-4.305,-4.3095,-4.311,-4.3245,-4.3305,-4.3305,-4.3305,-4.3305,-4.3305,-4.3305,-4.2791,-4.1863,0.0,0.0,0.0,-4.2626,-4.259,-4.259,-4.247,-4.2216,-4.1871,-4.2566,0.0,-4.2378,-4.2252,-4.1991,-4.1482,-4.0943,0.0,0.0,0.0,0.0,0.0,0.0,0.0,0.0,0.0,0.0,0.0,-3.5382,-3.4515,-3.2781,-3.6537,-3.8003,-3.5564,-3.8138,-4.0098,-4.0247,-4.0322,-4.0606,-4.1145,-4.1309,-4.1617,-4.2126,-4.2216,-4.247,-4.306,-4.3135,-4.3155,-4.3319,-4.3738,-4.4082,-4.4152,-4.4691,-4.502,-4.4945,-4.5005,-4.5125,-4.5125,-4.5319,-4.5589,-4.6217,-4.6339,-4.6414,-4.6339,-4.68,-4.6636,-4.5693,-4.5828,-4.5918,-4.5544,-4.5738,-4.5935,-4.5317,-4.5513,-4.5741,-4.509,-4.5374,-4.5136,-4.3199,-4.2821,-4.2658,-4.3295,0.0,-4.2841,-4.265,0.0,-4.2342,-4.2342,-4.2327,-4.2013,-4.2043,-4.2357,-4.2701,-4.2836,-4.2865,-4.3195,-4.3305,-4.3305,-4.3305,-4.3305,-4.3319,-4.3633,-4.3768,-4.3783,-4.4152,-4.4302,-4.4287,-4.4302,-4.4302,-4.4302,-4.4302,-4.4302,-4.4302,-4.4302,-4.3973,-4.3344,-4.4108,-4.4068,-4.3305,-4.3,-4.2836,-4.2836,-4.2836,-4.2387,-4.1474,-4.2656,0.0,0.0,0.0,0.0,0.0,0.0,0.0,0.0,0.0,0.0,-3.8332,-3.6592,-3.5681,-3.6045,-3.5853,-3.6612,-3.8525,-3.8721,-3.825,-3.7109,-3.9436,-4.0337,-3.9095,-4.0164,-4.1025,-4.1339,-4.1407,-4.1542,-4.1871,-4.2147,-4.2491,-4.2776,-4.2851,-4.2955,-4.326,-4.3589,-4.3808,-4.3783,-4.4392,-4.4766,-4.4825,-4.5379,-4.5798,-4.5813,-4.5798,-4.5888,-4.6217,-4.6292,-4.6531,-4.713,-4.7294,-4.7264,-4.7354,-4.7563,-4.7489,-4.689,-4.704,-4.7249,-4.7249,-4.7563,-4.7638,-4.7384,-4.7549,-4.7668,-4.7354,-4.7279,-4.7165,-4.6256,-4.5244,-4.3964,-4.4281,-4.3949,-4.3949,-4.3699,-4.3305,-4.3305,-4.3305,-4.326,0.0,0.0,0.0,-4.3305,-4.3305,-4.3305,-4.3305,-4.3305,-4.3305,-4.3305,-4.3349,-4.3499,-4.4062,-4.4377,-4.4511,-4.5035,-4.5289,-4.5289,-4.5289,-4.5289,-4.5289,-4.5289,-4.5331,-4.5387,-4.5372,-4.5372,-4.5428,-4.5649,-4.5122,-4.3853,-4.3648,-4.3588,-4.3588,-4.3483,-4.2644,-4.1063,-4.2554,-4.2683,-4.1138,-4.2739,-4.2588,-4.0336,-4.0332,-4.0061,-3.9376,-3.9382,-4.0139,-4.1678,-4.1761,-4.1798,-4.1889,-4.1851,-4.1596,-4.1159,-4.107,-4.125,-4.1821,-4.1663,-4.1632,-4.1713,-4.1728,-4.1728,-4.1728,-4.2246,-4.2575,-4.2575,-4.312,-4.3469,-4.3469,-4.3589,-4.3718,-4.3693,-4.4142,-4.4481,-4.4511,-4.5065,-4.5469,-4.5559,-4.6067,-4.6459,-4.6444,-4.6459,-4.6666,-4.707,-4.713,-4.7429,-4.7908,-4.8012,-4.8162,-4.8162,-4.8237,-4.8327,-4.8416,-4.8461,-4.8671,-4.9,-4.9359,-4.9299,-4.9314,-4.9224,-4.9389,-4.9344,-4.885,-4.8626,-4.897,-4.7555,-4.5727,-4.3934,-4.3729,-4.3729,-4.3542,-4.3305,-4.3305,-4.3305,-4.329,-4.32,-4.32,-4.3305,-4.3305,-4.3305,-4.3305,-4.3305,-4.3305,-4.3305,-4.3305,-4.3589,-4.4167,-4.4272,-4.4616,-4.5155,-4.5244,-4.5289,-4.5289,-4.5289,-4.5289,-4.5289,-4.5289,-4.5428,-4.5623,-4.5649,-4.5746,-4.5895,-4.5935,-4.5844,-4.5607,-4.5046,-4.4758,-4.4743,-4.4198,-4.3789,-4.3531,-4.3758,-4.3789,-4.3516,-4.3603,-4.3524,-4.3109,-4.3133,-4.3072,-4.2958,-4.3045,-4.3334,-4.3576,-4.3267,-4.3266,-4.3815,-4.3531,-4.3499,-4.3944,-4.3701,-4.3173,-4.2383,-4.2261,-4.25,-4.297,-4.3,-4.3021,-4.3035,-4.3135,-4.321,-4.3269,-4.3778,-4.4127,-4.4197,-4.4631,-4.493,-4.4915,-4.5095,-4.5155,-4.5214,-4.5753,-4.6172,-4.6277,-4.6681,-4.7145,-4.71,-4.716,-4.7189,-4.7279,-4.7309,-4.7354,-4.7563,-4.7474,-4.7803,-4.8207,-4.8327,-4.8536,-4.906,-4.9134,-4.9284,-4.9359,-4.9838,-4.9927,-4.9538,-4.9748,-4.9868,-4.9614,-4.9254,-4.9269,-4.9479,-4.897,-4.8223,-4.3949,-4.3832,-4.3729,-4.3636,-4.3518,-4.3329,-4.3305,-4.329,-4.3463,-4.3423,-4.3305,-4.3305,-4.3305,-4.3305,-4.3305,-4.3305,-4.3305,-4.3305,-4.3454,-4.3753,-4.4152,-4.4466,-4.4781,-4.5248,-4.5455,-4.5455,-4.5578,-4.5634,-4.5619,-4.5619,-4.5912,-4.6373,-4.6762,-4.7069,-4.7219,-4.7261,-4.7302,-4.738,-4.6158,-4.5561,-4.5561,-4.5257,-4.5065,-4.5065,-4.5105,-4.4898,-4.4549,-4.4573,-4.4352,-4.3901,-4.3949,-4.3988,-4.3871,-4.3949,-4.4003,-4.3972,-4.3815,-4.3807,-4.4112,-4.3579,-4.3578,-4.4205,-4.3754,-4.3433,-4.3301,-4.3052,-4.3054,-4.3472,-4.3503,-4.3707,-4.4157,-4.4108,-4.4163,-4.4554,-4.4773,-4.484,-4.487,-4.508,-4.5274,-4.5319,-4.5633,-4.5843,-4.5858,-4.6441,-4.6845,-4.689,-4.716,-4.7309,-4.7339,-4.7608,-4.7698,-4.7414,-4.7593,-4.7818,-4.7848,-4.8162,-4.8461,-4.8835,-4.8865,-4.909,-4.9643,-4.9793,-5.0077,-5.0705,-5.1109,-5.1169,-5.084,-5.1079,-5.0975,-5.0466,-4.9987,-5.0032,-5.0541,-5.0601,-4.9881,-4.4506,-4.4506,-4.4285,-4.4206,-4.4191,-4.3828,-4.3763,-4.3908,-4.3976,-4.3847,-4.3633,-4.3483,-4.3463,-4.3448,-4.3423,-4.3384,-4.3384,-4.3329,-4.3419,-4.3638,-4.4118,-4.4473,-4.4734,-4.5393,-4.5645,-4.5701,-4.5824,-4.5879,-4.5879,-4.5879,-4.6325,-4.7034,-4.7619,-4.805,-4.837,-4.837,-4.8453,-4.8501,-4.7125,-4.6427,-4.658,-4.6427,-4.6351,-4.6351,-4.6199,-4.5879,-4.5392,-4.548,-4.5196,-4.4591,-4.4662,-4.4586,-4.4332,-4.4317,-4.4295,-4.4158,-4.4127,-4.4143,-4.4112,-4.3807,-4.3747,-4.4097,-4.3769,-4.3731,-4.4163,-4.3925,-4.3767,-4.3956,-4.4137,-4.4463,-4.4991,-4.4986,-4.5077,-4.5604,-4.5703,-4.5695,-4.5597,-4.5717,-4.578,-4.5855,-4.6217,-4.6546,-4.6593,-4.6995,-4.7264,-4.7264,-4.7309,-4.7354,-4.7549,-4.7997,-4.8057,-4.8012,-4.8192,-4.8476,-4.8536,-4.891,-4.9284,-4.9419,-4.9524,-4.9793,-5.0196,-5.0405,-5.0704,-5.1573,-5.1843,-5.1783,-5.1917,-5.1902,-5.1648,-5.1139,-5.0735,-5.0765,-5.1498,-5.1588,-5.0975,-4.607,-4.606,-4.5814,-4.5794,-4.5647,-4.5101,-4.5177,-4.5602,-4.5156,-4.4764,-4.4534,-4.4143,-4.3979,-4.391,-4.3714,-4.3636,-4.3651,-4.3423,-4.3708,-4.4364,-4.4539,-4.4981,-4.5612,-4.5804,-4.5879,-4.5834,-4.5844,-4.5799,-4.5839,-4.5875,-4.6361,-4.7191,-4.7518,-4.7953,-4.8501,-4.8563,-4.8563,-4.8604,-4.7855,-4.7738,-4.826,-4.7794,-4.743,-4.743,-4.6846,-4.6533,-4.6432,-4.6297,-4.6162,-4.6116,-4.6055,-4.581,-4.5275,-4.5355,-4.5195,-4.4626,-4.458,-4.4549,-4.4595,-4.5057,-4.5095,-4.4657,-4.4894,-4.5092,-4.5199,-4.4978,-4.4859,-4.4965,-4.5284,-4.549,-4.5656,-4.5656,-4.5716,-4.5897,-4.6418,-4.6732,-4.6569,-4.7024,-4.7315,-4.713,-4.707,-4.7204,-4.716,-4.7294,-4.7354,-4.7414,-4.7519,-4.7698,-4.8117,-4.8371,-4.8656,-4.8925,-4.9209,-4.9239,-4.9254,-4.9254,-4.9628,-5.0047,-5.0106,-5.036,-5.0779,-5.0988,-5.1197,-5.1498,-5.1468,-5.1513,-5.1468,-5.1319,-5.1364,-5.1304,-5.1154,-5.1184,-5.1379,-5.1708,-5.1483,-4.6603,-4.6469,-4.6244,-4.6098,-4.5971,-4.5728,-4.5743,-4.5956,-4.5849,-4.5727,-4.5656,-4.5596,-4.4913,-4.3847,-4.3871,-4.3871,-4.3871,-4.3754,-4.3874,-4.4249,-4.4264,-4.4455,-4.4777,-4.4911,-4.495,-4.4989,-4.5092,-4.5131,-4.5192,-4.5528,-4.6104,-4.6868,-4.7348,-4.7942,-4.8527,-4.8219,-4.8019,-4.8004,-4.7342,-4.7142,-4.7404,-4.7542,-4.7788,-4.8142,-4.7927,-4.7573,-4.7234,-4.7108,-4.6898,-4.653,-4.6499,-4.6361,-4.61,-4.6133,-4.6065,-4.5788,-4.5772,-4.5757,-4.5757,-4.6034,-4.6065,-4.5788,-4.5955,-4.6069,-4.61,-4.6358,-4.6548,-4.6508,-4.6255,-4.6235,-4.6681,-4.6717,-4.6802,-4.7126,-4.7334,-4.7286,-4.7232,-4.733,-4.7396,-4.7309,-4.7309,-4.7309,-4.7369,-4.7638,-4.7848,-4.7952,-4.8177,-4.858,-4.8835,-4.9179,-4.9538,-4.9808,-5.0152,-5.0197,-4.9972,-5.0197,-5.0496,-5.072,-5.0764,-5.099,-5.1109,-5.1229,-5.1319,-5.1678,-5.1693,-5.1708,-5.1858,-5.1768,-5.1723,-5.1498,-5.1618,-5.1798,-5.1798,-5.2007,-5.1858,-4.7477,-4.7302,-4.7037,-4.6819,-4.6712,-4.6514,-4.6559,-4.6666,-4.6691,-4.664,-4.6599,-4.68,-4.5957,-4.4601,-4.4573,-4.4637,-4.4597,-4.4573,-4.4573,-4.4621,-4.4469,-4.4378,-4.444,-4.4396,-4.4396,-4.4396,-4.4526,-4.4587,-4.4649,-4.5303,-4.5942,-4.6603,-4.7281,-4.7958,-4.8481,-4.8096,-4.7788,-4.7573,-4.6942,-4.6603,-4.665,-4.6896,-4.745,-4.825,-4.8527,-4.8373,-4.7912,-4.7896,-4.7665,-4.7188,-4.7157,-4.7065,-4.688,-4.688,-4.6788,-4.6619,-4.6603,-4.6603,-4.6603,-4.6773,-4.6788,-4.6634,-4.6742,-4.688,-4.6942,-4.7327,-4.7681,-4.7794,-4.7272,-4.7272,-4.7651,-4.765,-4.7782,-4.8183,-4.7964,-4.7794,-4.7709,-4.7538,-4.7467,-4.7381,-4.7482,-4.7557,-4.7665,-4.8011,-4.8297,-4.8551,-4.8985,-4.9419,-4.9523,-4.9912,-5.0211,-5.0435,-5.0868,-5.0928,-5.0584,-5.0749,-5.1199,-5.1229,-5.1169,-5.1154,-5.1229,-5.1229,-5.1244,-5.1513,-5.1813,-5.1872,-5.1678,-5.1753,-5.1843,-5.1498,-5.1573,-5.1887,-5.1753,-5.2007,-5.2172,-4.9197,-4.9069,-4.8677,-4.8409,-4.8409,-4.7794,-4.7871,-4.826,-4.7778,-4.7436,-4.7313,-4.7492,-4.7052,-4.6207,-4.6207,-4.6177,-4.6106,-4.59,-4.5894,-4.5963,-4.5504,-4.5347,-4.5495,-4.4895,-4.4587,-4.4587,-4.4572,-4.461,-4.4618,-4.5264,-4.5926,-4.6603,-4.7281,-4.7942,-4.8512,-4.8496,-4.8219,-4.7604,-4.6927,-4.6603,-4.6542,-4.6049,-4.6465,-4.7558,-4.825,-4.8496,-4.8496,-4.8543,-4.8496,-4.8496,-4.8435,-4.8189,-4.7635,-4.7558,-4.7296,-4.6773,-4.6665,-4.665,-4.6757,-4.7234,-4.7327,-4.685,-4.725,-4.7558,-4.7573,-4.765,-4.7927,-4.8496,-4.8363,-4.8311,-4.8247,-4.8201,-4.8206,-4.8313,-4.8301,-4.8133,-4.8007,-4.7922,-4.7852,-4.7727,-4.7903,-4.8175,-4.8469,-4.8369,-4.8715,-4.912,-4.9329,-4.9538,-5.0062,-5.0211,-5.048,-5.093,-5.1169,-5.1199,-5.1154,-5.1154,-5.1199,-5.1229,-5.1229,-5.1229,-5.1229,-5.1229,-5.1259,-5.1274,-5.1379,-5.1394,-5.1304,-5.1289,-5.1349,-5.1259,-5.1259,-5.1409,-5.1513,-5.1872,-5.2082,-4.9331,-4.9103,-4.8759,-4.8604,-4.8573,-4.8343,-4.8389,-4.8589,-4.8373,-4.8209,-4.8127,-4.8209,-4.8071,-4.7758,-4.7758,-4.7282,-4.653,-4.6404,-4.6214,-4.5916,-4.6023,-4.5749,-4.5003,-4.5133,-4.4972,-4.4656,-4.461,-4.461,-4.4687,-4.5264,-4.5926,-4.6603,-4.7265,-4.7942,-4.8419,-4.8189,-4.7835,-4.7573,-4.6942,-4.6603,-4.6634,-4.6773,-4.6942,-4.6957,-4.7188,-4.7527,-4.7958,-4.7973,-4.8158,-4.8589,-4.8604,-4.8496,-4.8296,-4.825,-4.8158,-4.7927,-4.7896,-4.7881,-4.7912,-4.8112,-4.8158,-4.7958,-4.8096,-4.8219,-4.825,-4.8266,-4.8358,-4.8558,-4.8604,-4.8537,-4.8537,-4.8495,-4.848,-4.8495,-4.837,-4.8244,-4.816,-4.8091,-4.8116,-4.8455,-4.8762,-4.9098,-4.9206,-4.9374,-4.9613,-4.9868,-5.0242,-5.0556,-5.0765,-5.0855,-5.0945,-5.1124,-5.1229,-5.1229,-5.1229,-5.1214,-5.1229,-5.1229,-5.1229,-5.1229,-5.1229,-5.1229,-5.1244,-5.1259,-5.1229,-5.1229,-5.1244,-5.1244,-5.1229,-5.1229,-5.1229,-5.1349,-5.1229,-5.1648,-5.1917,-4.9372,-4.8996,-4.8816,-4.8676,-4.8604,-4.8604,-4.8604,-4.8604,-4.8604,-4.8604,-4.8604,-4.8604,-4.8604,-4.8604,-4.8604,-4.8158,-4.7296,-4.725,-4.6988,-4.6603,-4.6803,-4.6434,-4.5726,-4.5803,-4.5572,-4.4979,-4.4702,-4.4718,-4.4972,-4.5588,-4.6265,-4.6927,-4.7588,-4.8142,-4.8466,-4.8142,-4.785,-4.7573,-4.7142,-4.685,-4.6711,-4.7034,-4.708,-4.668,-4.6603,-4.6911,-4.7573,-4.7804,-4.8127,-4.8543,-4.8604,-4.8604,-4.8604,-4.8604,-4.8604,-4.8604,-4.8589,-4.8604,-4.8604,-4.8604,-4.8604,-4.8604,-4.8604,-4.8604,-4.8604,-4.8604,-4.8604,-4.8604,-4.8604,-4.8604,-4.8604,-4.8604,-4.8604,-4.8563,-4.8412,-4.8286,-4.8317,-4.8374,-4.8816,-4.941,-4.9663,-4.988,-5.0093,-5.0321,-5.0562,-5.0741,-5.1207,-5.1401,-5.1369,-5.1308,-5.1261,-5.1214,-5.1229,-5.1229,-5.1229,-5.1229,-5.1229,-5.1229,-5.1229,-5.1229,-5.1229,-5.1229,-5.1229,-5.1229,-5.1229,-5.1229,-5.1229,-5.1229,-5.1229,-5.1229,-5.1468,-5.1663,-5.1558,-5.1468,-5.1843,-4.9372,-4.9037,-4.9011,-4.8841,-4.8661,-4.8604,-4.8604,-4.862,-4.8604,-4.8604,-4.8604,-4.8604,-4.8604,-4.8604,-4.8604,-4.8558,-4.845,-4.8389,-4.8327,-4.8189,-4.7819,-4.7511,-4.7234,-4.6788,-4.6188,-4.548,-4.488,-4.4941,-4.5511,-4.6157,-4.6834,-4.7558,-4.8189,-4.8512,-4.8604,-4.8512,-4.825,-4.7819,-4.7619,-4.7311,-4.6726,-4.6834,-4.6834,-4.6696,-4.6726,-4.7034,-4.7604,-4.8189,-4.844,-4.8589,-4.8604,-4.8604,-4.8604,-4.8604,-4.8604,-4.8604,-4.8604,-4.8604,-4.8604,-4.8604,-4.8604,-4.8604,-4.8604,-4.8604,-4.8604,-4.8604,-4.8604,-4.8604,-4.8604,-4.8604,-4.862,-4.8696,-4.8727,-4.8593,-4.8576,-4.8523,-4.8603,-4.8959,-4.9671,-5.0429,-5.0575,-5.0625,-5.1054,-5.1151,-5.1228,-5.1652,-5.1849,-5.1787,-5.1587,-5.1541,-5.1433,-5.1261,-5.1229,-5.1229,-5.1229,-5.1229,-5.1229,-5.1229,-5.1229,-5.1229,-5.1229,-5.1229,-5.1229,-5.1229,-5.1229,-5.1229,-5.1229,-5.1229,-5.1229,-5.1289,-5.1633,-5.1768,-5.1588,-5.1513,-5.2007,-4.9533,-4.9412,-4.9235,-4.9087,-4.8898,-4.8857,-4.8759,-4.862,-4.8604,-4.8604,-4.8604,-4.8604,-4.8604,-4.8604,-4.8604,-4.8604,-4.8604,-4.8589,-4.8373,-4.8035,-4.8173,-4.7773,-4.7111,-4.7173,-4.668,-4.5649,-4.4895,-4.4926,-4.5603,-4.6265,-4.6942,-4.7619,-4.8281,-4.8589,-4.8604,-4.8604,-4.8466,-4.8343,-4.8296,-4.8173,-4.7989,-4.7973,-4.7773,-4.7388,-4.7727,-4.7912,-4.765,-4.7804,-4.8127,-4.8573,-4.8604,-4.8604,-4.8604,-4.8604,-4.8604,-4.8604,-4.8604,-4.8604,-4.8604,-4.8604,-4.8604,-4.8604,-4.8604,-4.8604,-4.8604,-4.8604,-4.8604,-4.8604,-4.8604,-4.8604,-4.8681,-4.9097,-4.9312,-4.9358,-4.9316,-4.9474,-4.9846,-5.046,-5.0995,-5.1346,-5.1538,-5.1756,-5.1864,-5.182,-5.1759,-5.1957,-5.2033,-5.1926,-5.168,-5.1634,-5.1494,-5.1261,-5.1214,-5.1229,-5.1229,-5.1229,-5.1229,-5.1229,-5.1229,-5.1229,-5.1229,-5.1229,-5.1229,-5.1229,-5.1229,-5.1229,-5.1229,-5.1229,-5.1229,-5.1244,-5.1439,-5.1439,-5.1349,-5.1693,-5.2291,-4.9677,-4.9597,-4.9477,-4.9291,-4.9103,-4.9052,-4.8939,-4.8826,-4.8661,-4.8676,-4.8718,-4.862,-4.8604,-4.8604,-4.8604,-4.8604,-4.8604,-4.8604,-4.8389,-4.8065,-4.8373,-4.7989,-4.7004,-4.6803,-4.6665,-4.5911,-4.5018,-4.4941,-4.5603,-4.6265,-4.6942,-4.7604,-4.8281,-4.8604,-4.8604,-4.8604,-4.8604,-4.8604,-4.8589,-4.8604,-4.8604,-4.8604,-4.8419,-4.8065,-4.8142,-4.8019,-4.7635,-4.7619,-4.7927,-4.8481,-4.8604,-4.8604,-4.8604,-4.8604,-4.8604,-4.8604,-4.8604,-4.8604,-4.8604,-4.8604,-4.8604,-4.8604,-4.8604,-4.8604,-4.8604,-4.8604,-4.8604,-4.8604,-4.8604,-4.8727,-4.9035,-4.9374,-4.9851,-5.0405,-5.0189,-5.0389,-5.0959,-5.1421,-5.1805,-5.1992,-5.2271,-5.2411,-5.2412,-5.2382,-5.2261,-5.2261,-5.2261,-5.2124,-5.188,-5.1726,-5.1541,-5.1308,-5.1229,-5.1229,-5.1229,-5.1229,-5.1229,-5.1229,-5.1229,-5.1229,-5.1229,-5.1229,-5.1229,-5.1229,-5.1229,-5.1229,-5.1229,-5.1229,-5.1229,-5.1274,-5.1349,-5.1633,-5.1828,-5.2247,-5.28,-4.9797,-4.9637,-4.9597,-4.9477,-4.9291,-4.9103,-4.9103,-4.9153,-4.8826,-4.8759,-4.8857,-4.8759,-4.8604,-4.8604,-4.8604,-4.8604,-4.8604,-4.8604,-4.8589,-4.8527,-4.8573,-4.8189,-4.7481,-4.6496,-4.6142,-4.6142,-4.5141,-4.5018,-4.5757,-4.6311,-4.6957,-4.7742,-4.8327,-4.8604,-4.8604,-4.8604,-4.8604,-4.8604,-4.8604,-4.8604,-4.8604,-4.8604,-4.8527,-4.8435,-4.7942,-4.7619,-4.7465,-4.7558,-4.7927,-4.8496,-4.8604,-4.8604,-4.8604,-4.8604,-4.8604,-4.8604,-4.8604,-4.8604,-4.8604,-4.8604,-4.8604,-4.8604,-4.8604,-4.8604,-4.8604,-4.8604,-4.8604,-4.862,-4.8696,-4.8989,-4.9481,-4.9897,-5.0466,-5.1405,-5.1236,-5.1236,-5.1652,-5.179,-5.2067,-5.2513,-5.2713,-5.2713,-5.2669,-5.2669,-5.2624,-5.2608,-5.2624,-5.2337,-5.2078,-5.1849,-5.171,-5.1463,-5.1229,-5.1229,-5.1229,-5.1229,-5.1229,-5.1229,-5.1229,-5.1229,-5.1229,-5.1229,-5.1229,-5.1229,-5.1229,-5.1229,-5.1229,-5.1229,-5.1229,-5.1244,-5.1528,-5.2007,-5.2291,-5.2516,-5.3025,-4.9876,-4.9836,-4.9812,-4.9717,-4.9517,-4.9331,-4.9128,-4.9062,-4.8939,-4.88,-4.8774,-4.8841,-4.8774,-4.862,-4.8604,-4.8604,-4.8604,-4.8604,-4.8604,-4.8604,-4.8604,-4.8219,-4.7573,-4.6757,-4.6142,-4.5834,-4.518,-4.5226,-4.6265,-4.6419,-4.7127,-4.8327,-4.8404,-4.8589,-4.8604,-4.8604,-4.8604,-4.8604,-4.8604,-4.8604,-4.8604,-4.8604,-4.8343,-4.7881,-4.7696,-4.7357,-4.7004,-4.7357,-4.7912,-4.8527,-4.8604,-4.8604,-4.8604,-4.8604,-4.8604,-4.8604,-4.8604,-4.8604,-4.8604,-4.8604,-4.8604,-4.8604,-4.8604,-4.8604,-4.8604,-4.8604,-4.8604,-4.8696,-4.905,-4.9481,-4.982,-5.059,-5.1513,-5.2221,-5.2159,-5.2144,-5.2344,-5.2452,-5.2544,-5.2683,-5.2713,-5.2713,-5.2713,-5.2713,-5.2713,-5.2653,-5.2563,-5.2337,-5.2078,-5.1849,-5.1649,-5.1416,-5.1229,-5.1229,-5.1229,-5.1229,-5.1229,-5.1229,-5.1229,-5.1229,-5.1229,-5.1229,-5.1229,-5.1229,-5.1229,-5.1229,-5.1229,-5.1229,-5.1229,-5.1229,-5.1468,-5.1813,-5.1977,-5.2202,-5.2935,-4.9916,-4.9916,-4.9916,-4.9836,-4.9677,-4.9396,-4.9275,-4.9225,-4.8939,-4.8816,-4.8759,-4.88,-4.8759,-4.862,-4.8604,-4.8604,-4.8604,-4.8604,-4.8604,-4.8604,-4.8604,-4.8389,-4.7865,-4.7111,-4.6388,-4.5988,-4.5326,-4.528,-4.5695,-4.6003,-4.6773,-4.7573,-4.805,-4.8327,-4.8604,-4.8604,-4.8604,-4.8604,-4.8604,-4.8604,-4.8604,-4.8604,-4.845,-4.8004,-4.7788,-4.7373,-4.7142,-4.7404,-4.7912,-4.8435,-4.8604,-4.8604,-4.8604,-4.8604,-4.8604,-4.8604,-4.8604,-4.8604,-4.8604,-4.8604,-4.8604,-4.8604,-4.8604,-4.8604,-4.8604,-4.8604,-4.865,-4.9097,-4.9466,-4.9928,-5.0605,-5.1513,-5.2236,-5.259,-5.2713,-5.2713,-5.2713,-5.2683,-5.2713,-5.2713,-5.2713,-5.2713,-5.2713,-5.2713,-5.2713,-5.2669,-5.2608,-5.2337,-5.2078,-5.188,-5.1634,-5.1401,-5.1276,-5.1214,-5.1229,-5.1229,-5.1229,-5.1229,-5.1229,-5.1229,-5.1229,-5.1229,-5.1229,-5.1229,-5.1229,-5.1229,-5.1229,-5.1229,-5.1229,-5.1274,-5.1424,-5.1633,-5.1887,-5.2531,-5.3204,-4.9995,-5.0018,-4.99,-4.9916,-4.9876,-4.9477,-4.9396,-4.9477,-4.8949,-4.8924,-4.9103,-4.8841,-4.8744,-4.8702,-4.8646,-4.8604,-4.8604,-4.8604,-4.8604,-4.8604,-4.8604,-4.8543,-4.8373,-4.7357,-4.6742,-4.6449,-4.5926,-4.5588,-4.5634,-4.5818,-4.6234,-4.7182,-4.7746,-4.8173,-4.8759,-4.8852,-4.8811,-4.8918,-4.8852,-4.8811,-4.8769,-4.8671,-4.8522,-4.8449,-4.7837,-4.7617,-4.7521,-4.765,-4.7912,-4.8589,-4.8604,-4.8543,-4.8527,-4.8496,-4.8604,-4.8604,-4.8604,-4.8604,-4.8604,-4.8604,-4.8604,-4.8604,-4.8604,-4.8604,-4.8604,-4.8604,-4.8881,-4.9497,-4.9728,-5.0466,-5.1528,-5.2359,-5.259,-5.2713,-5.2713,-5.2713,-5.2713,-5.2713,-5.2713,-5.2713,-5.2713,-5.2713,-5.2713,-5.2713,-5.2713,-5.2669,-5.2563,-5.2382,-5.2155,-5.1972,-5.1741,-5.1509,-5.1354,-5.1261,-5.1276,-5.1229,-5.1229,-5.1229,-5.1229,-5.1229,-5.1229,-5.1229,-5.1229,-5.1229,-5.1229,-5.1229,-5.1229,-5.1229,-5.1229,-5.1379,-5.1573,-5.1828,-5.2157,-5.3129,-5.3907,-5.0563,-5.0778,-5.0175,-4.9995,-5.0018,-4.9541,-4.9517,-4.9812,-4.9225,-4.9443,-4.9836,-4.9291,-4.9144,-4.9356,-4.8934,-4.8604,-4.8687,-4.8687,-4.8604,-4.8604,-4.8604,-4.8604,-4.8507,-4.7808,-4.7182,-4.6766,-4.6496,-4.6581,-4.6883,-4.6954,-4.7496,-4.8142,-4.8578,-4.924,-4.939,-4.9741,-5.0097,-5.0002,-4.9622,-4.9381,-4.9259,-4.8918,-4.8717,-4.8629,-4.8036,-4.7667,-4.7592,-4.7619,-4.7942,-4.8419,-4.8553,-4.8332,-4.8091,-4.8281,-4.8481,-4.8527,-4.8558,-4.8589,-4.862,-4.8635,-4.862,-4.8681,-4.8758,-4.8604,-4.862,-4.8696,-4.902,-4.9605,-5.0174,-5.1051,-5.219,-5.259,-5.2698,-5.2713,-5.2713,-5.2713,-5.2713,-5.2713,-5.2713,-5.2713,-5.2713,-5.2713,-5.2713,-5.2713,-5.2713,-5.2669,-5.2563,-5.2367,-5.2246,-5.2109,-5.1926,-5.1695,-5.1494,-5.1401,-5.1354,-5.1323,-5.1229,-5.1229,-5.1229,-5.1229,-5.1229,-5.1229,-5.1229,-5.1229,-5.1229,-5.1229,-5.1229,-5.1229,-5.1229,-5.1468,-5.1663,-5.1768,-5.2187,-5.3369,-5.4057,-5.0892,-5.1043,-5.0624,-5.0701,-5.1012,-5.0691,-5.0652,-5.0731,-5.0414,-5.0319,-5.0363,-4.9916,-4.9836,-4.9979,-4.9646,-4.9486,-4.9486,-4.9486,-4.9486,-4.9526,-4.9526,-4.9486,-4.9454,-4.9085,-4.8529,-4.7754,-4.7895,-4.8083,-4.7997,-4.784,-4.802,-4.8913,-4.9166,-4.941,-4.9931,-5.0354,-5.0448,-5.0409,-5.0214,-5.0018,-4.9939,-4.9686,-4.9472,-4.9433,-4.91,-4.8906,-4.9016,-4.8632,-4.8404,-4.8277,-4.8228,-4.81,-4.779,-4.7852,-4.8063,-4.826,-4.8403,-4.8579,-4.8708,-4.9094,-4.9294,-4.9253,-4.9431,-4.9558,-4.9589,-4.9589,-4.9928,-5.0497,-5.1021,-5.1605,-5.256,-5.2713,-5.2713,-5.2713,-5.2713,-5.2713,-5.2713,-5.2713,-5.2713,-5.2713,-5.2713,-5.2713,-5.2713,-5.2713,-5.2713,-5.2669,-5.2653,-5.2503,-5.2306,-5.2185,-5.2124,-5.1926,-5.168,-5.1572,-5.1494,-5.1401,-5.1229,-5.1229,-5.1229,-5.1229,-5.1229,-5.1229,-5.1229,-5.1229,-5.1229,-5.1229,-5.1229,-5.1229,-5.1244,-5.1394,-5.1513,-5.1573,-5.2052,-5.3129,-5.3548,-5.1247,-5.1268,-5.1156,-5.1523,-5.2139,-5.1962,-5.1869,-5.1923,-5.1706,-5.1218,-5.0813,-5.064,-5.0432,-5.0586,-5.0432,-5.0486,-5.0448,-5.0409,-5.0292,-5.0292,-5.0276,-5.0292,-5.0299,-5.0265,-5.0042,-4.9124,-4.9324,-4.9276,-4.8811,-4.8352,-4.8817,-4.9493,-4.9372,-4.983,-5.0506,-5.0778,-5.0946,-5.0984,-5.0794,-5.0624,-5.0586,-5.047,-5.0361,-5.0297,-5.0426,-5.0301,-5.0099,-4.9592,-4.891,-4.8042,-4.7782,-4.7745,-4.7668,-4.7496,-4.7504,-4.8004,-4.832,-4.873,-4.9316,-4.9687,-4.9945,-5.01,-5.041,-5.0605,-5.059,-5.0559,-5.0836,-5.1344,-5.1775,-5.2067,-5.2637,-5.2713,-5.2713,-5.2713,-5.2713,-5.2713,-5.2713,-5.2713,-5.2713,-5.2713,-5.2713,-5.2713,-5.2713,-5.2713,-5.2713,-5.2713,-5.2698,-5.2653,-5.2457,-5.2367,-5.2291,-5.22,-5.2002,-5.168,-5.1587,-5.1401,-5.1229,-5.1229,-5.1229,-5.1229,-5.1229,-5.1229,-5.1229,-5.1229,-5.1229,-5.1229,-5.1229,-5.1229,-5.1259,-5.1334,-5.1528,-5.1753,-5.2276,-5.2935,-5.3069,-5.1888,-5.2089,-5.138,-5.1599,-5.2351,-5.2072,-5.2133,-5.2286,-5.1885,-5.182,-5.1884,-5.1022,-5.0892,-5.1027,-5.0717,-5.0563,-5.0679,-5.0717,-5.0679,-5.064,-5.0679,-5.0679,-5.0794,-5.1081,-5.108,-5.0898,-5.0714,-5.0374,-5.0207,-5.0074,-5.0093,-5.04,-5.066,-5.1124,-5.1294,-5.1745,-5.1908,-5.1762,-5.1508,-5.1252,-5.1177,-5.093,-5.0717,-5.0739,-5.1081,-5.1027,-5.0518,-4.9869,-4.9162,-4.8681,-4.7696,-4.7353,-4.7364,-4.7294,-4.7691,-4.8357,-4.8578,-4.9035,-4.9981,-5.0151,-5.0294,-5.046,-5.0759,-5.079,-5.079,-5.0805,-5.1251,-5.1682,-5.225,-5.262,-5.2683,-5.2713,-5.2713,-5.2713,-5.2713,-5.2713,-5.2713,-5.2713,-5.2713,-5.2713,-5.2713,-5.2713,-5.2713,-5.2713,-5.2713,-5.2713,-5.2713,-5.2713,-5.2608,-5.2563,-5.2578,-5.2473,-5.2367,-5.2002,-5.168,-5.1401,-5.1229,-5.1229,-5.1229,-5.1229,-5.1229,-5.1229,-5.1229,-5.1229,-5.1229,-5.1229,-5.1229,-5.1229,-5.1244,-5.1274,-5.1603,-5.1947,-5.2142,-5.2396,-5.277,-5.2954,-5.3397,-5.2614,-5.277,-5.3332,-5.2903,-5.2794,-5.2922,-5.2648,-5.2491,-5.2234,-5.1762,-5.1635,-5.1782,-5.1672,-5.1487,-5.145,-5.1487,-5.1487,-5.1487,-5.1487,-5.1487,-5.1466,-5.1798,-5.2138,-5.2228,-5.2121,-5.1738,-5.1515,-5.1491,-5.1496,-5.158,-5.1855,-5.1941,-5.1973,-5.2194,-5.239,-5.2302,-5.2089,-5.1875,-5.1911,-5.1545,-5.1487,-5.1561,-5.1709,-5.1745,-5.1467,-5.0803,-5.0229,-4.9687,-4.8609,-4.8036,-4.7773,-4.762,-4.7676,-4.854,-4.9007,-4.9583,-5.0499,-5.0727,-5.1203,-5.1364,-5.157,-5.1728,-5.1728,-5.1821,-5.1924,-5.2233,-5.2787,-5.3084,-5.2758,-5.2713,-5.2713,-5.2713,-5.2713,-5.2713,-5.2713,-5.2713,-5.2713,-5.2713,-5.2713,-5.2713,-5.2713,-5.2713,-5.2713,-5.2713,-5.2713,-5.2713,-5.2713,-5.2713,-5.2713,-5.2563,-5.2367,-5.2048,-5.168,-5.1401,-5.1229,-5.1229,-5.1229,-5.1229,-5.1229,-5.1229,-5.1229,-5.1229,-5.1229,-5.1229,-5.1229,-5.1229,-5.1229,-5.1229,-5.1424,-5.1588,-5.1618,-5.1798,-5.2306,-5.3897,-5.4245,-5.3665,-5.3765,-5.4109,-5.3682,-5.3381,-5.3417,-5.3381,-5.2983,-5.244,-5.2373,-5.2338,-5.2373,-5.2373,-5.2373,-5.2409,-5.2338,-5.2302,-5.2316,-5.2481,-5.2569,-5.2605,-5.2821,-5.3132,-5.3436,-5.3486,-5.3334,-5.2867,-5.2622,-5.2667,-5.2757,-5.2782,-5.2639,-5.263,-5.2669,-5.2572,-5.2426,-5.2409,-5.2409,-5.2409,-5.2409,-5.2409,-5.2409,-5.2409,-5.2338,-5.2183,-5.1309,-5.0837,-5.0252,-4.9434,-4.8661,-4.8648,-4.8243,-4.824,-4.8796,-4.9568,-5.0071,-5.1189,-5.1381,-5.202,-5.2633,-5.2919,-5.3064,-5.3095,-5.31,-5.3108,-5.3201,-5.3318,-5.3477,-5.3084,-5.2788,-5.2713,-5.2713,-5.2713,-5.2713,-5.2713,-5.2713,-5.2713,-5.2713,-5.2713,-5.2713,-5.2713,-5.2713,-5.2713,-5.2713,-5.2713,-5.2713,-5.2713,-5.2713,-5.2669,-5.2488,-5.2291,-5.1972,-5.1649,-5.1401,-5.1276,-5.1229,-5.1229,-5.1229,-5.1229,-5.1229,-5.1229,-5.1229,-5.1229,-5.1229,-5.1229,-5.1229,-5.1229,-5.1229,-5.1229,-5.1274,-5.1394,-5.1738,-5.2261,-5.401,-5.3513,-5.345,-5.3467,-5.3533,-5.3434,-5.34,-5.3384,-5.3351,-5.3019,-5.2409,-5.2409,-5.2409,-5.2409,-5.2409,-5.2409,-5.2409,-5.2409,-5.2459,-5.2556,-5.2953,-5.3218,-5.34,-5.4013,-5.4113,-5.4324,-5.4357,-5.4361,-5.4142,-5.3721,-5.3618,-5.3906,-5.3588,-5.3278,-5.3149,-5.3135,-5.297,-5.2525,-5.2409,-5.2409,-5.2409,-5.2409,-5.2409,-5.2409,-5.2409,-5.2409,-5.2288,-5.1457,-5.0893,-5.0733,-4.9519,-4.9146,-4.9593,-5.0271,-5.0389,-5.008,-4.9758,-4.9903,-5.2308,-5.2613,-5.2855,-5.3751,-5.4216,-5.4391,-5.4237,-5.4253,-5.4253,-5.4433,-5.4067,-5.3679,-5.3406,-5.304,-5.2848,-5.2803,-5.2922,-5.2833,-5.2803,-5.2713,-5.2713,-5.2713,-5.2713,-5.2713,-5.2713,-5.2713,-5.2713,-5.2713,-5.2713,-5.2713,-5.2669,-5.2669,-5.2608,-5.2427,-5.2155,-5.1834,-5.1649,-5.1401,-5.1261,-5.1229,-5.1229,-5.1229,-5.1229,-5.1229,-5.1229,-5.1229,-5.1229,-5.1229,-5.1229,-5.1229,-5.1229,-5.1229,-5.1229,-5.1229,-5.1244,-5.1693,-5.2142,-5.492,-5.4556,-5.3765,-5.3417,-5.3367,-5.3003,-5.2821,-5.2821,-5.2821,-5.2655,-5.2442,-5.2409,-5.2409,-5.2409,-5.2409,-5.2409,-5.2409,-5.2442,-5.2622,-5.292,-5.3318,-5.3629,-5.3993,-5.4341,-5.4605,-5.5069,-5.5206,-5.5471,-5.5338,-5.5024,-5.4705,-5.4473,-5.456,-5.4125,-5.3645,-5.345,-5.2986,-5.2572,-5.2409,-5.2409,-5.2409,-5.2409,-5.2409,-5.2409,-5.2409,-5.2426,-5.2302,-5.2376,-5.1832,-5.1737,-5.0986,-5.1036,-5.1318,-5.1495,-5.1534,-5.2508,-5.1518,-5.1732,-5.2911,-5.3334,-5.3968,-5.4387,-5.4742,-5.4659,-5.4685,-5.4742,-5.4575,-5.4109,-5.3895,-5.3766,-5.3782,-5.3449,-5.3565,-5.3565,-5.3377,-5.3246,-5.3129,-5.2803,-5.2713,-5.2713,-5.2713,-5.2788,-5.2788,-5.2713,-5.2713,-5.2713,-5.2713,-5.2713,-5.2608,-5.2518,-5.2457,-5.2352,-5.2048,-5.1726,-5.1587,-5.1401,-5.1261,-5.1229,-5.1229,-5.1229,-5.1229,-5.1229,-5.1229,-5.1229,-5.1229,-5.1229,-5.1229,-5.1229,-5.1229,-5.1229,-5.1229,-5.1274,-5.1334,-5.1409,-5.1783,-5.5582,-5.545,-5.4046,-5.3417,-5.3351,-5.2672,-5.2506,-5.2638,-5.2473,-5.2426,-5.2409,-5.2409,-5.2409,-5.2409,-5.2409,-5.2409,-5.239,-5.2556,-5.292,-5.3334,-5.3831,-5.4311,-5.4721,-5.497,-5.5421,-5.583,-5.5885,-5.6117,-5.6266,-5.61,-5.5554,-5.5073,-5.5284,-5.4953,-5.4311,-5.403,-5.3748,-5.2788,-5.2721,-5.2605,-5.2459,-5.2409,-5.2409,-5.2409,-5.2426,-5.2456,-5.2688,-5.2801,-5.2732,-5.2709,-5.2613,-5.2568,-5.267,-5.2708,-5.2912,-5.3684,-5.3292,-5.3414,-5.393,-5.4253,-5.48,-5.5092,-5.5197,-5.5401,-5.532,-5.5197,-5.5115,-5.481,-5.4449,-5.4364,-5.4195,-5.4109,-5.4094,-5.4136,-5.3965,-5.3852,-5.3652,-5.3318,-5.3113,-5.3113,-5.3157,-5.3069,-5.304,-5.2788,-5.2713,-5.2713,-5.2713,-5.2713,-5.2608,-5.2503,-5.2322,-5.2276,-5.2048,-5.1695,-5.1448,-5.1308,-5.1229,-5.1229,-5.1229,-5.1229,-5.1229,-5.1229,-5.1229,-5.1229,-5.1229,-5.1229,-5.1229,-5.1229,-5.1229,-5.1229,-5.1259,-5.1379,-5.1454,-5.1543,-5.1902,-5.5582,-5.5466,-5.403,-5.3417,-5.3367,-5.2672,-5.2754,-5.3086,-5.2622,-5.2409,-5.2409,-5.2409,-5.2409,-5.2442,-5.2492,-5.2489,-5.2456,-5.3053,-5.3434,-5.398,-5.4655,-5.5234,-5.5615,-5.6017,-5.6398,-5.6498,-5.6465,-5.6531,-5.6663,-5.6564,-5.6481,-5.6514,-5.5984,-5.567,-5.5234,-5.487,-5.4378,-5.3549,-5.3268,-5.292,-5.2605,-5.2459,-5.2409,-5.2426,-5.2475,-5.2672,-5.3248,-5.3083,-5.2943,-5.3232,-5.3403,-5.347,-5.3461,-5.3864,-5.4293,-5.465,-5.5044,-5.51,-5.524,-5.5058,-5.5398,-5.6099,-5.643,-5.6274,-5.6195,-5.6408,-5.6391,-5.5981,-5.5279,-5.5238,-5.5172,-5.509,-5.4826,-5.481,-5.4685,-5.4364,-5.4152,-5.3895,-5.3695,-5.3636,-5.3565,-5.3406,-5.3201,-5.2951,-5.2758,-5.2713,-5.2713,-5.2713,-5.2669,-5.2563,-5.2352,-5.2216,-5.2033,-5.1756,-5.1323,-5.1229,-5.1229,-5.1229,-5.1229,-5.1229,-5.1229,-5.1229,-5.1229,-5.1229,-5.1229,-5.1229,-5.1229,-5.1229,-5.1229,-5.1229,-5.1289,-5.1424,-5.1977,-5.2396,-5.2905,-5.5317,-5.4804,-5.3794,-5.3417,-5.3384,-5.3135,-5.2937,-5.2738,-5.2489,-5.2409,-5.2409,-5.2409,-5.2409,-5.2509,-5.287,-5.3019,-5.3135,-5.3765,-5.4229,-5.4738,-5.5367,-5.5852,-5.6216,-5.6481,-5.6663,-5.6697,-5.6697,-5.6697,-5.668,-5.6697,-5.6697,-5.6564,-5.6349,-5.6001,-5.5719,-5.5301,-5.4692,-5.4245,-5.3682,-5.3235,-5.3053,-5.2591,-5.2409,-5.2426,-5.2904,-5.3086,-5.3414,-5.3659,-5.3564,-5.3585,-5.3919,-5.4026,-5.4155,-5.4782,-5.5336,-5.5665,-5.6105,-5.6183,-5.6217,-5.5985,-5.6222,-5.6415,-5.668,-5.6697,-5.668,-5.6408,-5.6172,-5.5838,-5.562,-5.5442,-5.558,-5.5499,-5.5418,-5.5564,-5.5401,-5.495,-5.4659,-5.4449,-5.4237,-5.4152,-5.3852,-5.3652,-5.3362,-5.3069,-5.2877,-5.2713,-5.2713,-5.2713,-5.2669,-5.2563,-5.2352,-5.2078,-5.1941,-5.171,-5.1276,-5.1229,-5.1229,-5.1229,-5.1229,-5.1229,-5.1229,-5.1229,-5.1229,-5.1229,-5.1229,-5.1229,-5.1229,-5.1229,-5.1229,-5.1229,-5.1319,-5.1468,-5.2187,-5.3069,-5.3578,-5.5466,-5.4787,-5.4278,-5.3814,-5.3417,-5.3202,-5.297,-5.2705,-5.2473,-5.2409,-5.2426,-5.2572,-5.2688,-5.2854,-5.3135,-5.3599,-5.3781,-5.4241,-5.4887,-5.5383,-5.5852,-5.6216,-5.6531,-5.6697,-5.6697,-5.6697,-5.6697,-5.6697,-5.6697,-5.6697,-5.6697,-5.6697,-5.6663,-5.6332,-5.6017,-5.5471,-5.5073,-5.4688,-5.439,-5.3897,-5.3748,-5.3351,-5.3102,-5.3152,-5.3549,-5.393,-5.4092,-5.432,-5.4121,-5.4142,-5.432,-5.4638,-5.4887,-5.5355,-5.61,-5.6498,-5.6697,-5.6697,-5.6697,-5.6697,-5.6697,-5.6697,-5.6697,-5.6697,-5.6564,-5.6274,-5.6234,-5.6076,-5.5644,-5.5483,-5.5957,-5.6037,-5.6076,-5.6195,-5.5741,-5.5336,-5.5295,-5.5115,-5.4826,-5.4617,-5.4322,-5.3981,-5.3449,-5.3157,-5.2877,-5.2713,-5.2713,-5.2713,-5.2669,-5.2518,-5.2291,-5.2017,-5.1834,-5.1556,-5.1276,-5.1229,-5.1229,-5.1229,-5.1229,-5.1229,-5.1229,-5.1229,-5.1229,-5.1229,-5.1229,-5.1229,-5.1229,-5.1229,-5.1229,-5.1229,-5.1439,-5.1753,-5.2501,-5.3339,-5.3773,-5.6166,-5.5599,-5.5433,-5.4589,-5.3334,-5.2705,-5.2771,-5.3086,-5.2688,-5.2473,-5.2608,-5.3086,-5.34,-5.345,-5.3665,-5.4063,-5.446,-5.4638,-5.5069,-5.5786,-5.6249,-5.6597,-5.6663,-5.6697,-5.6697,-5.6697,-5.6697,-5.6697,-5.6697,-5.6697,-5.6697,-5.6697,-5.668,-5.6647,-5.663,-5.663,-5.6266,-5.5665,-5.5483,-5.487,-5.4593,-5.4212,-5.398,-5.4125,-5.4341,-5.4688,-5.4953,-5.4605,-5.4444,-5.4444,-5.4821,-5.492,-5.4672,-5.5852,-5.6514,-5.6663,-5.6697,-5.6697,-5.6697,-5.6697,-5.6697,-5.6697,-5.6697,-5.6697,-5.6697,-5.6603,-5.6525,-5.6391,-5.6391,-5.6447,-5.6603,-5.6603,-5.6641,-5.6525,-5.6076,-5.5878,-5.5838,-5.558,-5.5254,-5.4909,-5.4701,-5.4391,-5.3679,-5.3142,-5.2877,-5.2713,-5.2713,-5.2669,-5.2669,-5.2533,-5.2337,-5.2063,-5.1834,-5.1541,-5.1323,-5.1229,-5.1229,-5.1229,-5.1229,-5.1229,-5.1229,-5.1229,-5.1229,-5.1229,-5.1229,-5.1229,-5.1229,-5.1229,-5.1229,-5.1289,-5.1798,-5.2247,-5.2965,-5.3548,-5.3967,-5.5106,-5.4821,-5.4361,-5.3616,-5.2821,-5.2986,-5.297,-5.2788,-5.2937,-5.3053,-5.3218,-5.3814,-5.4146,-5.4262,-5.4589,-5.4936,-5.5218,-5.5868,-5.6233,-5.6299,-5.6597,-5.6647,-5.6697,-5.6697,-5.6697,-5.6697,-5.6697,-5.6697,-5.6697,-5.6697,-5.6697,-5.6697,-5.6697,-5.6697,-5.668,-5.668,-5.6498,-5.615,-5.5537,-5.487,-5.509,-5.4477,-5.4125,-5.4572,-5.5003,-5.5367,-5.5599,-5.5007,-5.4659,-5.461,-5.5019,-5.4837,-5.4821,-5.5935,-5.6647,-5.6697,-5.6697,-5.6697,-5.6697,-5.6697,-5.6697,-5.6697,-5.6697,-5.6697,-5.6697,-5.6697,-5.6697,-5.6697,-5.6697,-5.6697,-5.668,-5.668,-5.668,-5.6697,-5.6447,-5.6447,-5.6313,-5.5878,-5.5499,-5.5115,-5.4867,-5.3997,-5.3246,-5.3024,-5.2788,-5.2713,-5.2713,-5.2713,-5.2669,-5.2624,-5.2488,-5.217,-5.1895,-5.1602,-5.1401,-5.1276,-5.1229,-5.1229,-5.1229,-5.1229,-5.1229,-5.1229,-5.1229,-5.1229,-5.1229,-5.1229,-5.1229,-5.1229,-5.1229,-5.1394,-5.1768,-5.2112,-5.2546,-5.3294,-5.4072,-5.4341,-5.408,-5.3616,-5.3019,-5.2506,-5.287,-5.2788,-5.2489,-5.2854,-5.3053,-5.3235,-5.403,-5.4494,-5.4725,-5.5256,-5.583,-5.5984,-5.6117,-5.6581,-5.663,-5.668,-5.6697,-5.6697,-5.6719,-5.6697,-5.668,-5.668,-5.6697,-5.6697,-5.6697,-5.6697,-5.6697,-5.6697,-5.6697,-5.6697,-5.668,-5.6663,-5.6398,-5.5885,-5.567,-5.5653,-5.5322,-5.4941,-5.5355,-5.5736,-5.6017,-5.5802,-5.535,-5.4854,-5.4854,-5.4854,-5.4875,-5.5272,-5.5885,-5.6647,-5.6697,-5.6697,-5.6697,-5.6697,-5.6697,-5.6697,-5.6697,-5.6697,-5.6697,-5.6697,-5.6697,-5.6697,-5.6697,-5.6697,-5.6697,-5.6697,-5.6697,-5.6697,-5.6697,-5.6697,-5.6641,-5.6564,-5.6116,-5.558,-5.5238,-5.4659,-5.3695,-5.2922,-5.2833,-5.2713,-5.2713,-5.2713,-5.2713,-5.2669,-5.2578,-5.2488,-5.2185,-5.1849,-5.1509,-5.1308,-5.1276,-5.1229,-5.1229,-5.1229,-5.1229,-5.1229,-5.1229,-5.1229,-5.1229,-5.1229,-5.1229,-5.1229,-5.1229,-5.1229,-5.1304,-5.1498,-5.1828,-5.2142,-5.283,-5.3668,-5.403,-5.3467,-5.34,-5.2986,-5.2456,-5.2475,-5.2459,-5.2473,-5.2608,-5.2638,-5.2655,-5.4195,-5.4775,-5.4775,-5.5334,-5.6017,-5.6415,-5.6051,-5.6304,-5.6586,-5.6757,-5.6757,-5.6757,-5.6757,-5.6757,-5.6719,-5.6719,-5.6697,-5.6697,-5.6697,-5.6697,-5.6697,-5.6697,-5.6697,-5.6697,-5.6697,-5.6697,-5.6547,-5.6282,-5.6183,-5.6216,-5.6266,-5.6067,-5.6266,-5.6448,-5.6498,-5.6282,-5.5868,-5.557,-5.5466,-5.5499,-5.5532,-5.5819,-5.6299,-5.6564,-5.6697,-5.6697,-5.6697,-5.6697,-5.6697,-5.6697,-5.6697,-5.6697,-5.6697,-5.6697,-5.6697,-5.6697,-5.6697,-5.6697,-5.6697,-5.6697,-5.6697,-5.6697,-5.6697,-5.6697,-5.668,-5.6641,-5.6234,-5.5644,-5.5156,-5.4575,-5.3782,-5.2966,-5.2713,-5.2713,-5.2713,-5.2713,-5.2713,-5.2669,-5.2443,-5.2307,-5.2094,-5.1756,-5.1416,-5.1261,-5.1229,-5.1229,-5.1229,-5.1229,-5.1229,-5.1229,-5.1229,-5.1229,-5.1229,-5.1229,-5.1229,-5.1229,-5.1229,-5.1229,-5.1319,-5.1394,-5.1513,-5.1813,-5.2157,-5.2875,-5.3152,-5.3351,-5.2887,-5.2556,-5.2426,-5.2426,-5.2691,-5.3185,-5.4146,-5.4427,-5.3997,-5.5421,-5.5603,-5.5367,-5.6051,-5.6432,-5.6531,-5.6569,-5.663,-5.6784,-5.6911,-5.7025,-5.7025,-5.6949,-5.6911,-5.6851,-5.6812,-5.6697,-5.6697,-5.6697,-5.6697,-5.6697,-5.6697,-5.6697,-5.6697,-5.6697,-5.6697,-5.6597,-5.6299,-5.6398,-5.6432,-5.6316,-5.6415,-5.6581,-5.668,-5.6697,-5.6514,-5.6051,-5.5752,-5.5648,-5.5615,-5.5599,-5.5632,-5.6266,-5.6697,-5.6697,-5.6697,-5.6697,-5.6697,-5.6697,-5.6697,-5.6697,-5.6697,-5.6697,-5.6697,-5.6697,-5.6697,-5.6697,-5.6697,-5.6697,-5.6697,-5.6697,-5.6697,-5.6697,-5.6697,-5.6697,-5.6603,-5.6156,-5.5564,-5.4893,-5.4322,-5.3537,-5.2758,-5.2713,-5.2713,-5.2713,-5.2713,-5.2713,-5.2624,-5.2443,-5.2216,-5.2048,-5.1803,-5.1463,-5.1261,-5.1229,-5.1229,-5.1229,-5.1229,-5.1229,-5.1229,-5.1229,-5.1229,-5.1229,-5.1229,-5.1229,-5.1229,-5.1229,-5.1229,-5.1229,-5.1289,-5.1364,-5.1483,-5.1828,-5.2261,-5.2658,-5.292,-5.2556,-5.2558,-5.2837,-5.3102,-5.3616,-5.4258,-5.4659,-5.4593,-5.4692,-5.5762,-5.6148,-5.5866,-5.6511,-5.6932,-5.6932,-5.6954,-5.6992,-5.7067,-5.7084,-5.716,-5.7214,-5.7101,-5.7004,-5.6927,-5.6851,-5.6697,-5.6697,-5.6697,-5.6697,-5.6697,-5.6697,-5.6697,-5.6697,-5.6697,-5.6697,-5.6547,-5.6398,-5.6382,-5.6316,-5.6266,-5.6448,-5.6581,-5.668,-5.6697,-5.6663,-5.615,-5.6067,-5.6051,-5.6051,-5.6051,-5.6067,-5.6481,-5.668,-5.6697,-5.6697,-5.6697,-5.6697,-5.6697,-5.6697,-5.6697,-5.6697,-5.6697,-5.6697,-5.6697,-5.6697,-5.6697,-5.6697,-5.6697,-5.6697,-5.6697,-5.6697,-5.6697,-5.6697,-5.6697,-5.6352,-5.5981,-5.5361,-5.4659,-5.3911,-5.3129,-5.2713,-5.2713,-5.2713,-5.2713,-5.2713,-5.2713,-5.2608,-5.2473,-5.2261,-5.2048,-5.1849,-5.1602,-5.1416,-5.1229,-5.1229,-5.1229,-5.1229,-5.1229,-5.1229,-5.1229,-5.1229,-5.1229,-5.1229,-5.1229,-5.1229,-5.1229,-5.1229,-5.1229,-5.1229,-5.1274,-5.1334,-5.1468,-5.1962,-5.2409,-5.2442,-5.2409,-5.2821,-5.3549,-5.4043,-5.4771,-5.5483,-5.4411,-5.4013,-5.4779,-5.5663,-5.6088,-5.6125,-5.6788,-5.7197,-5.7214,-5.7214,-5.7252,-5.7327,-5.7327,-5.7348,-5.7289,-5.7139,-5.7063,-5.6949,-5.6834,-5.6697,-5.6697,-5.6697,-5.6697,-5.6697,-5.6697,-5.6697,-5.6697,-5.6697,-5.6697,-5.6647,-5.6597,-5.6597,-5.663,-5.6663,-5.6697,-5.668,-5.6697,-5.6697,-5.6697,-5.6663,-5.6697,-5.668,-5.6663,-5.6614,-5.6614,-5.663,-5.668,-5.6697,-5.6697,-5.6697,-5.6697,-5.6697,-5.6697,-5.6697,-5.6697,-5.6697,-5.6697,-5.6697,-5.6697,-5.6697,-5.6697,-5.6697,-5.6697,-5.6697,-5.6697,-5.6697,-5.6697,-5.6697,-5.6525,-5.5901,-5.5033,-5.428,-5.3449,-5.2743,-5.2713,-5.2713,-5.2713,-5.2713,-5.2713,-5.2713,-5.2669,-5.2518,-5.2291,-5.2078,-5.1895,-5.1695,-5.1369,-5.1229,-5.1229,-5.1229,-5.1229,-5.1229,-5.1229,-5.1229,-5.1229,-5.1229,-5.1229,-5.1229,-5.1229,-5.1229,-5.1229,-5.1229,-5.1229,-5.1229,-5.1259,-5.1304,-5.1693,-5.2409,-5.2409,-5.2409,-5.3086,-5.4113,-5.3831,-5.4792,-5.6299,-5.5655,-5.5381,-5.5734,-5.6433,-5.6646,-5.6415,-5.6971,-5.7364,-5.7327,-5.7402,-5.7402,-5.7476,-5.7514,-5.7514,-5.7476,-5.7289,-5.7139,-5.6987,-5.6834,-5.6697,-5.6697,-5.6697,-5.6697,-5.6697,-5.6697,-5.6697,-5.6697,-5.6697,-5.6697,-5.6697,-5.6697,-5.6697,-5.6697,-5.6697,-5.6697,-5.6697,-5.6697,-5.6697,-5.6697,-5.6697,-5.6697,-5.668,-5.668,-5.668,-5.668,-5.6697,-5.6697,-5.6697,-5.6697,-5.6697,-5.6697,-5.6697,-5.6697,-5.6697,-5.6697,-5.6697,-5.6697,-5.6697,-5.6697,-5.6697,-5.6697,-5.6697,-5.6697,-5.6697,-5.6697,-5.6697,-5.6697,-5.6697,-5.6697,-5.5741,-5.4742,-5.3954,-5.3069,-5.2788,-5.2713,-5.2713,-5.2713,-5.2713,-5.2713,-5.2713,-5.2713,-5.2608,-5.2382,-5.217,-5.2033,-5.1803,-5.1416,-5.1229,-5.1229,-5.1229,-5.1229,-5.1229,-5.1229,-5.1229,-5.1229,-5.1229,-5.1229,-5.1229,-5.1229,-5.1229,-5.1229,-5.1229,-5.1229,-5.1229,-5.1229,-5.1259,-5.1648,-5.2409,-5.2442,-5.2721,-5.352,-5.4489,-5.4522,-5.546,-5.672,-5.6742,-5.665,-5.6683,-5.7146,-5.7204,-5.6835,-5.7362,-5.7551,-5.7551,-5.7604,-5.7662,-5.7698,-5.7698,-5.7662,-5.7551,-5.7402,-5.7176,-5.697,-5.6796,-5.6697,-5.6697,-5.6697,-5.6697,-5.6697,-5.6697,-5.6697,-5.6697,-5.6697,-5.6697,-5.6697,-5.6697,-5.6697,-5.6697,-5.6697,-5.6697,-5.6697,-5.6697,-5.6697,-5.6697,-5.6697,-5.6697,-5.6697,-5.6697,-5.6697,-5.6697,-5.6697,-5.6697,-5.6697,-5.6697,-5.6697,-5.6697,-5.6697,-5.6697,-5.6697,-5.6697,-5.6697,-5.6697,-5.6697,-5.6697,-5.6697,-5.6697,-5.6697,-5.6697,-5.6697,-5.6697,-5.6697,-5.6697,-5.6697,-5.6313,-5.562,-5.4909,-5.4364,-5.3493,-5.2758,-5.2713,-5.2713,-5.2713,-5.2713,-5.2713,-5.2713,-5.2713,-5.2713,-5.2488,-5.2261,-5.2124,-5.188,-5.1541,-5.1308,-5.1229,-5.1229,-5.1229,-5.1229,-5.1229,-5.1229,-5.1229,-5.1229,-5.1229,-5.1229,-5.1229,-5.1229,-5.1229,-5.1229,-5.1229,-5.1229,-5.1229,-5.1229,-5.1468,-5.2409,-5.2473,-5.3138,-5.3941,-5.4855,-5.5588,-5.6417,-5.7206,-5.7497,-5.7554,-5.752,-5.7591,-5.7625,-5.7698,-5.7808,-5.7845,-5.7881,-5.7808,-5.7845,-5.7881,-5.7881,-5.7698,-5.7514,-5.7348,-5.716,-5.6949,-5.6757,-5.6719,-5.6697,-5.6697,-5.6697,-5.6697,-5.6697,-5.6697,-5.6697,-5.6697,-5.6697,-5.6697,-5.6697,-5.6697,-5.6697,-5.6697,-5.6697,-5.6697,-5.6697,-5.6697,-5.6697,-5.6697,-5.6697,-5.6697,-5.6697,-5.6697,-5.6697,-5.6697,-5.6697,-5.6697,-5.6697,-5.6697,-5.6697,-5.6697,-5.6697,-5.6697,-5.6697,-5.6697,-5.6697,-5.6697,-5.6697,-5.6697,-5.6697,-5.6697,-5.6697,-5.6697,-5.6697,-5.6697,-5.6697,-5.6486,-5.5941,-5.5418,-5.495,-5.4491,-5.3667,-5.2758,-5.2713,-5.2713,-5.2713,-5.2713,-5.2713,-5.2713,-5.2713,-5.2713,-5.2578,-5.2352,-5.217,-5.1926,-5.1618,-5.1401,-5.1229,-5.1229,-5.1229,-5.1229,-5.1229,-5.1229,-5.1229,-5.1229,-5.1229,-5.1229,-5.1229,-5.1229,-5.1229,-5.1229,-5.1229,-5.1229,-5.1229,-5.1229,-5.1229,-5.2499,-5.2475,-5.3299,-5.4086,-5.4925,-5.577,-5.6583,-5.7243,-5.7514,-5.7588,-5.7662,-5.7772,-5.7845,-5.7845,-5.7881,-5.7881,-5.7881,-5.7881,-5.7881,-5.7881,-5.7881,-5.7662,-5.7439,-5.7252,-5.7063,-5.6872,-5.6719,-5.6719,-5.6697,-5.6697,-5.6697,-5.6697,-5.6697,-5.6697,-5.6697,-5.6697,-5.6697,-5.6697,-5.6697,-5.6697,-5.6697,-5.6697,-5.6697,-5.6697,-5.6697,-5.6697,-5.6697,-5.6697,-5.6697,-5.6697,-5.6697,-5.6697,-5.6697,-5.6697,-5.6697,-5.6697,-5.6697,-5.6697,-5.6697,-5.6697,-5.6697,-5.6697,-5.6697,-5.6697,-5.6697,-5.6697,-5.6697,-5.6697,-5.6697,-5.6697,-5.6697,-5.6697,-5.6697,-5.6697,-5.6697,-5.6037,-5.5418,-5.495,-5.4533,-5.3868,-5.3129,-5.2713,-5.2713,-5.2713,-5.2713,-5.2713,-5.2713,-5.2713,-5.2713,-5.2669,-5.2669,-5.2488,-5.2261,-5.1926,-5.1634,-5.1354,-5.1229,-5.1229,-5.1229,-5.1229,-5.1229,-5.1229,-5.1229,-5.1229,-5.1229,-5.1229,-5.1229,-5.1229,-5.1229,-5.1229,-5.1229,-5.1229,-5.1229,-5.1229,-5.1229]},{"header":{"parameterUnit":"m.s-1","parameterCategory":1,"la1":31.0,"la2":29.5877,"lo1":-88.7671,"lo2":-86.6584,"dx":0.0162,"dy":0.0185,"nx":115,"ny":88,"refTime":"2022-12-31T12:00:00:Z","depth":0,"parameterNumber":3,"parameterNumberName":"V-component_of_WINDS"},"data":[0.0,0.0,0.0,0.0,0.0,0.0,0.0,0.0,0.0,0.0,0.0,0.0,0.0,0.0,0.0,0.0,0.0,0.0,0.0,0.0,0.0,0.0,0.0,0.0,0.0,0.0,0.0,0.0,0.0,0.0,0.0,0.0,0.0,0.0,0.0,0.0,0.0,0.0,0.0,0.0,0.0,0.0,0.0,0.0,0.0,0.0,0.0,0.0,0.0,0.0,0.0,0.0,0.0,0.0,0.0,0.0,0.0,0.0,0.0,0.0,0.0,0.0,0.0,0.0,0.0,0.0,0.0,0.0,0.0,0.0,0.0,0.0,0.0,0.0,0.0,0.0,0.0,0.0,0.0,0.0,0.0,0.0,0.0,0.0,0.0,0.0,0.0,0.0,0.0,0.0,0.0,0.0,0.0,0.0,0.0,0.0,0.0,0.0,0.0,0.0,0.0,0.0,0.0,0.0,0.0,0.0,0.0,0.0,0.0,0.0,0.0,0.0,0.0,0.0,0.0,0.0,0.0,0.0,0.0,0.0,0.0,0.0,0.0,0.0,0.0,0.0,0.0,0.0,0.0,0.0,0.0,0.0,0.0,0.0,0.0,0.0,0.0,0.0,0.0,0.0,0.0,0.0,0.0,0.0,0.0,0.0,0.0,0.0,0.0,0.0,0.0,0.0,0.0,0.0,0.0,0.0,0.0,0.0,0.0,0.0,0.0,0.0,0.0,0.0,0.0,0.0,0.0,0.0,0.0,0.0,0.0,0.0,0.0,0.0,0.0,0.0,0.0,0.0,0.0,0.0,0.0,0.0,0.0,0.0,0.0,0.0,0.0,0.0,0.0,0.0,0.0,0.0,0.0,0.0,0.0,0.0,0.0,0.0,0.0,0.0,0.0,0.0,0.0,0.0,0.0,0.0,0.0,0.0,0.0,0.0,0.0,0.0,0.0,0.0,0.0,0.0,0.0,0.0,0.0,0.0,0.0,0.0,0.0,0.0,0.0,0.0,0.0,0.0,0.0,0.0,0.0,0.0,0.0,0.0,0.0,0.0,0.0,0.0,0.0,0.0,0.0,0.0,0.0,0.0,0.0,0.0,0.0,0.0,0.0,0.0,0.0,0.0,0.0,0.0,0.0,0.0,0.0,0.0,0.0,0.0,0.0,0.0,0.0,0.0,0.0,0.0,0.0,0.0,0.0,0.0,0.0,0.0,0.0,0.0,0.0,0.0,0.0,0.0,0.0,0.0,0.0,0.0,0.0,0.0,0.0,0.0,0.0,0.0,0.0,0.0,0.0,0.0,0.0,0.0,0.0,0.0,0.0,0.0,0.0,0.0,0.0,0.0,0.0,0.0,0.0,0.0,0.0,0.0,0.0,0.0,0.0,0.0,0.0,0.0,0.0,0.0,0.0,0.0,0.0,0.0,0.0,0.0,0.0,0.0,0.0,0.0,0.0,0.0,0.0,0.0,0.0,0.0,0.0,0.0,0.0,0.0,0.0,0.0,0.0,0.0,0.0,0.0,0.0,0.0,0.0,0.0,0.0,0.0,0.0,0.0,0.0,0.0,0.0,0.0,0.0,0.0,0.0,0.0,0.0,0.0,0.0,0.0,0.0,0.0,0.0,0.0,0.0,0.0,0.0,0.0,0.0,0.0,0.0,0.0,0.0,0.0,0.0,0.0,0.0,0.0,0.0,0.0,0.0,0.0,0.0,0.0,0.0,0.0,0.0,0.0,0.0,0.0,0.0,0.0,0.0,0.0,0.0,0.0,0.0,0.0,0.0,0.0,0.0,0.0,0.0,0.0,0.0,0.0,0.0,0.0,0.0,0.0,0.0,0.0,0.0,0.0,0.0,0.0,0.0,0.0,0.0,0.0,0.0,0.0,0.0,0.0,0.0,0.0,0.0,0.0,0.0,0.0,0.0,0.0,0.0,0.0,0.0,0.0,0.0,0.0,0.0,0.0,0.0,0.0,0.0,0.0,0.0,0.0,0.0,0.0,0.0,0.0,0.0,0.0,0.0,0.0,0.0,0.0,0.0,0.0,0.0,0.0,0.0,0.0,0.0,0.0,0.0,0.0,0.0,0.0,0.0,0.0,0.0,0.0,0.0,0.0,0.0,0.0,0.0,0.0,0.0,0.0,0.0,0.0,0.0,0.0,0.0,0.0,0.0,0.0,0.0,0.0,0.0,0.0,0.0,0.0,0.0,0.0,0.0,0.0,0.0,0.0,0.0,0.0,0.0,0.0,0.0,0.0,0.0,0.0,0.0,0.0,0.0,0.0,0.0,0.0,0.0,0.0,0.0,0.0,0.0,0.0,0.0,0.0,0.0,0.0,0.0,0.0,0.0,0.0,0.0,0.0,0.0,0.0,0.0,0.0,0.0,0.0,0.0,0.0,0.0,0.0,0.0,0.0,0.0,0.0,0.0,0.0,0.0,0.0,0.0,0.0,0.0,0.0,0.0,0.0,0.0,0.0,0.0,0.0,0.0,0.0,0.0,0.0,0.0,0.0,0.0,0.0,0.0,0.0,0.0,0.0,0.0,0.0,0.0,0.0,0.0,0.0,0.0,0.0,0.0,0.0,0.0,0.0,0.0,0.0,0.0,0.0,0.0,0.0,0.0,0.0,0.0,0.0,0.0,0.0,0.0,0.0,0.0,0.0,0.0,0.0,0.0,0.0,0.0,0.0,0.0,0.0,0.0,0.0,0.0,0.0,0.0,0.0,0.0,0.0,0.0,0.0,0.0,0.0,0.0,0.0,0.0,0.0,0.0,0.0,0.0,0.0,0.0,0.0,0.0,0.0,0.0,0.0,0.0,0.0,0.0,0.0,0.0,0.0,0.0,0.0,0.0,0.0,0.0,0.0,0.0,0.0,0.0,0.0,0.0,0.0,0.0,0.0,0.0,0.0,0.0,0.0,0.0,0.0,0.0,0.0,0.0,0.0,0.0,0.0,0.0,0.0,0.0,0.0,0.0,0.0,0.0,0.0,0.0,0.0,0.0,0.0,0.0,0.0,0.0,0.0,0.0,0.0,0.0,0.0,0.0,0.0,0.0,0.0,0.0,0.0,0.0,0.0,0.0,0.0,0.0,0.0,0.0,0.0,0.0,0.0,0.0,0.0,0.0,0.0,0.0,0.0,0.0,0.0,0.0,0.0,0.0,0.0,0.0,0.0,0.0,0.0,0.0,0.0,0.0,0.0,0.0,0.0,0.0,0.0,0.0,0.0,0.0,0.0,0.0,0.0,0.0,0.0,0.0,0.0,0.0,0.0,0.0,0.0,0.0,0.0,0.0,0.0,0.0,0.0,0.0,0.0,0.0,0.0,0.0,0.0,0.0,0.0,0.0,0.0,0.0,0.0,0.0,0.0,0.0,0.0,0.0,0.0,0.0,0.0,0.0,0.0,0.0,0.0,0.0,0.0,0.0,0.0,0.0,0.0,0.0,0.0,0.0,0.0,0.0,0.0,0.0,0.0,0.0,0.0,0.0,0.0,0.0,0.0,0.0,0.0,0.0,0.0,0.0,0.0,0.0,0.0,0.0,0.0,0.0,0.0,0.0,0.0,0.0,0.0,0.0,0.0,0.0,0.0,0.0,0.0,0.0,0.0,0.0,0.0,0.0,0.0,0.0,0.0,0.0,0.0,0.0,0.0,0.0,0.0,0.0,0.0,0.0,0.0,0.0,0.0,0.0,0.0,0.0,0.0,0.0,0.0,0.0,0.0,0.0,0.0,0.0,0.0,0.0,0.0,0.0,0.0,0.0,0.0,0.0,0.0,0.0,0.0,0.0,0.0,0.0,0.0,0.0,0.0,0.0,0.0,0.0,0.0,0.0,0.0,0.0,0.0,0.0,0.0,0.0,0.0,0.0,0.0,0.0,0.0,0.0,0.0,0.0,0.0,0.0,0.0,0.0,0.0,0.0,0.0,0.0,0.0,0.0,0.0,0.0,0.0,0.0,0.0,0.0,0.0,0.0,0.0,0.0,0.0,0.0,0.0,0.0,0.0,0.0,0.0,0.0,0.0,0.0,0.0,0.0,0.0,0.0,0.0,0.0,0.0,0.0,0.0,0.0,0.0,0.0,0.0,0.0,0.0,0.0,0.0,0.0,0.0,0.0,0.0,0.0,0.0,0.0,0.0,0.0,0.0,0.0,0.0,0.0,0.0,0.0,0.0,0.0,0.0,0.0,0.0,0.0,0.0,0.0,0.0,0.0,0.0,0.0,0.0,0.0,0.0,0.0,0.0,0.0,0.0,0.0,0.0,1.2602,0.0,0.0,0.0,1.2371,0.0,0.0,0.0,0.0,0.0,0.0,0.0,0.0,0.0,0.0,0.0,0.0,0.0,0.0,0.0,0.0,0.0,0.0,0.0,0.0,0.0,0.0,0.0,0.0,0.0,0.0,0.0,0.0,0.0,0.0,0.0,0.0,0.0,0.0,0.0,0.0,0.0,0.0,0.0,0.0,0.0,0.0,0.0,0.0,0.0,0.0,0.0,0.0,0.0,0.0,0.0,0.0,0.0,0.0,0.0,0.0,0.0,0.0,0.0,0.0,0.0,0.0,0.0,0.0,0.0,0.0,0.0,0.0,0.0,0.0,0.0,0.0,0.0,0.0,0.0,0.0,0.0,0.0,0.0,0.0,0.0,0.0,0.0,0.0,0.0,0.0,0.0,0.0,0.0,0.0,0.0,0.0,0.0,0.0,0.0,0.0,0.0,0.0,0.0,0.0,0.0,0.0,0.0,0.0,0.0,0.0,0.0,0.0,0.0,0.0,1.2773,1.1952,1.3531,1.3684,1.2187,0.0,0.0,0.0,0.0,0.0,0.0,0.0,0.0,0.0,0.0,0.0,0.0,0.0,0.0,0.0,0.0,0.0,0.0,0.0,0.0,0.0,0.0,0.0,0.0,0.0,0.0,0.0,0.0,0.0,0.0,0.0,0.0,0.0,0.0,0.0,0.0,0.0,0.0,0.0,0.0,0.0,0.0,0.0,0.0,0.0,0.0,0.0,0.0,0.0,0.0,0.0,0.0,0.0,0.0,0.0,0.0,0.0,0.0,0.0,0.0,0.0,0.0,0.0,0.0,0.0,0.0,0.0,0.0,0.0,0.0,0.0,0.0,0.0,0.0,0.0,0.0,0.0,0.0,0.0,0.0,0.0,0.0,0.0,0.0,0.0,0.0,0.0,0.0,0.0,0.0,0.0,0.0,0.0,0.0,0.0,0.0,0.0,0.0,0.0,0.0,0.0,0.0,0.0,0.0,0.0,0.0,0.0,0.0,0.0,0.0,0.0,0.0,1.4032,1.4182,1.2792,0.0,0.0,0.0,0.0,0.0,0.0,0.0,0.0,0.0,0.0,0.0,0.0,0.0,0.0,0.0,0.0,0.0,0.0,0.0,0.0,0.0,0.0,0.0,0.0,0.0,0.0,0.0,0.0,0.0,0.0,0.0,0.0,0.0,0.0,0.0,0.0,0.0,0.0,0.0,0.0,0.0,0.0,0.0,0.0,0.0,0.0,0.0,0.0,0.0,0.0,0.0,0.0,0.0,0.0,0.0,0.0,0.0,0.0,0.0,0.0,0.0,0.0,0.0,0.0,0.0,0.0,0.0,0.0,0.0,0.0,0.0,0.0,0.0,0.0,0.0,0.0,0.0,0.0,0.0,0.0,0.0,0.0,0.0,0.0,0.0,0.0,0.0,0.0,0.0,0.0,0.0,0.0,0.0,0.0,0.0,0.0,0.0,0.0,0.0,0.0,0.0,0.0,0.0,0.0,0.0,0.0,0.0,0.0,0.0,0.0,1.2394,1.3776,1.4011,0.0,1.4437,0.0,0.0,0.0,0.0,0.0,0.0,0.0,0.0,0.0,0.0,0.0,0.0,0.0,0.0,0.0,0.0,0.0,0.0,0.0,0.0,0.0,0.0,0.0,0.0,0.0,0.0,0.0,0.0,0.0,0.0,0.0,0.0,0.0,0.0,0.0,0.0,0.0,0.0,0.0,0.0,0.0,0.0,0.0,0.0,0.0,0.0,0.0,0.0,0.0,0.0,0.0,0.0,0.0,0.0,0.0,0.0,0.0,0.0,0.0,0.0,0.0,0.0,0.0,0.0,0.0,0.0,0.0,0.0,0.0,0.0,0.0,0.0,0.0,0.0,0.0,0.0,0.0,0.0,0.0,0.0,0.0,0.0,0.0,0.0,0.0,0.0,0.0,0.0,0.0,0.0,0.0,0.0,0.0,0.0,0.0,0.0,0.0,0.0,0.0,0.0,0.0,0.0,0.0,0.0,0.0,0.0,0.0,0.0,0.0,0.0,1.3167,1.4429,1.4485,1.4588,0.0,0.0,0.0,0.0,0.0,0.0,0.0,0.0,0.0,0.0,0.0,0.0,0.0,0.0,0.0,0.0,0.0,0.0,0.0,0.0,0.0,0.0,0.0,0.0,0.0,0.0,0.0,0.0,0.0,0.0,0.0,0.0,0.0,0.0,0.0,0.0,0.0,0.0,0.0,0.0,0.0,0.0,0.0,0.0,0.0,0.0,0.0,0.0,0.0,0.0,0.0,0.0,0.0,0.0,0.0,0.0,0.0,0.0,0.0,0.0,0.0,0.0,0.0,0.0,0.0,0.0,0.0,0.0,0.0,0.0,0.0,0.0,0.0,0.0,0.0,0.0,0.0,0.0,0.0,0.0,0.0,0.0,0.0,0.0,0.0,0.0,0.0,0.0,0.0,0.0,0.0,0.0,0.0,0.0,0.0,0.0,0.0,0.0,0.0,0.0,0.0,0.0,0.0,0.0,0.0,0.0,0.0,0.0,0.0,0.0,1.2828,1.3856,1.5007,1.4948,1.4755,1.4532,0.0,0.0,0.0,0.0,0.0,0.0,0.0,0.0,0.0,0.0,0.0,0.0,0.0,0.0,0.0,0.0,0.0,0.0,0.0,0.0,0.0,0.0,0.0,0.0,0.0,0.0,0.0,0.0,0.0,0.0,0.0,0.0,0.0,0.0,0.0,0.0,0.0,0.0,0.0,0.0,0.0,0.0,0.0,0.0,0.0,0.0,0.0,0.0,0.0,0.0,0.0,0.0,0.0,0.0,0.0,0.0,0.0,0.0,0.0,0.0,0.0,0.0,0.0,0.0,0.0,0.0,0.0,0.0,0.0,0.0,0.0,0.0,0.0,0.0,0.0,0.0,0.0,0.0,0.0,0.0,0.0,0.0,0.0,0.0,0.0,0.0,0.0,0.0,0.0,0.0,0.0,0.0,0.0,0.0,0.0,0.0,0.0,0.0,0.0,0.0,0.0,0.0,0.0,0.0,0.0,0.0,0.0,0.0,1.4537,1.3912,1.4233,1.5708,1.5329,1.4614,0.0,0.0,0.0,0.0,0.0,0.0,0.0,0.0,0.0,0.0,0.0,0.0,0.0,0.0,0.0,0.0,0.0,0.0,0.0,0.0,0.0,0.0,0.0,0.0,0.0,0.0,0.0,0.0,0.0,0.0,0.0,0.0,0.0,0.0,0.0,0.0,0.0,0.0,0.0,0.0,0.0,0.0,0.0,0.0,0.0,0.0,0.0,0.0,0.0,0.0,0.0,0.0,0.0,0.0,0.0,0.0,0.0,0.0,0.0,0.0,0.0,0.0,0.0,0.0,0.0,0.0,0.0,0.0,0.0,0.0,0.0,0.0,0.0,0.0,0.0,0.0,0.0,0.0,0.0,0.0,0.0,0.0,0.0,0.0,0.0,0.0,0.0,0.0,0.0,0.0,0.0,0.0,0.0,0.0,0.0,0.0,0.0,0.0,0.0,0.0,0.0,0.0,0.0,0.0,0.0,0.0,0.0,0.0,0.0,1.2002,1.3071,1.4683,1.6701,1.5156,1.4453,0.0,0.0,0.0,0.0,0.0,0.0,0.0,0.0,0.0,0.0,0.0,0.0,0.0,0.0,0.0,0.0,0.0,0.0,0.0,0.0,0.0,0.0,0.0,0.0,0.0,0.0,0.0,0.0,0.0,0.0,0.0,0.0,0.0,0.0,0.0,0.0,0.0,0.0,0.0,0.0,0.0,0.0,0.0,0.0,0.0,0.0,0.0,0.0,0.0,0.0,0.0,0.0,0.0,0.0,0.0,0.0,0.0,0.0,0.0,0.0,0.0,0.0,0.0,0.0,0.0,0.0,0.0,0.0,0.0,0.0,0.0,0.0,0.0,0.0,0.0,0.0,0.0,0.0,0.0,0.0,0.0,0.0,0.0,0.0,0.0,0.0,0.0,0.0,0.0,0.0,0.0,0.0,0.0,0.0,0.0,0.0,0.0,0.0,0.0,0.0,0.0,0.0,0.0,0.0,0.0,0.0,0.0,0.0,0.0,1.2157,1.4421,1.6076,1.6832,1.5248,1.4328,0.0,0.0,0.0,0.0,0.0,0.0,0.0,0.0,0.0,0.0,0.0,0.0,0.0,0.0,0.0,0.0,0.0,0.0,0.0,0.0,0.0,0.0,0.0,0.0,0.0,0.0,0.0,0.0,0.0,0.0,0.0,0.0,0.0,0.0,0.0,0.0,0.0,0.0,0.0,0.0,0.0,0.0,0.0,0.0,0.0,0.0,0.0,0.0,0.0,0.0,0.0,0.0,0.0,0.0,0.0,0.0,0.0,0.0,0.0,0.0,0.0,0.0,0.0,0.0,0.0,0.0,0.0,0.0,0.0,0.0,0.0,0.0,0.0,0.0,0.0,0.0,0.0,0.0,0.0,0.0,0.0,0.0,0.0,0.0,0.0,0.0,0.0,0.0,0.0,0.0,0.0,0.0,0.0,0.0,0.0,0.0,0.0,0.0,0.0,0.0,0.0,0.0,0.0,0.0,0.0,0.0,0.0,0.0,1.1672,1.5647,1.8117,1.8265,1.6034,1.5647,1.4211,0.0,0.0,0.0,0.0,0.0,0.0,0.0,0.0,0.0,0.0,0.0,0.0,0.0,0.0,0.0,0.0,0.0,0.0,0.0,0.0,0.0,0.0,0.0,0.0,0.0,0.0,0.0,0.0,0.0,0.0,0.0,0.0,0.0,0.0,0.0,0.0,0.0,0.0,0.0,0.0,0.0,0.0,0.0,0.0,0.0,0.0,0.0,0.0,0.0,0.0,0.0,0.0,0.0,0.0,0.0,0.0,0.0,0.0,0.0,0.0,0.0,0.0,0.0,0.0,0.0,0.0,0.0,0.0,0.0,0.0,0.0,0.0,0.0,0.0,0.0,0.0,0.0,0.0,0.0,0.0,0.0,0.0,0.0,0.0,0.0,0.0,0.0,0.0,0.0,0.0,0.0,0.0,0.0,0.0,0.0,0.0,0.0,0.0,0.0,0.0,0.0,0.0,0.0,0.0,0.0,0.0,0.0,0.0,0.0,1.3441,1.666,1.8277,1.7847,1.6072,1.5147,0.0,0.0,0.0,0.0,0.0,0.0,0.0,0.0,0.0,0.0,0.0,0.0,0.0,0.0,0.0,0.0,0.0,0.0,0.0,0.0,0.0,0.0,0.0,0.0,0.0,0.0,0.0,0.0,0.0,0.0,0.0,0.0,0.0,0.0,0.0,0.0,0.0,0.0,0.0,0.0,0.0,0.0,0.0,0.0,0.0,0.0,0.0,0.0,0.0,0.0,0.0,0.0,0.0,0.0,0.0,0.0,0.0,0.0,0.0,0.0,0.0,0.0,0.0,0.0,0.0,0.0,0.0,0.0,0.0,0.0,0.0,0.0,0.0,0.0,0.0,0.0,0.0,0.0,0.0,0.0,0.0,0.0,0.0,0.0,0.0,0.0,0.0,0.0,0.0,0.0,0.0,0.0,0.0,0.0,0.0,0.0,0.0,0.0,0.0,0.0,0.0,0.0,0.0,0.0,0.0,0.0,0.0,0.0,0.0,1.555,1.8697,2.014,1.9429,1.7483,1.6366,1.6222,0.0,0.0,0.0,0.0,0.0,0.0,0.0,0.0,0.0,0.0,0.0,0.0,0.0,0.0,0.0,0.0,0.0,0.0,0.0,0.0,0.0,0.0,0.0,0.0,0.0,0.0,0.0,0.0,0.0,0.0,0.0,0.0,0.0,0.0,0.0,0.0,0.0,0.0,0.0,0.0,0.0,0.0,0.0,0.0,0.0,0.0,0.0,0.0,0.0,0.0,0.0,0.0,0.0,0.0,0.0,0.0,0.0,0.0,0.0,0.0,0.0,0.0,0.0,0.0,0.0,0.0,0.0,0.0,0.0,0.0,0.0,0.0,0.0,0.0,0.0,0.0,0.0,0.0,0.0,0.0,0.0,0.0,0.0,0.0,0.0,0.0,0.0,0.0,0.0,0.0,0.0,0.0,0.0,0.0,0.0,0.0,0.0,0.0,0.0,0.0,0.0,0.0,0.0,0.0,0.0,0.0,0.0,0.0,2.0799,2.3484,2.3485,2.071,1.9645,1.7879,0.0,0.0,0.0,0.0,0.0,0.0,0.0,0.0,0.0,0.0,0.0,0.0,0.0,0.0,0.0,0.0,0.0,0.0,0.0,0.0,0.0,0.0,0.0,0.0,0.0,0.0,0.0,0.0,0.0,0.0,0.0,0.0,0.0,0.0,0.0,0.0,0.0,0.0,0.0,0.0,0.0,0.0,0.0,0.0,0.0,0.0,0.0,0.0,0.0,0.0,0.0,0.0,0.0,0.0,0.0,0.0,0.0,0.0,0.0,0.0,0.0,0.0,0.0,0.0,0.0,0.0,0.0,0.0,0.0,0.0,0.0,0.0,0.0,0.0,0.0,0.0,0.0,0.0,0.0,0.0,0.0,0.0,0.0,0.0,0.0,0.0,0.0,0.0,0.0,0.0,0.0,0.0,0.0,0.0,0.0,0.0,0.0,0.0,0.0,0.0,0.0,0.0,0.0,0.0,0.0,0.0,0.0,0.0,0.0,2.3045,2.5034,2.5109,2.3115,2.1616,2.0112,0.0,0.0,0.0,0.0,0.0,0.0,0.0,0.0,0.0,0.0,0.0,0.0,0.0,0.0,0.0,0.0,0.0,0.0,0.0,0.0,0.0,0.0,0.0,0.0,0.0,0.0,0.0,0.0,0.0,0.0,0.0,0.0,0.0,0.0,0.0,0.0,0.0,0.0,0.0,0.0,0.0,0.0,0.0,0.0,0.0,0.0,0.0,0.0,0.0,0.0,0.0,0.0,0.0,0.0,0.0,0.0,0.0,0.0,0.0,0.0,0.0,0.0,0.0,0.0,0.0,0.0,0.0,0.0,0.0,0.0,0.0,0.0,0.0,0.0,0.0,0.0,0.0,0.0,0.0,0.0,0.0,0.0,0.0,0.0,0.0,0.0,0.0,0.0,0.0,0.0,0.0,0.0,0.0,0.0,0.0,0.0,0.0,0.0,0.0,0.0,0.0,0.0,0.0,0.0,0.0,0.0,0.0,0.0,2.2143,2.5322,2.6587,2.6725,2.5749,2.3665,2.1681,0.0,0.0,0.0,0.0,0.0,0.0,0.0,0.0,0.0,0.0,0.0,0.0,0.0,0.0,0.0,0.0,0.0,0.0,0.0,0.0,0.0,0.0,0.0,0.0,0.0,0.0,0.0,0.0,0.0,0.0,0.0,0.0,0.0,0.0,0.0,0.0,0.0,0.0,0.0,0.0,0.0,0.0,0.0,0.0,0.0,0.0,0.0,0.0,0.0,0.0,0.0,0.0,0.0,0.0,0.0,0.0,0.0,0.0,0.0,0.0,0.0,0.0,0.0,0.0,0.0,0.0,0.0,0.0,0.0,0.0,0.0,0.0,0.0,0.0,0.0,0.0,0.0,0.0,0.0,0.0,0.0,0.0,0.0,0.0,0.0,0.0,0.0,0.0,0.0,0.0,0.0,0.0,0.0,0.0,0.0,0.0,0.0,0.0,0.0,0.0,0.0,0.0,0.0,0.0,0.0,0.0,0.0,0.0,2.4512,2.7241,2.7821,2.8109,2.8034,2.5498,2.2862,0.0,0.0,0.0,0.0,0.0,0.0,0.0,0.0,0.0,0.0,0.0,0.0,0.0,0.0,0.0,0.0,0.0,0.0,0.0,0.0,0.0,0.0,0.0,0.0,0.0,0.0,0.0,0.0,0.0,0.0,0.0,0.0,0.0,0.0,0.0,0.0,0.0,0.0,0.0,0.0,0.0,0.0,0.0,0.0,0.0,0.0,0.0,0.0,0.0,0.0,0.0,0.0,0.0,0.0,0.0,0.0,0.0,0.0,0.0,0.0,0.0,0.0,0.0,0.0,0.0,0.0,0.0,0.0,0.0,0.0,0.0,0.0,0.0,0.0,0.0,0.0,0.0,0.0,0.0,0.0,0.0,0.0,0.0,0.0,0.0,0.0,0.0,0.0,0.0,0.0,0.0,0.0,0.0,0.0,0.0,0.0,0.0,0.0,0.0,0.0,0.0,0.0,0.0,0.0,0.0,0.0,0.0,0.0,2.4868,2.7205,2.7821,2.8109,2.8097,2.5862,2.3923,0.0,0.0,0.0,0.0,0.0,0.0,0.0,0.0,0.0,0.0,0.0,0.0,0.0,0.0,0.0,0.0,0.0,0.0,0.0,0.0,0.0,0.0,0.0,0.0,0.0,0.0,0.0,0.0,0.0,0.0,0.0,0.0,0.0,0.0,0.0,0.0,0.0,0.0,0.0,0.0,0.0,0.0,0.0,0.0,0.0,0.0,0.0,0.0,1.4807,0.0,0.0,0.0,0.0,0.0,0.0,0.0,0.0,0.0,0.0,0.0,0.0,0.0,0.0,0.0,0.0,0.0,0.0,0.0,0.0,0.0,0.0,0.0,0.0,0.0,0.0,0.0,0.0,0.0,0.0,0.0,0.0,0.0,0.0,0.0,0.0,0.0,0.0,0.0,0.0,0.0,0.0,0.0,0.0,0.0,0.0,0.0,0.0,0.0,0.0,0.0,0.0,0.0,0.0,0.0,0.0,0.0,0.0,0.0,2.6054,2.7996,2.8612,2.89,2.8837,2.7243,2.5347,0.0,0.0,0.0,0.0,0.0,0.0,0.0,0.0,0.0,0.0,0.0,0.0,0.0,0.0,0.0,0.0,0.0,0.0,0.0,0.0,0.0,0.0,0.0,0.0,0.0,0.0,0.0,0.0,0.0,0.0,0.0,0.0,0.0,0.0,0.0,0.0,0.0,0.0,0.0,0.0,0.0,0.0,0.0,0.0,0.0,0.0,0.0,0.0,0.0,0.0,0.0,0.0,0.0,0.0,0.0,0.0,0.0,0.0,0.0,0.0,0.0,0.0,0.0,0.0,0.0,0.0,0.0,0.0,0.0,0.0,0.0,0.0,0.0,0.0,0.0,0.0,0.0,0.0,0.0,0.0,0.0,0.0,0.0,0.0,0.0,0.0,0.0,0.0,0.0,0.0,0.0,0.0,0.0,0.0,0.0,0.0,0.0,0.0,0.0,0.0,0.0,0.0,0.0,0.0,0.0,0.0,0.0,2.4412,2.7168,2.8825,2.949,2.9779,2.9779,2.8863,2.6804,2.3496,0.0,0.0,0.0,0.0,0.0,0.0,0.0,0.0,0.0,0.0,0.0,0.0,0.0,0.0,0.0,0.0,0.0,0.0,0.0,0.0,0.0,0.0,0.0,0.0,0.0,0.0,0.0,0.0,0.0,0.0,0.0,0.0,0.0,0.0,0.0,0.0,0.0,0.0,1.4808,1.6877,0.0,0.0,0.0,0.0,0.0,0.0,0.0,0.0,1.6508,0.0,0.0,0.0,0.0,0.0,0.0,0.0,0.0,0.0,0.0,0.0,0.0,0.0,0.0,0.0,0.0,0.0,0.0,0.0,0.0,0.0,0.0,0.0,0.0,0.0,0.0,0.0,0.0,0.0,0.0,0.0,0.0,0.0,0.0,0.0,0.0,0.0,0.0,0.0,0.0,0.0,0.0,0.0,0.0,0.0,0.0,0.0,0.0,0.0,0.0,0.0,0.0,0.0,0.0,0.0,0.0,2.3916,2.5146,2.6779,2.8838,2.949,2.9779,2.9779,2.9616,2.7946,2.465,0.0,0.0,0.0,0.0,0.0,0.0,0.0,0.0,0.0,0.0,0.0,0.0,0.0,0.0,0.0,0.0,0.0,0.0,0.0,0.0,0.0,0.0,0.0,0.0,0.0,0.0,0.0,0.0,0.0,0.0,0.0,0.0,0.0,0.0,0.0,0.0,0.0,0.0,0.0,2.0562,2.1518,0.0,0.0,0.0,0.0,0.0,0.0,0.0,0.0,1.6603,0.0,0.0,0.0,0.0,0.0,0.0,0.0,0.0,0.0,0.0,0.0,0.0,0.0,0.0,0.0,0.0,0.0,0.0,0.0,0.0,0.0,0.0,0.0,0.0,0.0,0.0,0.0,0.0,0.0,0.0,0.0,0.0,0.0,0.0,0.0,0.0,0.0,0.0,0.0,0.0,0.0,0.0,0.0,0.0,0.0,0.0,0.0,0.0,0.0,0.0,0.0,0.0,0.0,0.0,0.0,2.3452,2.6314,2.8285,2.934,2.9641,2.9779,2.9779,2.9779,2.8097,0.0,0.0,0.0,0.0,0.0,0.0,0.0,0.0,0.0,0.0,0.0,0.0,0.0,0.0,0.0,0.0,0.0,0.0,0.0,0.0,0.0,0.0,0.0,0.0,0.0,0.0,0.0,0.0,0.0,0.0,0.0,0.0,0.0,0.0,0.0,0.0,0.0,0.0,0.0,0.0,2.1645,2.2559,2.3516,0.0,0.0,0.0,0.0,0.0,0.0,1.8784,1.7557,0.0,0.0,0.0,0.0,0.0,0.0,0.0,0.0,0.0,0.0,0.0,0.0,0.0,0.0,0.0,0.0,0.0,0.0,0.0,0.0,0.0,0.0,0.0,0.0,0.0,0.0,0.0,0.0,0.0,0.0,0.0,0.0,0.0,0.0,0.0,0.0,0.0,0.0,0.0,0.0,0.0,0.0,0.0,0.0,0.0,0.0,0.0,0.0,0.0,0.0,0.0,0.0,0.0,0.0,0.0,2.256,2.6967,2.9515,2.993,3.0068,3.0068,2.9955,2.9967,2.8134,0.0,0.0,0.0,0.0,0.0,0.0,0.0,0.0,0.0,0.0,0.0,0.0,0.0,0.0,0.0,0.0,0.0,0.0,0.0,0.0,0.0,0.0,0.0,0.0,0.0,0.0,0.0,0.0,0.0,0.0,0.0,0.0,0.0,0.0,0.0,0.0,0.0,0.0,0.0,0.0,0.0,2.3262,2.4613,2.3009,0.0,0.0,0.0,0.0,2.2376,2.1229,0.0,0.0,0.0,0.0,0.0,0.0,0.0,0.0,0.0,0.0,0.0,0.0,0.0,0.0,0.0,0.0,0.0,0.0,0.0,0.0,0.0,0.0,0.0,0.0,0.0,0.0,0.0,0.0,0.0,0.0,0.0,0.0,0.0,0.0,0.0,0.0,0.0,0.0,0.0,0.0,0.0,0.0,0.0,0.0,0.0,0.0,0.0,0.0,0.0,0.0,0.0,0.0,0.0,0.0,0.0,0.0,2.297,2.6025,2.8524,3.0432,3.0972,3.0997,3.0545,3.052,2.8699,0.0,0.0,0.0,0.0,0.0,0.0,0.0,0.0,0.0,0.0,0.0,0.0,0.0,0.0,0.0,0.0,0.0,0.0,0.0,0.0,0.0,0.0,0.0,0.0,0.0,0.0,0.0,0.0,0.0,0.0,0.0,0.0,0.0,0.0,0.0,0.0,0.0,0.0,0.0,0.0,0.0,2.4556,2.4247,2.3459,2.3463,0.0,0.0,2.4374,2.6694,2.6357,0.0,0.0,0.0,0.0,0.0,0.0,0.0,0.0,0.0,0.0,0.0,0.0,0.0,0.0,0.0,0.0,0.0,0.0,0.0,0.0,0.0,0.0,0.0,0.0,0.0,0.0,0.0,0.0,0.0,0.0,0.0,0.0,0.0,0.0,0.0,0.0,0.0,0.0,0.0,0.0,0.0,0.0,0.0,0.0,0.0,0.0,0.0,0.0,0.0,0.0,0.0,0.0,0.0,0.0,0.0,2.1317,2.3665,2.7582,3.008,3.1022,3.1273,3.1286,3.106,3.106,2.8938,0.0,0.0,0.0,0.0,0.0,0.0,0.0,0.0,0.0,0.0,0.0,0.0,0.0,0.0,0.0,0.0,0.0,0.0,0.0,0.0,0.0,0.0,0.0,0.0,0.0,0.0,0.0,0.0,0.0,0.0,0.0,0.0,0.0,0.0,0.0,0.0,0.0,0.0,0.0,0.0,0.0,0.0,2.7003,2.5767,0.0,0.0,0.0,2.6118,2.758,0.0,0.0,0.0,0.0,0.0,0.0,0.0,0.0,0.0,0.0,0.0,0.0,0.0,0.0,0.0,0.0,0.0,0.0,0.0,0.0,0.0,0.0,0.0,0.0,0.0,0.0,0.0,0.0,0.0,0.0,0.0,0.0,0.0,0.0,0.0,0.0,0.0,0.0,0.0,0.0,0.0,0.0,0.0,0.0,0.0,0.0,0.0,0.0,0.0,0.0,0.0,0.0,0.0,0.0,0.0,0.0,0.0,2.4054,2.9013,3.1599,3.1612,3.1725,3.1738,3.1599,3.1599,0.0,0.0,0.0,0.0,0.0,0.0,0.0,0.0,0.0,0.0,0.0,0.0,0.0,0.0,0.0,0.0,0.0,0.0,0.0,0.0,0.0,0.0,0.0,0.0,0.0,0.0,0.0,1.0399,0.0,0.0,0.0,0.0,0.0,0.0,0.0,0.0,0.0,0.0,0.0,0.0,0.0,0.0,2.6077,2.8982,2.8052,2.7931,0.0,0.0,2.8535,2.9507,2.9662,2.8846,0.0,0.0,0.0,0.0,0.0,0.0,0.0,0.0,0.0,0.0,0.0,0.0,0.0,0.0,0.0,0.0,0.0,0.0,0.0,0.0,0.0,0.0,0.0,0.0,0.0,0.0,0.0,0.0,0.0,0.0,0.0,0.0,0.0,0.0,0.0,0.0,0.0,0.0,0.0,0.0,0.0,0.0,0.0,0.0,0.0,0.0,0.0,0.0,0.0,0.0,0.0,0.0,0.0,0.0,2.2359,2.4117,2.939,3.2152,3.2177,3.2679,3.2704,3.2177,3.2152,2.9842,0.0,0.0,0.0,0.0,0.0,0.0,0.0,0.0,0.0,0.0,0.0,0.0,0.0,0.0,0.0,0.0,0.0,0.0,0.0,0.0,0.0,0.0,0.0,0.0,0.0,0.0,0.0,0.0,0.0,0.0,0.0,0.0,0.0,0.0,0.0,0.0,0.0,0.0,0.0,0.0,0.0,2.5925,2.841,2.9591,3.1059,0.0,0.0,3.2637,3.4401,3.4655,3.2911,2.7607,0.0,0.0,0.0,0.0,0.0,0.0,0.0,0.0,0.0,0.0,0.0,0.0,0.0,0.0,0.0,0.0,0.0,0.0,0.0,0.0,0.0,0.0,0.0,0.0,0.0,0.0,0.0,0.0,0.0,0.0,0.0,0.0,0.0,0.0,0.0,0.0,0.0,0.0,0.0,0.0,0.0,0.0,0.0,0.0,0.0,0.0,0.0,0.0,0.0,0.0,0.0,0.0,0.0,2.2824,2.4544,2.9942,3.2742,3.2754,3.2968,3.298,3.2754,3.2754,3.1047,0.0,0.0,0.0,0.0,0.0,0.0,0.0,0.0,0.0,0.0,0.0,0.0,0.0,0.0,0.0,0.0,0.0,0.0,0.0,0.0,0.0,0.0,0.0,0.0,0.0,0.0,0.0,0.0,1.6451,1.6524,1.564,0.0,0.0,0.0,0.0,0.0,0.0,0.0,0.0,0.0,0.0,2.8724,3.1129,3.1584,0.0,0.0,3.3761,3.348,3.4964,3.4247,3.2469,2.9529,2.8071,0.0,0.0,0.0,0.0,0.0,0.0,0.0,0.0,0.0,0.0,0.0,0.0,0.0,0.0,0.0,0.0,0.0,0.0,0.0,0.0,0.0,0.0,0.0,0.0,0.0,0.0,0.0,0.0,0.0,0.0,0.0,0.0,0.0,0.0,0.0,0.0,0.0,0.0,0.0,0.0,0.0,0.0,0.0,0.0,0.0,0.0,0.0,0.0,0.0,0.0,0.0,0.0,2.3346,2.5059,3.0344,3.3124,3.3124,3.3124,3.3124,3.3124,3.3124,3.1775,0.0,0.0,0.0,0.0,0.0,0.0,0.0,0.0,0.0,0.0,0.0,0.0,0.0,0.0,0.0,0.0,0.0,0.0,0.0,0.0,0.0,0.0,0.0,0.0,0.0,0.0,0.0,0.0,1.7804,1.7314,1.5563,0.0,0.0,0.0,0.0,0.0,0.0,0.0,0.0,0.0,0.0,3.0531,3.3122,3.3175,3.3533,3.5222,3.4239,3.3621,3.4514,3.3677,3.2364,3.075,0.0,0.0,0.0,0.0,0.0,0.0,0.0,0.0,0.0,0.0,0.0,0.0,0.0,0.0,0.0,0.0,0.0,0.0,0.0,0.0,0.0,0.0,0.0,0.0,0.0,0.0,0.0,1.2222,0.0,0.0,1.2238,0.0,0.0,0.0,0.0,0.0,0.0,0.0,0.0,0.0,0.0,0.0,0.0,0.0,0.0,0.0,0.0,0.0,0.0,0.0,0.0,0.0,0.0,2.3885,2.5598,3.0507,3.3124,3.3124,3.3124,3.3124,3.3124,3.3124,3.1763,2.895,0.0,0.0,0.0,0.0,0.0,0.0,0.0,0.0,0.0,0.0,0.0,0.0,0.0,0.0,0.0,0.0,0.0,0.0,0.0,0.0,0.0,0.0,0.0,0.0,0.0,0.0,1.4412,1.5193,1.5178,0.0,0.0,0.0,0.0,0.0,0.0,0.0,0.0,0.0,0.0,2.8347,3.0656,3.3687,3.418,3.4617,3.5853,3.4497,3.3333,3.3445,3.3796,3.3333,0.0,0.0,0.0,0.0,0.0,0.0,0.0,0.0,0.0,0.0,0.0,0.0,0.0,0.0,0.0,0.0,0.0,0.0,0.0,0.0,0.0,0.0,0.0,0.0,0.0,0.0,0.0,1.6203,1.5322,0.0,0.0,0.0,0.0,0.0,0.0,0.0,0.0,0.0,0.0,0.0,2.5084,2.6013,0.0,0.0,0.0,0.0,0.0,0.0,0.0,0.0,0.0,0.0,0.0,0.0,2.391,2.5737,3.0532,3.3124,3.3124,3.3124,3.3124,3.3124,3.3124,3.1599,2.8486,0.0,0.0,0.0,0.0,0.0,0.0,0.0,0.0,0.0,0.0,0.0,0.0,0.0,0.0,0.0,0.0,0.0,0.0,0.0,0.0,0.0,0.0,0.0,0.0,0.0,1.6329,0.0,0.0,0.0,0.0,0.0,0.0,0.0,0.0,0.0,0.0,0.0,2.5473,2.8173,3.0906,3.2999,3.4009,3.4848,3.5392,0.0,0.0,0.0,0.0,0.0,0.0,0.0,0.0,0.0,0.0,0.0,0.0,0.0,0.0,3.0126,2.5021,2.3248,2.2728,2.3336,0.0,0.0,0.0,0.0,0.0,0.0,0.0,0.0,0.0,0.0,0.0,0.0,0.0,0.0,1.9906,1.9028,1.9118,0.0,0.0,0.0,0.0,0.0,0.0,0.0,0.0,2.5737,2.7331,2.8235,2.9327,2.9264,0.0,2.7293,2.5247,0.0,0.0,0.0,0.0,0.0,0.0,0.0,0.0,2.4788,2.714,3.1022,3.3124,3.3124,3.3124,3.3124,3.3124,3.3124,3.2064,2.9905,2.8561,2.6841,0.0,0.0,0.0,0.0,0.0,0.0,0.0,0.0,0.0,0.0,0.0,0.0,0.0,0.0,0.0,0.0,0.0,0.0,0.0,0.0,0.0,0.0,0.0,1.7802,0.0,0.0,0.0,0.0,0.0,0.0,0.0,0.0,0.0,2.1325,2.4925,2.8238,3.0126,3.2352,3.3884,3.4066,0.0,0.0,0.0,0.0,0.0,0.0,0.0,3.196,3.2804,3.2007,3.1051,3.0413,3.2511,3.3902,3.2637,0.0,0.0,2.9535,2.7721,2.7186,2.7762,2.8102,2.8344,2.8482,2.96,3.057,0.0,0.0,0.0,0.0,0.0,0.0,0.0,0.0,2.3705,2.3529,0.0,2.3203,0.0,0.0,0.0,0.0,0.0,2.2711,0.0,0.0,3.0733,3.2453,3.3011,3.3023,3.3086,3.3086,3.2378,3.0758,2.8109,2.4462,0.0,0.0,0.0,0.0,0.0,0.0,2.6553,2.9679,3.1967,3.3124,3.3124,3.3124,3.3124,3.3124,3.3124,3.3099,3.2998,3.0482,2.8536,2.7341,2.2246,0.0,0.0,0.0,0.0,0.0,0.0,0.0,0.0,0.0,0.0,0.0,0.0,0.0,0.0,0.0,0.0,0.0,0.0,0.0,0.0,1.8707,0.0,0.0,0.0,0.0,0.0,0.0,0.0,0.0,0.0,0.0,2.4525,2.703,2.9817,3.1926,0.0,0.0,0.0,0.0,3.3617,3.4744,3.341,3.2526,3.308,3.3529,3.3859,3.3992,0.0,0.0,3.3868,3.5849,3.6609,3.3255,3.5041,3.7035,3.6827,3.4259,3.2665,3.3157,3.2806,3.275,3.341,3.4913,3.662,2.4425,0.0,0.0,0.0,0.0,2.3793,2.5262,2.7582,2.7865,2.7415,2.6459,2.6621,0.0,0.0,0.0,0.0,0.0,0.0,2.664,2.9302,3.0131,3.1399,3.3111,3.3124,3.3124,3.3111,3.2905,3.2428,3.1625,3.0545,2.6189,1.8958,0.0,0.0,0.0,0.0,2.8436,2.9829,3.1964,3.3124,3.3124,3.3124,3.3124,3.3124,3.3124,3.3124,3.3111,3.2303,3.0834,2.8549,2.6531,0.0,0.0,0.0,0.0,0.0,0.0,0.0,0.0,0.0,0.0,0.0,0.0,0.0,0.0,0.0,0.0,0.0,0.0,0.0,1.6321,1.9397,2.0426,0.0,0.0,0.0,0.0,0.0,0.0,0.0,0.0,0.0,2.8712,3.0193,3.165,0.0,0.0,3.431,3.4007,3.4533,3.4925,3.4773,3.4316,0.0,3.4817,3.3936,3.3816,3.5608,3.6543,3.6715,3.5871,3.6466,3.671,3.5588,3.6607,3.7552,3.7496,3.6582,3.5761,3.5883,3.5784,3.5869,3.6487,3.7217,3.7805,2.8273,2.7062,2.5484,2.5568,2.678,2.6912,2.8312,3.0503,3.0789,3.0468,2.9779,3.0002,2.8348,2.5352,2.4474,0.0,0.0,0.0,2.8637,3.1125,3.1097,3.18,3.3043,3.3307,3.3407,3.3395,3.3407,3.352,3.3734,3.3508,3.0118,2.3835,0.0,0.0,2.4079,2.7482,2.998,3.1411,3.293,3.3721,3.3734,3.3508,3.3451,3.3407,3.3194,3.3124,3.3124,3.3124,3.2303,3.0633,2.9202,2.7331,0.0,0.0,0.0,0.0,0.0,0.0,0.0,0.0,0.0,0.0,0.0,1.5191,1.2441,0.0,0.0,0.0,1.8239,1.956,2.0828,2.2962,0.0,0.0,0.0,0.0,0.0,0.0,0.0,2.7467,2.9616,3.1248,3.2127,3.2805,3.3345,3.3684,3.4362,3.4653,3.4268,0.0,3.5238,3.5014,3.5006,3.5264,3.5851,3.506,3.4904,3.6726,3.7042,3.7012,3.7063,3.7067,3.6987,3.6844,3.7077,3.746,3.7769,3.7537,3.7444,3.7697,3.7737,3.7903,3.8229,3.8299,3.8452,3.1306,3.1061,2.7414,2.7297,2.9419,2.9495,3.0614,3.245,3.2624,3.2766,3.2766,3.2982,3.1675,2.9176,2.7218,0.0,3.0181,3.0193,3.1273,3.3206,3.3262,3.325,3.3232,3.3721,3.396,3.3972,3.396,3.4223,3.4663,3.4198,3.2943,3.0972,2.9866,2.9251,2.9063,2.9817,3.1436,3.3922,3.4449,3.468,3.4668,3.4236,3.396,3.396,3.347,3.3219,3.3262,3.3169,3.3144,3.3056,3.0658,2.8787,2.772,0.0,0.0,0.0,0.0,0.0,0.0,0.0,0.0,0.0,0.0,0.0,0.0,0.0,0.0,2.1619,2.484,0.0,2.8449,2.7808,0.0,0.0,0.0,2.3459,2.3847,2.6527,2.8787,3.0043,0.0,0.0,3.4668,3.4788,3.4801,3.4851,3.4768,3.4788,3.4743,3.4851,3.5039,3.5508,3.5558,3.578,3.6263,3.6326,3.6573,3.7268,3.7511,3.7501,3.7437,3.7479,3.7299,3.6779,3.6707,3.6994,3.7679,3.7777,3.8059,3.8699,3.8848,3.8888,3.8958,3.8972,3.9056,3.1451,3.204,3.11,3.1176,3.1843,3.1843,3.2281,3.2939,3.2995,3.2995,3.3038,3.3081,3.293,3.2704,3.2604,3.2918,3.3545,3.3558,3.3822,3.4311,3.4336,3.4336,3.4336,3.4462,3.4525,3.4525,3.4525,3.4555,3.4713,3.4587,3.4261,3.3759,3.3427,3.2261,3.0382,3.2428,3.3859,3.4512,3.465,3.468,3.4713,3.46,3.4537,3.4537,3.4399,3.4336,3.4324,3.3922,3.3696,3.3684,3.2679,3.1964,3.1662,2.6264,0.0,0.0,0.0,0.0,0.0,0.0,0.0,0.0,0.0,2.0037,1.6019,0.0,2.137,0.0,2.7281,2.8122,2.5991,2.6703,0.0,0.0,2.6101,2.6527,3.0269,3.0306,3.0934,3.3282,3.4135,3.4693,3.5245,3.5307,3.5458,3.5893,3.5604,3.5307,3.5307,3.5717,3.6006,3.6144,3.6182,3.6267,3.6455,3.6769,3.7107,3.7225,3.7615,3.7599,3.6824,3.7015,3.7104,3.6641,3.6961,3.7313,3.7584,3.7975,3.8362,3.8573,3.8737,3.9057,3.9493,3.9564,3.9746,3.1905,3.2653,3.2698,3.3011,3.3419,3.3021,3.3033,3.3302,3.3401,3.3539,3.369,3.3765,3.3985,3.4286,3.4542,3.468,3.468,3.468,3.468,3.468,3.468,3.468,3.4693,3.4919,3.5044,3.5044,3.5341,3.5454,3.5454,3.5454,3.5454,3.5454,3.5454,3.4688,3.3282,3.4462,3.4851,3.4374,3.509,3.5454,3.5441,3.5215,3.4738,3.4035,3.4417,3.4374,3.3646,3.4022,3.3796,3.283,3.2491,3.2215,3.1938,2.8449,2.6691,0.0,0.0,0.0,0.0,0.0,0.0,0.0,0.0,0.0,0.0,0.0,2.433,2.5197,2.8674,2.9817,2.7268,2.8963,3.0357,3.0658,3.008,3.0771,3.352,3.2993,3.3131,3.4831,3.5044,3.5257,3.583,3.5918,3.6019,3.638,3.632,3.6182,3.6006,3.6383,3.6769,3.6782,3.6935,3.7211,3.7473,3.7788,3.7989,3.8014,3.8191,3.8103,3.7262,3.7337,3.7437,3.7209,3.747,3.7839,3.817,3.8473,3.8833,3.9215,3.9402,3.9543,3.9655,3.9922,4.0243,3.2571,3.3085,3.3282,3.3768,3.4359,3.3608,3.3427,3.3687,3.3909,3.414,3.4479,3.471,3.4781,3.4839,3.4901,3.4926,3.4939,3.4881,3.4939,3.4939,3.4939,3.4939,3.4951,3.5382,3.5608,3.5621,3.6144,3.6417,3.6417,3.6417,3.6417,3.6417,3.6417,3.6342,3.6191,3.5818,3.5132,3.4248,3.5613,3.6304,3.6304,3.5793,3.4806,3.352,3.4387,3.4248,3.2855,3.4085,3.3935,3.2064,3.1863,3.1612,3.112,3.0821,2.9716,0.0,2.717,0.0,0.0,0.0,0.0,0.0,0.0,0.0,0.0,2.8235,2.7921,2.5716,2.9703,3.1876,3.0545,3.2528,3.3922,3.3997,3.4424,3.4705,3.4768,3.4781,3.4994,3.5545,3.5608,3.583,3.6317,3.6455,3.6505,3.6593,3.6948,3.7086,3.6782,3.6985,3.7287,3.7287,3.7688,3.8052,3.863,3.8844,3.8856,3.8881,3.8969,3.8743,3.8052,3.804,3.809,3.8002,3.8064,3.8299,3.8884,3.8994,3.9226,3.9611,3.9802,3.9841,3.9789,4.0068,4.0498,3.3387,3.4019,3.4077,3.4305,3.461,3.4455,3.443,3.4472,3.4517,3.458,3.4673,3.5144,3.5345,3.5382,3.5855,3.6091,3.6103,3.6091,3.6091,3.6103,3.6056,3.6103,3.6116,3.6204,3.6241,3.6254,3.6367,3.6417,3.6417,3.6417,3.6417,3.6417,3.6417,3.5906,3.5127,0.0,0.0,0.0,3.5768,3.5658,3.5658,3.5558,3.5345,3.5056,3.5717,0.0,3.5638,3.5454,3.5157,3.4731,3.4279,0.0,0.0,0.0,0.0,0.0,0.0,0.0,0.0,0.0,0.0,0.0,2.8588,2.82,2.7507,3.0658,3.1888,2.9842,3.2001,3.3646,3.3771,3.3834,3.4073,3.4525,3.4663,3.4843,3.527,3.5345,3.5558,3.6132,3.6194,3.6292,3.643,3.6782,3.7071,3.7048,3.75,3.7776,3.7713,3.7764,3.7864,3.7864,3.8027,3.8253,3.8781,3.8969,3.9032,3.8969,3.927,3.9132,3.8341,3.8454,3.853,3.8216,3.8379,3.863,3.8364,3.8615,3.898,3.851,3.8839,3.9323,3.9932,4.0194,4.0481,3.4361,0.0,3.4925,3.5158,0.0,3.5529,3.5529,3.5516,3.5253,3.5278,3.5542,3.583,3.5943,3.5968,3.6245,3.6417,3.6417,3.6417,3.6417,3.643,3.6694,3.6807,3.682,3.7048,3.7174,3.7161,3.7174,3.7174,3.7174,3.7174,3.7174,3.7174,3.7174,3.6897,3.637,3.6766,3.6814,3.6417,3.6081,3.5943,3.5943,3.5943,3.5567,3.4801,3.5793,0.0,0.0,0.0,0.0,0.0,0.0,0.0,0.0,0.0,0.0,3.2164,3.0501,2.961,2.9845,2.9555,3.0047,3.1687,3.1849,3.1531,3.0795,3.2945,3.3847,3.2805,3.3627,3.4424,3.4688,3.4668,3.4781,3.5056,3.5366,3.5655,3.5893,3.5956,3.6044,3.638,3.6656,3.6759,3.682,3.7249,3.7563,3.7613,3.8078,3.8429,3.8442,3.8429,3.8504,3.8781,3.8843,3.9044,3.9546,3.9685,3.9659,3.9735,3.991,3.9848,3.9346,3.9471,3.9647,3.9647,3.991,3.9973,3.976,3.9898,3.9998,3.9735,3.9672,3.9928,4.0565,4.0382,4.0197,3.5223,3.5668,3.5668,3.5943,3.6417,3.6417,3.6417,3.638,0.0,0.0,0.0,3.6417,3.6417,3.6417,3.6417,3.6417,3.6417,3.6417,3.6455,3.6581,3.6973,3.7236,3.7349,3.7789,3.8002,3.8002,3.8002,3.8002,3.8002,3.8002,3.7953,3.7916,3.7903,3.7903,3.7866,3.763,3.7196,3.6553,3.6463,3.6413,3.6413,3.6326,3.5624,3.4227,3.5549,3.5578,3.429,3.5388,3.5264,3.3696,3.3395,3.3171,3.2895,3.2827,3.3383,3.474,3.4732,3.4686,3.4761,3.4653,3.4441,3.408,3.4157,3.4307,3.4475,3.4727,3.4856,3.5002,3.5014,3.5014,3.5014,3.537,3.5646,3.5646,3.6182,3.6556,3.6556,3.6656,3.6684,3.6744,3.7121,3.7324,3.7349,3.7814,3.8153,3.8228,3.8655,3.907,3.9057,3.907,3.9157,3.9496,3.9546,3.9798,4.0199,4.0287,4.0413,4.0413,4.0475,4.0551,4.0626,4.0664,4.084,4.1025,4.1326,4.1367,4.1288,4.1304,4.1442,4.1313,4.099,4.0802,4.1091,4.0706,4.0279,3.5656,3.5968,3.5968,3.6133,3.6417,3.6417,3.6417,3.6405,3.6329,3.6329,3.6417,3.6417,3.6417,3.6417,3.6417,3.6417,3.6417,3.6417,3.6656,3.7061,3.7149,3.7437,3.7889,3.7965,3.8002,3.8002,3.8002,3.8002,3.8002,3.8002,3.7866,3.7693,3.763,3.7543,3.7331,3.7281,3.7207,3.7097,3.6641,3.6406,3.6394,3.595,3.5618,3.5408,3.5593,3.5618,3.5396,3.5784,3.5879,3.5615,3.5556,3.5506,3.5491,3.5169,3.5248,3.5445,3.4803,3.4647,3.5087,3.4472,3.4292,3.4643,3.5074,3.5352,3.5328,3.5382,3.5583,3.6056,3.6081,3.6179,3.6191,3.6194,3.6257,3.6307,3.6734,3.7109,3.7086,3.745,3.7701,3.7688,3.7839,3.7889,3.7939,3.8391,3.8743,3.8831,3.917,3.9559,3.9521,3.9572,3.9597,3.9672,3.9697,3.9735,3.991,3.9835,4.0111,4.045,4.0551,4.0727,4.1166,4.1229,4.1263,4.1326,4.1819,4.1894,4.1568,4.1743,4.1844,4.1539,4.1329,4.125,4.1426,4.1273,4.1187,3.5668,3.5812,3.5968,3.6051,3.6193,3.6358,3.6417,3.6405,3.6228,3.6275,3.6417,3.6417,3.6417,3.6417,3.6417,3.6417,3.6417,3.6417,3.6543,3.6795,3.7048,3.7312,3.7575,3.7716,3.7804,3.7804,3.7655,3.7618,3.7606,3.7606,3.7679,3.7888,3.8121,3.8116,3.7898,3.7846,3.7795,3.7603,3.7129,3.6812,3.6812,3.6567,3.6493,3.6493,3.6444,3.6358,3.6075,3.6014,3.5915,3.5789,3.5668,3.562,3.5764,3.5668,3.5633,3.5608,3.5244,3.5159,3.5404,3.482,3.4664,3.5162,3.5195,3.525,3.5536,3.5806,3.6047,3.6156,3.6181,3.627,3.64,3.6522,3.673,3.7055,3.7402,3.7626,3.7651,3.7826,3.799,3.8027,3.8291,3.8467,3.8479,3.8969,3.9308,3.9346,3.9572,3.9697,3.9722,3.9948,4.0023,3.9785,3.9936,4.0124,4.0149,4.0413,4.0664,4.0887,4.0912,4.1191,4.1656,4.1781,4.202,4.2547,4.2886,4.2936,4.266,4.2861,4.2773,4.2346,4.1944,4.1982,4.2409,4.2459,4.2041,3.588,3.588,3.6183,3.6279,3.6267,3.637,3.6478,3.6518,3.6251,3.6225,3.6451,3.6326,3.6228,3.6216,3.6275,3.6323,3.6323,3.6358,3.6433,3.6536,3.6937,3.7152,3.7205,3.7419,3.7543,3.7506,3.7356,3.7318,3.7318,3.7318,3.7513,3.8003,3.8304,3.8392,3.8303,3.8303,3.8198,3.7979,3.7485,3.7262,3.7384,3.7262,3.7201,3.7201,3.7079,3.6822,3.6431,3.6258,3.6112,3.5868,3.5685,3.5624,3.566,3.5648,3.555,3.544,3.5416,3.5428,3.5404,3.5159,3.511,3.5391,3.5207,3.5255,3.5683,3.6129,3.632,3.6154,3.6303,3.649,3.6677,3.6837,3.7158,3.7593,3.7842,3.8004,3.8091,3.8191,3.8329,3.8392,3.8781,3.9057,3.9183,3.9433,3.9659,3.9659,3.9697,3.9735,3.9898,4.0275,4.0325,4.0287,4.0438,4.0676,4.0727,4.0949,4.1263,4.1467,4.1463,4.1781,4.2213,4.2389,4.264,4.3275,4.3501,4.3451,4.3564,4.3551,4.3338,4.2911,4.2572,4.2597,4.3212,4.3288,4.2773,3.6646,3.672,3.6934,3.7083,3.7047,3.6604,3.6665,3.701,3.6567,3.6492,3.6711,3.5986,3.5693,3.5716,3.5955,3.6051,3.6063,3.6275,3.6513,3.6733,3.6797,3.6997,3.7183,3.7257,3.7318,3.7282,3.7207,3.717,3.712,3.7232,3.7375,3.7621,3.746,3.7634,3.7979,3.8027,3.8027,3.7974,3.7473,3.7465,3.7875,3.7425,3.7224,3.7224,3.6765,3.6437,3.644,3.6579,3.6719,3.6682,3.6633,3.6439,3.6013,3.5755,3.539,3.4944,3.4908,3.4884,3.492,3.5281,3.5391,3.4968,3.5551,3.5867,3.5953,3.626,3.6407,3.6493,3.6998,3.7332,3.7469,3.7469,3.7518,3.7667,3.7925,3.8097,3.8388,3.885,3.9264,3.9546,3.9496,3.9609,3.9572,3.9685,3.9735,3.9785,3.9873,4.0023,4.0375,4.0588,4.0827,4.1053,4.12,4.1225,4.1238,4.1238,4.1643,4.1995,4.2137,4.2351,4.2703,4.2879,4.3055,4.3212,4.3187,4.3225,4.3187,4.3062,4.3099,4.3049,4.2924,4.2949,4.3112,4.3388,4.32,3.6411,3.6551,3.6866,3.708,3.7144,3.6947,3.6959,3.7131,3.6797,3.67,3.6725,3.6269,3.5966,3.5824,3.5764,3.5764,3.5764,3.5908,3.6007,3.6073,3.6085,3.616,3.626,3.6125,3.6076,3.6027,3.5867,3.5818,3.5867,3.6134,3.6509,3.6865,3.7075,3.7457,3.7914,3.7673,3.7517,3.7505,3.6988,3.6831,3.7036,3.7144,3.7336,3.7613,3.7445,3.7168,3.6904,3.697,3.6889,3.6599,3.6575,3.6466,3.6261,3.6124,3.599,3.5773,3.5761,3.5749,3.5749,3.5966,3.599,3.5773,3.6066,3.6237,3.6261,3.6628,3.686,3.6911,3.704,3.719,3.7382,3.7494,3.7731,3.8076,3.8502,3.8807,3.8935,3.9276,3.9594,3.9697,3.9697,3.9697,3.9747,3.9973,4.0149,4.0237,4.0425,4.0674,4.0978,4.1266,4.1568,4.1794,4.2082,4.212,4.1932,4.212,4.2371,4.2559,4.269,4.2785,4.2886,4.2986,4.3062,4.3363,4.3376,4.3388,4.3514,4.3438,4.3401,4.3212,4.3313,4.3463,4.3463,4.3639,4.3514,3.643,3.6625,3.6998,3.7241,3.7407,3.7248,3.7285,3.737,3.7057,3.6933,3.6984,3.6729,3.6474,3.6198,3.6014,3.5905,3.5953,3.6014,3.6014,3.5893,3.577,3.5697,3.5588,3.5235,3.5078,3.5078,3.4945,3.4835,3.4883,3.5315,3.5893,3.6411,3.694,3.7469,3.7878,3.7577,3.7336,3.7168,3.6675,3.6411,3.6447,3.6639,3.7072,3.7697,3.7914,3.7793,3.7433,3.7421,3.724,3.6867,3.6843,3.6771,3.6627,3.6627,3.6555,3.6423,3.6411,3.6411,3.6411,3.6543,3.6555,3.6435,3.6519,3.6627,3.6675,3.6976,3.7252,3.7425,3.7266,3.7266,3.7481,3.7733,3.8007,3.8413,3.8841,3.905,3.9154,3.9362,3.9478,3.9581,3.949,3.9553,3.9819,4.0197,4.0526,4.0739,4.1012,4.1376,4.1555,4.1882,4.2225,4.2414,4.2778,4.2828,4.2539,4.2678,4.2961,4.2986,4.2936,4.2924,4.2986,4.2986,4.2999,4.3225,4.3476,4.3526,4.3363,4.3426,4.3501,4.3212,4.3275,4.3539,4.3426,4.3639,4.3777,3.7073,3.7145,3.769,3.7906,3.7906,3.7425,3.7485,3.7875,3.7413,3.7311,3.7467,3.7272,3.701,3.6755,3.6755,3.6731,3.6757,3.6921,3.6834,3.656,3.6196,3.5829,3.5545,3.5076,3.4835,3.4835,3.4823,3.4775,3.4859,3.5364,3.5881,3.6411,3.694,3.7457,3.7902,3.789,3.7673,3.7192,3.6663,3.6411,3.6362,3.5978,3.6302,3.7156,3.7697,3.789,3.789,3.7926,3.789,3.789,3.7841,3.7649,3.7216,3.7156,3.6952,3.6543,3.6459,3.6447,3.6531,3.6904,3.6976,3.6603,3.6916,3.7156,3.7168,3.7228,3.7445,3.789,3.787,3.8,3.8206,3.817,3.8259,3.8344,3.8421,3.8631,3.8788,3.8893,3.901,3.9256,3.9226,3.9448,4.0044,4.0317,4.0786,4.1125,4.13,4.1568,4.2007,4.2225,4.2451,4.2735,4.2936,4.2961,4.2924,4.2924,4.2961,4.2986,4.2986,4.2986,4.2986,4.2986,4.3011,4.3024,4.3112,4.3124,4.3049,4.3037,4.3087,4.3011,4.3011,4.3137,4.3225,4.3526,4.3702,3.7089,3.7423,3.7838,3.7974,3.795,3.7769,3.7805,3.7962,3.7793,3.775,3.7855,3.775,3.7641,3.7565,3.7565,3.7191,3.6599,3.6664,3.6432,3.6116,3.6201,3.5823,3.516,3.5183,3.5136,3.4811,3.4775,3.4775,3.4835,3.5364,3.5881,3.6411,3.6928,3.7457,3.7829,3.7649,3.7372,3.7168,3.6675,3.6411,3.6435,3.6543,3.6675,3.6687,3.6867,3.7132,3.7469,3.7481,3.7625,3.7962,3.7974,3.789,3.7733,3.7697,3.7625,3.7445,3.7421,3.7409,3.7433,3.7589,3.7625,3.7469,3.7577,3.7673,3.7697,3.7709,3.7781,3.7938,3.7974,3.8092,3.8092,3.8145,3.8133,3.8145,3.8303,3.8461,3.8566,3.8684,3.8964,3.9414,3.9841,4.0294,4.0562,4.1155,4.163,4.1844,4.2158,4.2421,4.2597,4.2672,4.2748,4.2898,4.2986,4.2986,4.2986,4.2974,4.2986,4.2986,4.2986,4.2986,4.2986,4.2986,4.2999,4.3011,4.2986,4.2986,4.2999,4.2999,4.2986,4.2986,4.2986,4.3087,4.2986,4.3338,4.3564,3.7036,3.7596,3.7797,3.7945,3.7974,3.7974,3.7974,3.7974,3.7974,3.7974,3.7974,3.7974,3.7974,3.7974,3.7974,3.7625,3.6952,3.6916,3.6711,3.6411,3.6567,3.6278,3.5725,3.5785,3.5605,3.5063,3.4847,3.4859,3.5136,3.5617,3.6146,3.6663,3.718,3.7613,3.7866,3.7613,3.7385,3.7168,3.6831,3.6603,3.6495,3.6747,3.6783,3.6471,3.6411,3.6651,3.7168,3.7348,3.7601,3.7926,3.7974,3.7974,3.7974,3.7974,3.7974,3.7974,3.7962,3.7974,3.7974,3.7974,3.7974,3.7974,3.7974,3.7974,3.7974,3.7974,3.7974,3.7974,3.7974,3.7974,3.7974,3.7974,3.7974,3.8027,3.825,3.8409,3.8433,3.8737,3.9091,3.9567,4.0126,4.0572,4.0928,4.1482,4.1865,4.2108,4.2494,4.275,4.2818,4.2862,4.2918,4.2974,4.2986,4.2986,4.2986,4.2986,4.2986,4.2986,4.2986,4.2986,4.2986,4.2986,4.2986,4.2986,4.2986,4.2986,4.2986,4.2986,4.2986,4.2986,4.3187,4.335,4.3263,4.3187,4.3501,3.7036,3.7542,3.7608,3.7732,3.7933,3.7974,3.7974,3.7986,3.7974,3.7974,3.7974,3.7974,3.7974,3.7974,3.7974,3.7938,3.7853,3.7805,3.7757,3.7649,3.736,3.712,3.6904,3.6555,3.6086,3.5533,3.5064,3.5112,3.5557,3.6062,3.6591,3.7156,3.7649,3.7902,3.7974,3.7902,3.7697,3.736,3.7204,3.6964,3.6507,3.6591,3.6591,3.6483,3.6507,3.6747,3.7192,3.7649,3.793,3.7962,3.7974,3.7974,3.7974,3.7974,3.7974,3.7974,3.7974,3.7974,3.7974,3.7974,3.7974,3.7974,3.7974,3.7974,3.7974,3.7974,3.7974,3.7974,3.7974,3.7974,3.7986,3.8046,3.807,3.8051,3.8294,3.8424,3.8574,3.8944,3.9334,3.9666,4.0049,4.0269,4.0701,4.1237,4.1669,4.2014,4.2174,4.2312,4.2525,4.2581,4.2681,4.2918,4.2986,4.2986,4.2986,4.2986,4.2986,4.2986,4.2986,4.2986,4.2986,4.2986,4.2986,4.2986,4.2986,4.2986,4.2986,4.2986,4.2986,4.3037,4.3325,4.3438,4.3288,4.3225,4.3639,3.682,3.6982,3.7185,3.7411,3.7691,3.7744,3.7838,3.7986,3.7974,3.7974,3.7974,3.7974,3.7974,3.7974,3.7974,3.7974,3.7974,3.7962,3.7793,3.7529,3.7637,3.7324,3.6807,3.6855,3.6471,3.5665,3.5076,3.51,3.5629,3.6146,3.6675,3.7204,3.7721,3.7962,3.7974,3.7974,3.7866,3.7769,3.7733,3.7637,3.7493,3.7481,3.7324,3.7024,3.7288,3.7433,3.7228,3.7348,3.7601,3.795,3.7974,3.7974,3.7974,3.7974,3.7974,3.7974,3.7974,3.7974,3.7974,3.7974,3.7974,3.7974,3.7974,3.7974,3.7974,3.7974,3.7974,3.7974,3.7974,3.7974,3.8034,3.8359,3.8527,3.8563,3.8617,3.8827,3.9207,3.969,4.0021,4.0206,4.072,4.1169,4.1347,4.159,4.182,4.198,4.2041,4.2142,4.2413,4.2469,4.2638,4.2918,4.2974,4.2986,4.2986,4.2986,4.2986,4.2986,4.2986,4.2986,4.2986,4.2986,4.2986,4.2986,4.2986,4.2986,4.2986,4.2986,4.2986,4.2999,4.3162,4.3162,4.3087,4.3376,4.3878,3.6592,3.67,3.6862,3.7143,3.7423,3.7554,3.7637,3.772,3.7933,3.7945,3.7892,3.7986,3.7974,3.7974,3.7974,3.7974,3.7974,3.7974,3.7805,3.7553,3.7793,3.7493,3.6723,3.6567,3.6459,3.5869,3.5172,3.5112,3.5629,3.6146,3.6675,3.7192,3.7721,3.7974,3.7974,3.7974,3.7974,3.7974,3.7962,3.7974,3.7974,3.7974,3.7829,3.7553,3.7613,3.7517,3.7216,3.7204,3.7445,3.7878,3.7974,3.7974,3.7974,3.7974,3.7974,3.7974,3.7974,3.7974,3.7974,3.7974,3.7974,3.7974,3.7974,3.7974,3.7974,3.7974,3.7974,3.7974,3.7974,3.807,3.831,3.8575,3.8948,3.9381,3.9212,3.9369,3.9813,4.0174,4.0475,4.0712,4.1115,4.1411,4.1504,4.1573,4.1757,4.1757,4.1757,4.1928,4.2199,4.2356,4.2581,4.2862,4.2986,4.2986,4.2986,4.2986,4.2986,4.2986,4.2986,4.2986,4.2986,4.2986,4.2986,4.2986,4.2986,4.2986,4.2986,4.2986,4.2986,4.3024,4.3087,4.3325,4.3489,4.384,4.4305,3.6429,3.6646,3.67,3.6862,3.7143,3.7423,3.7423,3.7292,3.772,3.7838,3.7744,3.7838,3.7974,3.7974,3.7974,3.7974,3.7974,3.7974,3.7962,3.7914,3.795,3.7649,3.7096,3.6326,3.605,3.605,3.5268,3.5172,3.5749,3.6182,3.6687,3.73,3.7757,3.7974,3.7974,3.7974,3.7974,3.7974,3.7974,3.7974,3.7974,3.7974,3.7914,3.7841,3.7457,3.7204,3.7084,3.7156,3.7445,3.789,3.7974,3.7974,3.7974,3.7974,3.7974,3.7974,3.7974,3.7974,3.7974,3.7974,3.7974,3.7974,3.7974,3.7974,3.7974,3.7974,3.7974,3.7986,3.8046,3.8274,3.8659,3.8984,3.9429,4.0162,4.003,4.003,4.0355,4.0463,4.0679,4.1028,4.1184,4.1184,4.1242,4.1242,4.1299,4.1287,4.1299,4.1631,4.1984,4.2268,4.2437,4.2706,4.2986,4.2986,4.2986,4.2986,4.2986,4.2986,4.2986,4.2986,4.2986,4.2986,4.2986,4.2986,4.2986,4.2986,4.2986,4.2986,4.2986,4.2999,4.3237,4.3639,4.3878,4.4066,4.4493,3.632,3.6375,3.644,3.6538,3.6808,3.7089,3.7358,3.7477,3.7637,3.7785,3.785,3.7732,3.785,3.7986,3.7974,3.7974,3.7974,3.7974,3.7974,3.7974,3.7974,3.7673,3.7168,3.6531,3.605,3.5809,3.5219,3.5255,3.6146,3.6266,3.6819,3.7757,3.7817,3.7962,3.7974,3.7974,3.7974,3.7974,3.7974,3.7974,3.7974,3.7974,3.7769,3.7409,3.7264,3.7,3.6723,3.7,3.7433,3.7914,3.7974,3.7974,3.7974,3.7974,3.7974,3.7974,3.7974,3.7974,3.7974,3.7974,3.7974,3.7974,3.7974,3.7974,3.7974,3.7974,3.7974,3.8046,3.8322,3.8659,3.8924,3.9525,4.0246,4.08,4.0751,4.0739,4.0896,4.098,4.1052,4.116,4.1184,4.1184,4.1184,4.1184,4.1184,4.123,4.1344,4.1631,4.1984,4.2268,4.2481,4.2762,4.2986,4.2986,4.2986,4.2986,4.2986,4.2986,4.2986,4.2986,4.2986,4.2986,4.2986,4.2986,4.2986,4.2986,4.2986,4.2986,4.2986,4.2986,4.3187,4.3476,4.3614,4.3802,4.4418,3.6266,3.6266,3.6266,3.6375,3.6592,3.697,3.7131,3.7262,3.7637,3.7797,3.7838,3.7785,3.7838,3.7986,3.7974,3.7974,3.7974,3.7974,3.7974,3.7974,3.7974,3.7805,3.7397,3.6807,3.6242,3.593,3.5412,3.5376,3.5701,3.5942,3.6543,3.7168,3.7541,3.7757,3.7974,3.7974,3.7974,3.7974,3.7974,3.7974,3.7974,3.7974,3.7853,3.7505,3.7336,3.7012,3.6831,3.7036,3.7433,3.7841,3.7974,3.7974,3.7974,3.7974,3.7974,3.7974,3.7974,3.7974,3.7974,3.7974,3.7974,3.7974,3.7974,3.7974,3.7974,3.7974,3.801,3.8359,3.8647,3.9008,3.9537,4.0246,4.0812,4.1088,4.1184,4.1184,4.1184,4.116,4.1184,4.1184,4.1184,4.1184,4.1184,4.1184,4.1184,4.1242,4.1287,4.1631,4.1984,4.2199,4.2469,4.275,4.293,4.2974,4.2986,4.2986,4.2986,4.2986,4.2986,4.2986,4.2986,4.2986,4.2986,4.2986,4.2986,4.2986,4.2986,4.2986,4.2986,4.3024,4.315,4.3325,4.3539,4.4079,4.4644,3.6157,3.6091,3.6254,3.6266,3.632,3.6862,3.697,3.6862,3.756,3.7625,3.7423,3.7732,3.7826,3.788,3.7921,3.7974,3.7974,3.7974,3.7974,3.7974,3.7974,3.7926,3.7793,3.7,3.6519,3.629,3.5881,3.5617,3.5653,3.5797,3.6122,3.678,3.7136,3.7383,3.7583,3.7655,3.7708,3.7536,3.7655,3.7708,3.7761,3.7856,3.7825,3.7345,3.6956,3.6952,3.7044,3.7228,3.7433,3.7962,3.7974,3.7926,3.7914,3.789,3.7974,3.7974,3.7974,3.7974,3.7974,3.7974,3.7974,3.7974,3.7974,3.7974,3.7974,3.7974,3.819,3.8671,3.8852,3.9429,4.0258,4.0908,4.1088,4.1184,4.1184,4.1184,4.1184,4.1184,4.1184,4.1184,4.1184,4.1184,4.1184,4.1184,4.1184,4.1242,4.1344,4.1573,4.1859,4.2086,4.2369,4.265,4.2806,4.2918,4.293,4.2986,4.2986,4.2986,4.2986,4.2986,4.2986,4.2986,4.2986,4.2986,4.2986,4.2986,4.2986,4.2986,4.2986,4.3112,4.3275,4.3489,4.3765,4.4581,4.5234,3.5323,3.498,3.5872,3.6157,3.6091,3.6742,3.6808,3.644,3.7262,3.7005,3.6375,3.7143,3.737,3.7024,3.7548,3.7974,3.7868,3.7868,3.7974,3.7974,3.7974,3.7974,3.7813,3.7184,3.678,3.6456,3.6326,3.6312,3.6465,3.6437,3.7108,3.7359,3.6856,3.6853,3.6881,3.6472,3.5982,3.6079,3.6634,3.6958,3.712,3.7536,3.7382,3.6561,3.5952,3.6247,3.7016,3.7204,3.7457,3.7829,3.7849,3.7592,3.7488,3.7721,3.7878,3.7914,3.7938,3.7962,3.7986,3.7998,3.7986,3.8034,3.8094,3.7974,3.7986,3.8046,3.8298,3.8755,3.92,3.9886,4.0775,4.1088,4.1172,4.1184,4.1184,4.1184,4.1184,4.1184,4.1184,4.1184,4.1184,4.1184,4.1184,4.1184,4.1184,4.1242,4.1344,4.1561,4.1745,4.1915,4.2142,4.2425,4.2638,4.275,4.2806,4.2874,4.2986,4.2986,4.2986,4.2986,4.2986,4.2986,4.2986,4.2986,4.2986,4.2986,4.2986,4.2986,4.2986,4.3187,4.335,4.3438,4.379,4.4782,4.5359,3.4814,3.4591,3.5201,3.5501,3.5636,3.6158,3.6213,3.6102,3.6544,3.6308,3.5676,3.6266,3.6375,3.6145,3.6569,3.6785,3.6785,3.6785,3.6785,3.6731,3.6731,3.6785,3.6762,3.657,3.6238,3.6067,3.5684,3.566,3.5678,3.605,3.6103,3.6442,3.6298,3.6229,3.6111,3.5587,3.5488,3.5543,3.5817,3.6091,3.62,3.6514,3.6607,3.5833,3.5428,3.5695,3.627,3.6068,3.6145,3.6379,3.6508,3.6742,3.692,3.6968,3.7047,3.7367,3.7309,3.7529,3.7713,3.8012,3.8168,3.8222,3.8533,3.8719,3.8743,3.8743,3.9008,3.9453,3.9862,4.0319,4.1064,4.1184,4.1184,4.1184,4.1184,4.1184,4.1184,4.1184,4.1184,4.1184,4.1184,4.1184,4.1184,4.1184,4.1184,4.1242,4.123,4.139,4.1606,4.1789,4.1928,4.2142,4.2413,4.2513,4.2638,4.275,4.2986,4.2986,4.2986,4.2986,4.2986,4.2986,4.2986,4.2986,4.2986,4.2986,4.2986,4.2986,4.2999,4.3124,4.3225,4.3275,4.3677,4.4581,4.4932,3.4323,3.4256,3.4424,3.4753,3.5168,3.5463,3.5565,3.5519,3.587,3.5614,3.5169,3.5212,3.5477,3.5256,3.5477,3.5433,3.5488,3.5543,3.5708,3.5708,3.5697,3.5708,3.563,3.5442,3.5284,3.5527,3.5182,3.4744,3.4656,3.4728,3.5386,3.4978,3.5216,3.538,3.5201,3.498,3.4769,3.4714,3.4991,3.5201,3.5256,3.5422,3.5509,3.5464,3.5145,3.5221,3.5406,3.521,3.4887,3.4824,3.4716,3.5329,3.6084,3.6117,3.6041,3.6835,3.6743,3.7139,3.8013,3.8299,3.8411,3.853,3.912,3.9537,3.9525,3.9501,3.9717,4.0114,4.0451,4.0679,4.1124,4.1184,4.1184,4.1184,4.1184,4.1184,4.1184,4.1184,4.1184,4.1184,4.1184,4.1184,4.1184,4.1184,4.1184,4.1184,4.1172,4.123,4.1447,4.1561,4.1688,4.1802,4.2017,4.2413,4.2525,4.275,4.2986,4.2986,4.2986,4.2986,4.2986,4.2986,4.2986,4.2986,4.2986,4.2986,4.2986,4.2986,4.3011,4.3074,4.3237,4.3426,4.3865,4.4418,4.4531,3.3455,3.3105,3.4089,3.464,3.4815,3.5371,3.5247,3.5019,3.5576,3.4871,3.3533,3.4658,3.4814,3.458,3.5102,3.5323,3.5157,3.5102,3.5157,3.5212,3.5157,3.5157,3.4991,3.4536,3.4292,3.4493,3.4692,3.4946,3.4911,3.5307,3.5075,3.5045,3.4737,3.4402,3.4112,3.3604,3.3388,3.3614,3.3931,3.4246,3.4357,3.4758,3.5102,3.5035,3.4536,3.458,3.5046,3.4919,3.4905,3.5207,3.4336,3.4642,3.5449,3.5639,3.6183,3.6855,3.6856,3.7287,3.8525,3.8656,3.8854,3.9247,3.9657,3.9681,3.9681,3.9693,4.0042,4.0379,4.0731,4.1019,4.116,4.1184,4.1184,4.1184,4.1184,4.1184,4.1184,4.1184,4.1184,4.1184,4.1184,4.1184,4.1184,4.1184,4.1184,4.1184,4.1184,4.1184,4.1287,4.1344,4.1357,4.1459,4.1561,4.2017,4.2413,4.275,4.2986,4.2986,4.2986,4.2986,4.2986,4.2986,4.2986,4.2986,4.2986,4.2986,4.2986,4.2986,4.2999,4.3024,4.33,4.3589,4.3752,4.3966,4.4279,3.3492,3.3447,3.3843,3.4106,3.4387,3.4438,3.4285,3.4122,3.4436,3.3925,3.3277,3.3614,3.3773,3.3547,3.3717,3.3998,3.4054,3.3998,3.3998,3.3998,3.3998,3.3998,3.4065,3.3558,3.3536,3.3756,3.4172,3.4326,3.4097,3.4731,3.4653,3.414,3.4079,3.4054,3.343,3.3012,3.2737,3.2841,3.3105,3.3367,3.331,3.3875,3.3998,3.3885,3.366,3.3604,3.3744,3.3546,3.3562,3.391,3.3721,3.4027,3.4629,3.5398,3.6008,3.6744,3.7097,3.7534,3.8749,3.8836,3.9467,3.977,4.011,4.0415,4.0415,4.0487,4.0386,4.0626,4.0322,4.0641,4.1127,4.1184,4.1184,4.1184,4.1184,4.1184,4.1184,4.1184,4.1184,4.1184,4.1184,4.1184,4.1184,4.1184,4.1184,4.1184,4.1184,4.1184,4.1184,4.1184,4.1184,4.1344,4.1561,4.196,4.2413,4.275,4.2986,4.2986,4.2986,4.2986,4.2986,4.2986,4.2986,4.2986,4.2986,4.2986,4.2986,4.2986,4.2986,4.2986,4.315,4.3288,4.3313,4.3463,4.389,3.3679,3.3896,3.3534,3.3596,3.3893,3.3544,3.3437,3.3379,3.3437,3.3188,3.2768,3.2727,3.2784,3.2727,3.2727,3.2727,3.2669,3.2784,3.2841,3.2929,3.3033,3.2929,3.2871,3.3006,3.3281,3.3716,3.3747,3.3327,3.3518,3.401,3.3796,3.3691,3.4195,3.4021,3.3127,3.2991,3.2851,3.268,3.2669,3.2669,3.2669,3.2669,3.2669,3.2669,3.2669,3.2784,3.2846,3.2766,3.2778,3.3104,3.3344,3.3679,3.4143,3.5212,3.594,3.6272,3.7099,3.7731,3.8486,3.8718,3.92,3.9393,4.0149,4.0442,4.0466,4.0104,4.0384,4.0455,4.0269,4.0024,4.0641,4.1057,4.1184,4.1184,4.1184,4.1184,4.1184,4.1184,4.1184,4.1184,4.1184,4.1184,4.1184,4.1184,4.1184,4.1184,4.1184,4.1184,4.1184,4.1184,4.1242,4.1471,4.1688,4.2086,4.2481,4.275,4.293,4.2986,4.2986,4.2986,4.2986,4.2986,4.2986,4.2986,4.2986,4.2986,4.2986,4.2986,4.2986,4.2986,4.2986,4.3024,4.3124,4.3413,4.3853,3.3831,3.352,3.3399,3.341,3.3451,3.3389,3.3368,3.3358,3.3337,3.313,3.2669,3.2669,3.2669,3.2669,3.2669,3.2669,3.2669,3.2669,3.27,3.284,3.3089,3.3254,3.3368,3.3751,3.3813,3.4028,3.4049,3.3969,3.3914,3.3813,3.383,3.3848,3.373,3.3454,3.3292,3.3203,3.3099,3.2742,3.2669,3.2669,3.2669,3.2669,3.2669,3.2669,3.2669,3.2669,3.2753,3.2861,3.3051,3.2868,3.3323,3.3698,3.4324,3.594,3.5942,3.5804,3.6151,3.7434,3.8618,3.8666,3.8401,3.8695,3.8851,3.8707,3.8955,3.8967,3.8967,3.8648,3.9192,3.9721,4.0153,4.0699,4.1012,4.1069,4.0884,4.1,4.1069,4.1184,4.1184,4.1184,4.1184,4.1184,4.1184,4.1184,4.1184,4.1184,4.1184,4.1184,4.1242,4.1242,4.1287,4.1516,4.1859,4.2256,4.2481,4.275,4.2918,4.2986,4.2986,4.2986,4.2986,4.2986,4.2986,4.2986,4.2986,4.2986,4.2986,4.2986,4.2986,4.2986,4.2986,4.2986,4.2999,4.3376,4.3752,3.4401,3.4173,3.3596,3.3379,3.3348,3.312,3.3006,3.3006,3.3006,3.2903,3.269,3.2669,3.2669,3.2669,3.2669,3.2669,3.2669,3.269,3.2882,3.3068,3.3317,3.3592,3.382,3.4038,3.4204,3.4494,3.4496,3.4662,3.4579,3.4383,3.4266,3.4121,3.4093,3.3903,3.3603,3.3399,3.311,3.2851,3.2669,3.2669,3.2669,3.2669,3.2669,3.2669,3.2669,3.268,3.2841,3.3127,3.318,3.3039,3.3587,3.4182,3.4533,3.5557,3.6252,3.6426,3.641,3.6985,3.7654,3.7868,3.8053,3.8171,3.8242,3.8361,3.8291,3.8242,3.8481,3.9133,3.9427,3.9603,3.9615,4.0095,3.9908,3.9908,4.0223,4.0397,4.0583,4.1069,4.1184,4.1184,4.1184,4.1057,4.1057,4.1184,4.1184,4.1184,4.1184,4.1184,4.1287,4.1402,4.1447,4.1549,4.196,4.2356,4.2525,4.275,4.2918,4.2986,4.2986,4.2986,4.2986,4.2986,4.2986,4.2986,4.2986,4.2986,4.2986,4.2986,4.2986,4.2986,4.2986,4.3024,4.3074,4.3137,4.3451,3.4816,3.4733,3.3772,3.3379,3.3337,3.2913,3.2809,3.2892,3.2789,3.268,3.2669,3.2669,3.2669,3.2669,3.2669,3.2669,3.2737,3.284,3.3068,3.3327,3.3637,3.3938,3.4277,3.4432,3.4631,3.4971,3.4921,3.5066,3.5159,3.5055,3.4714,3.4414,3.4629,3.4422,3.3938,3.3762,3.3586,3.2985,3.2944,3.2871,3.27,3.2669,3.2669,3.2669,3.268,3.2778,3.2923,3.3477,3.3513,3.3257,3.4168,3.4629,3.4368,3.5301,3.5942,3.6125,3.6285,3.6454,3.6633,3.6853,3.7575,3.7599,3.7583,3.7281,3.7402,3.7583,3.7703,3.8111,3.8659,3.8778,3.9015,3.9133,3.9121,3.9062,3.9298,3.9486,3.9791,4.0269,4.0571,4.0571,4.0513,4.0629,4.0699,4.1057,4.1184,4.1184,4.1184,4.1184,4.1287,4.139,4.1618,4.1675,4.196,4.2425,4.2694,4.2862,4.2986,4.2986,4.2986,4.2986,4.2986,4.2986,4.2986,4.2986,4.2986,4.2986,4.2986,4.2986,4.2986,4.2986,4.3011,4.3112,4.3175,4.325,4.3551,3.4816,3.4743,3.3762,3.3379,3.3348,3.2913,3.2965,3.3172,3.2882,3.2669,3.2669,3.2669,3.2669,3.269,3.2721,3.2799,3.2778,3.3151,3.3389,3.3731,3.4235,3.4598,3.4837,3.5004,3.5242,3.5304,3.5283,3.5324,3.5407,3.5345,3.5293,3.5314,3.4983,3.4786,3.4598,3.437,3.3979,3.3461,3.3285,3.3068,3.2871,3.27,3.2669,3.268,3.2711,3.2913,3.3354,3.398,3.4054,3.3344,3.435,3.4641,3.4223,3.5147,3.5596,3.5406,3.6089,3.6039,3.5788,3.5926,3.5976,3.5825,3.5777,3.6023,3.6146,3.5849,3.5839,3.6441,3.7462,3.7522,3.7654,3.7774,3.8123,3.8111,3.8291,3.8778,3.9074,3.9427,3.9732,3.9779,3.9908,4.0153,4.0455,4.0815,4.1127,4.1184,4.1184,4.1184,4.1242,4.1344,4.1643,4.1814,4.2041,4.2381,4.2874,4.2986,4.2986,4.2986,4.2986,4.2986,4.2986,4.2986,4.2986,4.2986,4.2986,4.2986,4.2986,4.2986,4.2986,4.2986,4.3037,4.315,4.3614,4.3966,4.4392,3.465,3.4329,3.3696,3.3379,3.3358,3.3203,3.3078,3.2954,3.2799,3.2669,3.2669,3.2669,3.2669,3.2731,3.3037,3.313,3.3203,3.3596,3.3886,3.4287,3.4681,3.49,3.5128,3.5293,3.5407,3.5428,3.5428,3.5428,3.5418,3.5428,3.5428,3.5345,3.5211,3.4993,3.4817,3.464,3.4176,3.3896,3.3544,3.3265,3.3151,3.2783,3.2669,3.268,3.3058,3.3172,3.3458,3.402,3.3878,3.3809,3.4267,3.4171,3.4004,3.4984,3.5168,3.4868,3.5743,3.562,3.5384,3.5495,3.5559,3.5509,3.5418,3.5428,3.5418,3.5849,3.6218,3.6696,3.6989,3.722,3.705,3.7171,3.7292,3.7039,3.7281,3.7943,3.8361,3.8659,3.8955,3.9074,3.9486,3.9791,4.0211,4.0629,4.0942,4.1184,4.1184,4.1184,4.1242,4.1344,4.1643,4.1984,4.2155,4.2437,4.293,4.2986,4.2986,4.2986,4.2986,4.2986,4.2986,4.2986,4.2986,4.2986,4.2986,4.2986,4.2986,4.2986,4.2986,4.2986,4.3062,4.3187,4.379,4.4531,4.4957,3.4743,3.4318,3.3917,3.3627,3.3379,3.3244,3.3099,3.2934,3.2789,3.2669,3.268,3.2851,3.2923,3.3027,3.3203,3.3492,3.3606,3.3976,3.438,3.4691,3.49,3.5128,3.5324,3.5428,3.5428,3.5428,3.5428,3.5428,3.5428,3.5428,3.5428,3.5428,3.5407,3.52,3.5004,3.4662,3.4414,3.4256,3.4069,3.3679,3.3586,3.3337,3.3182,3.3213,3.3461,3.3699,3.3883,3.4108,3.3983,3.3914,3.4108,3.4225,3.438,3.459,3.5055,3.5304,3.5428,3.5428,3.5428,3.5428,3.5428,3.5428,3.5428,3.5428,3.5603,3.6023,3.6085,3.633,3.6918,3.716,3.6513,3.6391,3.633,3.6146,3.6807,3.7413,3.7473,3.7703,3.8123,3.8421,3.8837,3.931,4.0095,4.0513,4.0942,4.1184,4.1184,4.1184,4.1242,4.1402,4.1688,4.2029,4.2256,4.2594,4.293,4.2986,4.2986,4.2986,4.2986,4.2986,4.2986,4.2986,4.2986,4.2986,4.2986,4.2986,4.2986,4.2986,4.2986,4.2986,4.3162,4.3426,4.4053,4.4756,4.5121,3.5097,3.4826,3.4723,3.4194,3.3327,3.2934,3.2975,3.3172,3.2923,3.2789,3.2793,3.3172,3.3368,3.3399,3.3534,3.3782,3.4031,3.4225,3.4494,3.4859,3.5148,3.5366,3.5407,3.5428,3.5428,3.5428,3.5428,3.5428,3.5428,3.5428,3.5428,3.5428,3.5418,3.5397,3.5387,3.5387,3.5159,3.4868,3.4754,3.437,3.4113,3.3875,3.3731,3.3903,3.4038,3.4256,3.4422,3.4204,3.402,3.402,3.4339,3.4401,3.4246,3.49,3.5314,3.5407,3.5428,3.5428,3.5428,3.5428,3.5428,3.5428,3.5428,3.5428,3.5428,3.5541,3.5665,3.5839,3.5839,3.5788,3.5541,3.5541,3.5479,3.5665,3.633,3.6635,3.6696,3.705,3.7533,3.8003,3.8302,3.8707,3.9721,4.0501,4.0942,4.1184,4.1184,4.1242,4.1242,4.1414,4.1631,4.1972,4.2256,4.2581,4.2874,4.2986,4.2986,4.2986,4.2986,4.2986,4.2986,4.2986,4.2986,4.2986,4.2986,4.2986,4.2986,4.2986,4.2986,4.3037,4.3463,4.384,4.4443,4.4932,4.5284,3.4434,3.4339,3.3969,3.3503,3.3006,3.311,3.3099,3.2985,3.3078,3.3151,3.3254,3.3627,3.3834,3.3906,3.4194,3.4411,3.4588,3.491,3.5138,3.518,3.5366,3.5397,3.5428,3.5428,3.5428,3.5428,3.5428,3.5428,3.5428,3.5428,3.5428,3.5428,3.5428,3.5428,3.5418,3.5418,3.5304,3.5086,3.4703,3.437,3.4424,3.4041,3.3903,3.4183,3.4453,3.4681,3.4826,3.4372,3.4155,3.4124,3.4463,3.4349,3.4339,3.4952,3.5397,3.5428,3.5428,3.5428,3.5428,3.5428,3.5428,3.5428,3.5428,3.5428,3.5428,3.5428,3.5428,3.5428,3.5428,3.5428,3.5418,3.5418,3.5418,3.5428,3.5788,3.5788,3.5962,3.6635,3.7171,3.7703,3.8063,3.9321,4.0397,4.0687,4.1057,4.1184,4.1184,4.1184,4.1242,4.1299,4.1471,4.1871,4.2211,4.2538,4.275,4.293,4.2986,4.2986,4.2986,4.2986,4.2986,4.2986,4.2986,4.2986,4.2986,4.2986,4.2986,4.2986,4.2986,4.3124,4.3438,4.3727,4.4091,4.4719,4.5372,3.4038,3.3793,3.3503,3.313,3.2809,3.3037,3.2985,3.2799,3.3027,3.3151,3.3265,3.3762,3.4051,3.4196,3.4527,3.4971,3.4983,3.5066,3.5355,3.5387,3.5418,3.5428,3.5428,3.5356,3.5428,3.5418,3.5418,3.5428,3.5428,3.5428,3.5428,3.5428,3.5428,3.5428,3.5428,3.5418,3.5407,3.5242,3.4921,3.4786,3.4776,3.4569,3.4331,3.459,3.4828,3.5004,3.4869,3.4671,3.436,3.436,3.436,3.4289,3.4538,3.4921,3.5397,3.5428,3.5428,3.5428,3.5428,3.5428,3.5428,3.5428,3.5428,3.5428,3.5428,3.5428,3.5428,3.5428,3.5428,3.5428,3.5428,3.5428,3.5428,3.5428,3.5428,3.5479,3.5603,3.6268,3.705,3.7522,3.8361,3.9732,4.0884,4.1,4.1184,4.1184,4.1184,4.1184,4.1242,4.1357,4.1471,4.1883,4.2268,4.265,4.2862,4.293,4.2986,4.2986,4.2986,4.2986,4.2986,4.2986,4.2986,4.2986,4.2986,4.2986,4.2986,4.2986,4.2986,4.3049,4.3212,4.3489,4.3752,4.433,4.5033,3.3762,3.341,3.3368,3.311,3.2778,3.2711,3.27,3.2789,3.2793,3.2892,3.2903,3.3865,3.4227,3.4227,3.466,3.5004,3.5252,3.5024,3.5097,3.5273,3.5294,3.5294,3.5294,3.5294,3.5294,3.5356,3.5356,3.5428,3.5428,3.5428,3.5428,3.5428,3.5428,3.5428,3.5428,3.5428,3.5428,3.5335,3.5169,3.5107,3.5128,3.5159,3.5035,3.5159,3.5273,3.5304,3.5169,3.491,3.4724,3.4743,3.4764,3.4785,3.4879,3.518,3.5345,3.5428,3.5428,3.5428,3.5428,3.5428,3.5428,3.5428,3.5428,3.5428,3.5428,3.5428,3.5428,3.5428,3.5428,3.5428,3.5428,3.5428,3.5428,3.5428,3.5428,3.5418,3.5479,3.6085,3.6918,3.7643,3.8481,3.9615,4.0826,4.1184,4.1184,4.1184,4.1184,4.1184,4.1242,4.1528,4.17,4.1997,4.2381,4.2762,4.2918,4.2986,4.2986,4.2986,4.2986,4.2986,4.2986,4.2986,4.2986,4.2986,4.2986,4.2986,4.2986,4.2986,4.2986,4.3062,4.3124,4.3225,4.3476,4.3765,4.4367,3.3213,3.3337,3.3047,3.284,3.268,3.268,3.2845,3.3234,3.3834,3.401,3.3741,3.4631,3.4745,3.4681,3.5024,3.5262,3.5324,3.5263,3.5129,3.5139,3.5046,3.4859,3.4859,3.4984,3.5046,3.518,3.5242,3.5428,3.5428,3.5428,3.5428,3.5428,3.5428,3.5428,3.5428,3.5428,3.5428,3.5366,3.518,3.5242,3.5262,3.519,3.5252,3.5355,3.5418,3.5428,3.5314,3.5024,3.4838,3.4857,3.4837,3.4826,3.4847,3.5159,3.5428,3.5428,3.5428,3.5428,3.5428,3.5428,3.5428,3.5428,3.5428,3.5428,3.5428,3.5428,3.5428,3.5428,3.5428,3.5428,3.5428,3.5428,3.5428,3.5428,3.5428,3.5428,3.5541,3.6207,3.7039,3.7992,3.8837,3.9978,4.1127,4.1184,4.1184,4.1184,4.1184,4.1184,4.1299,4.1528,4.1814,4.2054,4.2324,4.2706,4.2918,4.2986,4.2986,4.2986,4.2986,4.2986,4.2986,4.2986,4.2986,4.2986,4.2986,4.2986,4.2986,4.2986,4.2986,4.2986,4.3037,4.3099,4.32,4.3489,4.3853,3.2824,3.3068,3.284,3.2762,3.3016,3.3182,3.3503,3.3986,3.4155,3.4113,3.4176,3.4675,3.483,3.4655,3.48,3.4974,3.4974,3.4901,3.4839,3.4715,3.4725,3.46,3.4548,3.4735,3.4932,3.5056,3.518,3.5428,3.5428,3.5428,3.5428,3.5428,3.5428,3.5428,3.5428,3.5428,3.5428,3.5335,3.5242,3.5231,3.519,3.5159,3.5273,3.5355,3.5418,3.5428,3.5407,3.5086,3.5035,3.5024,3.5024,3.5024,3.5035,3.5293,3.5418,3.5428,3.5428,3.5428,3.5428,3.5428,3.5428,3.5428,3.5428,3.5428,3.5428,3.5428,3.5428,3.5428,3.5428,3.5428,3.5428,3.5428,3.5428,3.5428,3.5428,3.5428,3.59,3.6441,3.7341,3.8361,3.9439,4.0583,4.1184,4.1184,4.1184,4.1184,4.1184,4.1184,4.1287,4.1459,4.1757,4.2054,4.2268,4.2538,4.2762,4.2986,4.2986,4.2986,4.2986,4.2986,4.2986,4.2986,4.2986,4.2986,4.2986,4.2986,4.2986,4.2986,4.2986,4.2986,4.2986,4.3024,4.3074,4.3187,4.3601,3.2669,3.269,3.2669,3.3006,3.3461,3.3852,3.4308,3.4754,3.4,3.3751,3.4147,3.4278,3.4371,3.4309,3.446,3.4538,3.4548,3.4548,3.4485,3.436,3.436,3.4288,3.4423,3.4673,3.4797,3.4984,3.517,3.5428,3.5428,3.5428,3.5428,3.5428,3.5428,3.5428,3.5428,3.5428,3.5428,3.5397,3.5366,3.5366,3.5387,3.5407,3.5428,3.5418,3.5428,3.5428,3.5428,3.5407,3.5428,3.5418,3.5407,3.5376,3.5376,3.5387,3.5418,3.5428,3.5428,3.5428,3.5428,3.5428,3.5428,3.5428,3.5428,3.5428,3.5428,3.5428,3.5428,3.5428,3.5428,3.5428,3.5428,3.5428,3.5428,3.5428,3.5428,3.5428,3.5665,3.6563,3.7823,3.8896,4.0095,4.1115,4.1184,4.1184,4.1184,4.1184,4.1184,4.1184,4.1242,4.1402,4.1688,4.1984,4.2211,4.2425,4.2818,4.2986,4.2986,4.2986,4.2986,4.2986,4.2986,4.2986,4.2986,4.2986,4.2986,4.2986,4.2986,4.2986,4.2986,4.2986,4.2986,4.2986,4.3011,4.3049,4.3376,3.2669,3.2669,3.2669,3.3172,3.3813,3.3637,3.4238,3.518,3.444,3.4104,3.4237,3.4329,3.4205,3.3982,3.4232,3.4298,3.436,3.4235,3.4235,3.411,3.4047,3.4047,3.411,3.4423,3.4673,3.4922,3.517,3.5428,3.5428,3.5428,3.5428,3.5428,3.5428,3.5428,3.5428,3.5428,3.5428,3.5428,3.5428,3.5428,3.5428,3.5428,3.5428,3.5428,3.5428,3.5428,3.5428,3.5428,3.5428,3.5418,3.5418,3.5418,3.5418,3.5428,3.5428,3.5428,3.5428,3.5428,3.5428,3.5428,3.5428,3.5428,3.5428,3.5428,3.5428,3.5428,3.5428,3.5428,3.5428,3.5428,3.5428,3.5428,3.5428,3.5428,3.5428,3.5428,3.5428,3.6807,3.8242,3.938,4.0629,4.1057,4.1184,4.1184,4.1184,4.1184,4.1184,4.1184,4.1184,4.1287,4.1573,4.1871,4.2041,4.2324,4.2762,4.2986,4.2986,4.2986,4.2986,4.2986,4.2986,4.2986,4.2986,4.2986,4.2986,4.2986,4.2986,4.2986,4.2986,4.2986,4.2986,4.2986,4.2986,4.3011,4.3338,3.2669,3.269,3.2944,3.3362,3.3801,3.3821,3.4236,3.4758,3.4347,3.4123,3.4143,3.4168,3.4033,3.3813,3.3958,3.3985,3.3985,3.3932,3.3796,3.3733,3.3733,3.3796,3.3985,3.4235,3.461,3.4911,3.5232,3.5428,3.5428,3.5428,3.5428,3.5428,3.5428,3.5428,3.5428,3.5428,3.5428,3.5428,3.5428,3.5428,3.5428,3.5428,3.5428,3.5428,3.5428,3.5428,3.5428,3.5428,3.5428,3.5428,3.5428,3.5428,3.5428,3.5428,3.5428,3.5428,3.5428,3.5428,3.5428,3.5428,3.5428,3.5428,3.5428,3.5428,3.5428,3.5428,3.5428,3.5428,3.5428,3.5428,3.5428,3.5428,3.5428,3.5428,3.5428,3.5428,3.5962,3.6989,3.8003,3.8778,4.0036,4.1127,4.1184,4.1184,4.1184,4.1184,4.1184,4.1184,4.1184,4.1184,4.1471,4.1757,4.1928,4.2199,4.2581,4.2862,4.2986,4.2986,4.2986,4.2986,4.2986,4.2986,4.2986,4.2986,4.2986,4.2986,4.2986,4.2986,4.2986,4.2986,4.2986,4.2986,4.2986,4.2986,4.3187,3.2669,3.2789,3.3124,3.3461,3.3615,3.4064,3.4319,3.4373,3.4037,3.3902,3.3882,3.3839,3.3859,3.3733,3.3544,3.3481,3.3418,3.3544,3.3481,3.3418,3.3418,3.3733,3.4047,3.4288,3.46,3.4984,3.5294,3.5356,3.5428,3.5428,3.5428,3.5428,3.5428,3.5428,3.5428,3.5428,3.5428,3.5428,3.5428,3.5428,3.5428,3.5428,3.5428,3.5428,3.5428,3.5428,3.5428,3.5428,3.5428,3.5428,3.5428,3.5428,3.5428,3.5428,3.5428,3.5428,3.5428,3.5428,3.5428,3.5428,3.5428,3.5428,3.5428,3.5428,3.5428,3.5428,3.5428,3.5428,3.5428,3.5428,3.5428,3.5428,3.5428,3.5428,3.5428,3.5726,3.6502,3.7292,3.7943,3.86,3.9802,4.1127,4.1184,4.1184,4.1184,4.1184,4.1184,4.1184,4.1184,4.1184,4.1357,4.1643,4.1871,4.2142,4.2457,4.275,4.2986,4.2986,4.2986,4.2986,4.2986,4.2986,4.2986,4.2986,4.2986,4.2986,4.2986,4.2986,4.2986,4.2986,4.2986,4.2986,4.2986,4.2986,4.2986,3.2487,3.2711,3.2902,3.3225,3.3576,3.3842,3.4082,3.431,3.4047,3.3922,3.3796,3.3607,3.3481,3.3481,3.3418,3.3418,3.3418,3.3418,3.3418,3.3418,3.3418,3.3796,3.4173,3.4485,3.4797,3.5108,3.5356,3.5356,3.5428,3.5428,3.5428,3.5428,3.5428,3.5428,3.5428,3.5428,3.5428,3.5428,3.5428,3.5428,3.5428,3.5428,3.5428,3.5428,3.5428,3.5428,3.5428,3.5428,3.5428,3.5428,3.5428,3.5428,3.5428,3.5428,3.5428,3.5428,3.5428,3.5428,3.5428,3.5428,3.5428,3.5428,3.5428,3.5428,3.5428,3.5428,3.5428,3.5428,3.5428,3.5428,3.5428,3.5428,3.5428,3.5428,3.5428,3.6391,3.7292,3.7943,3.854,3.9498,4.0583,4.1184,4.1184,4.1184,4.1184,4.1184,4.1184,4.1184,4.1184,4.1242,4.1242,4.1471,4.1757,4.2142,4.2469,4.2806,4.2986,4.2986,4.2986,4.2986,4.2986,4.2986,4.2986,4.2986,4.2986,4.2986,4.2986,4.2986,4.2986,4.2986,4.2986,4.2986,4.2986,4.2986,4.2986]}]]